[[{"header":{"parameterUnit":"m.s-1","parameterCategory":1,"la1":31.0,"la2":29.5877,"lo1":-88.7671,"lo2":-86.6584,"dy":0.0162,"dx":0.0185,"nx":115,"ny":88,"refTime":"2023-08-25T18:00:00:Z","depth":0,"parameterNumber":2,"parameterNumberName":"U-component_of_WINDS"},"data":[0.0,0.0,0.0,0.0,0.0,0.0,0.0,0.0,0.0,0.0,0.0,0.0,0.0,0.0,0.0,0.0,0.0,0.0,0.0,0.0,0.0,0.0,0.0,0.0,0.0,0.0,0.0,0.0,0.0,0.0,0.0,0.0,0.0,0.0,0.0,0.0,0.0,0.0,0.0,0.0,0.0,0.0,0.0,0.0,0.0,0.0,0.0,0.0,0.0,0.0,0.0,0.0,0.0,0.0,0.0,0.0,0.0,0.0,0.0,0.0,0.0,0.0,0.0,0.0,0.0,0.0,0.0,0.0,0.0,0.0,0.0,0.0,0.0,0.0,0.0,0.0,0.0,0.0,0.0,0.0,0.0,0.0,0.0,0.0,0.0,0.0,0.0,0.0,0.0,0.0,0.0,0.0,0.0,0.0,0.0,0.0,0.0,0.0,0.0,0.0,0.0,0.0,0.0,0.0,0.0,0.0,0.0,0.0,0.0,0.0,0.0,0.0,0.0,0.0,0.0,0.0,0.0,0.0,0.0,0.0,0.0,0.0,0.0,0.0,0.0,0.0,0.0,0.0,0.0,0.0,0.0,0.0,0.0,0.0,0.0,0.0,0.0,0.0,0.0,0.0,0.0,0.0,0.0,0.0,0.0,0.0,0.0,0.0,0.0,0.0,0.0,0.0,0.0,0.0,0.0,0.0,0.0,0.0,0.0,0.0,0.0,0.0,0.0,0.0,0.0,0.0,0.0,0.0,0.0,0.0,0.0,0.0,0.0,0.0,0.0,0.0,0.0,0.0,0.0,0.0,0.0,0.0,0.0,0.0,0.0,0.0,0.0,0.0,0.0,0.0,0.0,0.0,0.0,0.0,0.0,0.0,0.0,0.0,0.0,0.0,0.0,0.0,0.0,0.0,0.0,0.0,0.0,0.0,0.0,0.0,0.0,0.0,0.0,0.0,0.0,0.0,0.0,0.0,0.0,0.0,0.0,0.0,0.0,0.0,0.0,0.0,0.0,0.0,0.0,0.0,0.0,0.0,0.0,0.0,0.0,0.0,0.0,0.0,0.0,0.0,0.0,0.0,0.0,0.0,0.0,0.0,0.0,0.0,0.0,0.0,0.0,0.0,0.0,0.0,0.0,0.0,0.0,0.0,0.0,0.0,0.0,0.0,0.0,0.0,0.0,0.0,0.0,0.0,0.0,0.0,0.0,0.0,0.0,0.0,0.0,0.0,0.0,0.0,0.0,0.0,0.0,0.0,0.0,0.0,0.0,0.0,0.0,0.0,0.0,0.0,0.0,0.0,0.0,0.0,0.0,0.0,0.0,0.0,0.0,0.0,0.0,0.0,0.0,0.0,0.0,0.0,0.0,0.0,0.0,0.0,0.0,0.0,0.0,0.0,0.0,0.0,0.0,0.0,0.0,0.0,0.0,0.0,0.0,0.0,0.0,0.0,0.0,0.0,0.0,0.0,0.0,0.0,0.0,0.0,0.0,0.0,0.0,0.0,0.0,0.0,0.0,0.0,0.0,0.0,0.0,0.0,0.0,0.0,0.0,0.0,0.0,0.0,0.0,0.0,0.0,0.0,0.0,0.0,0.0,0.0,0.0,0.0,0.0,0.0,0.0,0.0,0.0,0.0,0.0,0.0,0.0,0.0,0.0,0.0,0.0,0.0,0.0,0.0,0.0,0.0,0.0,0.0,0.0,0.0,0.0,0.0,0.0,0.0,0.0,0.0,0.0,0.0,0.0,0.0,0.0,0.0,0.0,0.0,0.0,0.0,0.0,0.0,0.0,0.0,0.0,0.0,0.0,0.0,0.0,0.0,0.0,0.0,0.0,0.0,0.0,0.0,0.0,0.0,0.0,0.0,0.0,0.0,0.0,0.0,0.0,0.0,0.0,0.0,0.0,0.0,0.0,0.0,0.0,0.0,0.0,0.0,0.0,0.0,0.0,0.0,0.0,0.0,0.0,0.0,0.0,0.0,0.0,0.0,0.0,0.0,0.0,0.0,0.0,0.0,0.0,0.0,0.0,0.0,0.0,0.0,0.0,0.0,0.0,0.0,0.0,0.0,0.0,0.0,0.0,0.0,0.0,0.0,0.0,0.0,0.0,0.0,0.0,0.0,0.0,0.0,0.0,0.0,0.0,0.0,0.0,0.0,0.0,0.0,0.0,0.0,0.0,0.0,0.0,0.0,0.0,0.0,0.0,0.0,0.0,0.0,0.0,0.0,0.0,0.0,0.0,0.0,0.0,0.0,0.0,0.0,0.0,0.0,0.0,0.0,0.0,0.0,0.0,0.0,0.0,0.0,0.0,0.0,0.0,0.0,0.0,0.0,0.0,0.0,0.0,0.0,0.0,0.0,0.0,0.0,0.0,0.0,0.0,0.0,0.0,0.0,0.0,0.0,0.0,0.0,0.0,0.0,0.0,0.0,0.0,0.0,0.0,0.0,0.0,0.0,0.0,0.0,0.0,0.0,0.0,0.0,0.0,0.0,0.0,0.0,0.0,0.0,0.0,0.0,0.0,0.0,0.0,0.0,0.0,0.0,0.0,0.0,0.0,0.0,0.0,0.0,0.0,0.0,0.0,0.0,0.0,0.0,0.0,0.0,0.0,0.0,0.0,0.0,0.0,0.0,0.0,0.0,0.0,0.0,0.0,0.0,0.0,0.0,0.0,0.0,0.0,0.0,0.0,0.0,0.0,0.0,0.0,0.0,0.0,0.0,0.0,0.0,0.0,0.0,0.0,0.0,0.0,0.0,0.0,0.0,0.0,0.0,0.0,0.0,0.0,0.0,0.0,0.0,0.0,0.0,0.0,0.0,0.0,0.0,0.0,0.0,0.0,0.0,0.0,0.0,0.0,0.0,0.0,0.0,0.0,0.0,0.0,0.0,0.0,0.0,0.0,0.0,0.0,0.0,0.0,0.0,0.0,0.0,0.0,0.0,0.0,0.0,0.0,0.0,0.0,0.0,0.0,0.0,0.0,0.0,0.0,0.0,0.0,0.0,0.0,0.0,0.0,0.0,0.0,0.0,0.0,0.0,0.0,0.0,0.0,0.0,0.0,0.0,0.0,0.0,0.0,0.0,0.0,0.0,0.0,0.0,0.0,0.0,0.0,0.0,0.0,0.0,0.0,0.0,0.0,0.0,0.0,0.0,0.0,0.0,0.0,0.0,0.0,0.0,0.0,0.0,0.0,0.0,0.0,0.0,0.0,0.0,0.0,0.0,0.0,0.0,0.0,0.0,0.0,0.0,0.0,0.0,0.0,0.0,0.0,0.0,0.0,0.0,0.0,0.0,0.0,0.0,0.0,0.0,0.0,0.0,0.0,0.0,0.0,0.0,0.0,0.0,0.0,0.0,0.0,0.0,0.0,0.0,0.0,0.0,0.0,0.0,0.0,0.0,0.0,0.0,0.0,0.0,0.0,0.0,0.0,0.0,0.0,0.0,0.0,0.0,0.0,0.0,0.0,0.0,0.0,0.0,0.0,0.0,0.0,0.0,0.0,0.0,0.0,0.0,0.0,0.0,0.0,0.0,0.0,0.0,0.0,0.0,0.0,0.0,0.0,0.0,0.0,0.0,0.0,0.0,0.0,0.0,0.0,0.0,0.0,0.0,0.0,0.0,0.0,0.0,0.0,0.0,0.0,0.0,0.0,0.0,0.0,0.0,0.0,0.0,0.0,0.0,0.0,0.0,0.0,0.0,0.0,0.0,0.0,0.0,0.0,0.0,0.0,0.0,0.0,0.0,0.0,0.0,0.0,0.0,0.0,0.0,0.0,0.0,0.0,0.0,0.0,0.0,0.0,0.0,0.0,0.0,0.0,0.0,0.0,0.0,0.0,0.0,0.0,0.0,0.0,0.0,0.0,0.0,0.0,0.0,0.0,0.0,0.0,0.0,0.0,0.0,0.0,0.0,0.0,0.0,0.0,0.0,0.0,0.0,0.0,0.0,0.0,0.0,0.0,0.0,0.0,0.0,0.0,0.0,0.0,0.0,0.0,0.0,0.0,0.0,0.0,0.0,0.0,0.0,0.0,0.0,0.0,0.0,0.0,0.0,0.0,0.0,0.0,0.0,0.0,0.0,0.0,0.0,0.0,0.0,0.0,0.0,0.0,0.0,0.0,0.0,0.0,0.0,0.0,0.0,0.0,0.0,0.0,0.0,0.0,0.0,0.0,0.0,0.0,0.0,0.0,0.0,0.0,0.0,0.0,0.0,0.0,0.0,0.0,0.0,0.0,0.0,0.0,0.0,0.0,0.0,0.0,0.0,0.0,0.0,1.2244,0.0,0.0,0.0,0.0,0.0,0.0,0.0,0.0,0.0,0.0,0.0,0.0,0.0,0.0,0.0,0.0,0.0,0.0,0.0,0.0,0.0,0.0,0.0,0.0,0.0,0.0,0.0,0.0,0.0,0.0,0.0,0.0,0.0,0.0,0.0,0.0,0.0,0.0,0.0,0.0,0.0,0.0,0.0,0.0,0.0,0.0,0.0,0.0,0.0,0.0,0.0,0.0,0.0,0.0,0.0,0.0,0.0,0.0,0.0,0.0,0.0,0.0,0.0,0.0,0.0,0.0,0.0,0.0,0.0,0.0,0.0,0.0,0.0,0.0,0.0,0.0,0.0,0.0,0.0,0.0,0.0,0.0,0.0,0.0,0.0,0.0,0.0,0.0,0.0,0.0,0.0,0.0,0.0,0.0,0.0,0.0,0.0,0.0,0.0,0.0,0.0,0.0,0.0,0.0,0.0,0.0,0.0,0.0,0.0,0.0,1.3612,1.3593,1.2812,1.2602,1.304,0.0,0.0,0.0,0.0,0.0,0.0,0.0,0.0,0.0,0.0,0.0,0.0,0.0,0.0,0.0,0.0,0.0,0.0,0.0,0.0,0.0,0.0,0.0,0.0,0.0,0.0,0.0,0.0,0.0,0.0,0.0,0.0,0.0,0.0,0.0,0.0,0.0,0.0,0.0,0.0,0.0,0.0,0.0,0.0,0.0,0.0,0.0,0.0,0.0,0.0,0.0,0.0,0.0,0.0,0.0,0.0,0.0,0.0,0.0,0.0,0.0,0.0,0.0,0.0,0.0,0.0,0.0,0.0,0.0,0.0,0.0,0.0,0.0,0.0,0.0,0.0,0.0,0.0,0.0,0.0,0.0,0.0,0.0,0.0,0.0,0.0,0.0,0.0,0.0,0.0,0.0,0.0,0.0,0.0,0.0,0.0,0.0,0.0,0.0,0.0,0.0,0.0,0.0,0.0,0.0,0.0,0.0,0.0,0.0,0.0,0.0,0.0,1.3274,1.3234,1.3898,0.0,0.0,0.0,0.0,0.0,0.0,0.0,0.0,0.0,0.0,0.0,0.0,0.0,0.0,0.0,0.0,0.0,0.0,0.0,0.0,0.0,0.0,0.0,0.0,0.0,0.0,0.0,0.0,0.0,0.0,0.0,0.0,0.0,0.0,0.0,0.0,0.0,0.0,0.0,0.0,0.0,0.0,0.0,0.0,0.0,0.0,0.0,0.0,0.0,0.0,0.0,0.0,0.0,0.0,0.0,0.0,0.0,0.0,0.0,0.0,0.0,0.0,0.0,0.0,0.0,0.0,0.0,0.0,0.0,0.0,0.0,0.0,0.0,0.0,0.0,0.0,0.0,0.0,0.0,0.0,0.0,0.0,0.0,0.0,0.0,0.0,0.0,0.0,0.0,0.0,0.0,0.0,0.0,0.0,0.0,0.0,0.0,0.0,0.0,0.0,0.0,0.0,0.0,0.0,0.0,0.0,0.0,0.0,0.0,0.0,1.4691,1.4691,1.4607,0.0,1.4782,0.0,0.0,0.0,0.0,0.0,0.0,0.0,0.0,0.0,0.0,0.0,0.0,0.0,0.0,0.0,0.0,0.0,0.0,0.0,0.0,0.0,0.0,0.0,0.0,0.0,0.0,0.0,0.0,0.0,0.0,0.0,0.0,0.0,0.0,0.0,0.0,0.0,0.0,0.0,0.0,0.0,0.0,0.0,0.0,0.0,0.0,0.0,0.0,0.0,0.0,0.0,0.0,0.0,0.0,0.0,0.0,0.0,0.0,0.0,0.0,0.0,0.0,0.0,0.0,0.0,0.0,0.0,0.0,0.0,0.0,0.0,0.0,0.0,0.0,0.0,0.0,0.0,0.0,0.0,0.0,0.0,0.0,0.0,0.0,0.0,0.0,0.0,0.0,0.0,0.0,0.0,0.0,0.0,0.0,0.0,0.0,0.0,0.0,0.0,0.0,0.0,0.0,0.0,0.0,0.0,0.0,0.0,0.0,0.0,0.0,1.4804,1.4794,1.4841,1.4868,0.0,0.0,0.0,0.0,0.0,0.0,0.0,0.0,0.0,0.0,0.0,0.0,0.0,0.0,0.0,0.0,0.0,0.0,0.0,0.0,0.0,0.0,0.0,0.0,0.0,0.0,0.0,0.0,0.0,0.0,0.0,0.0,0.0,0.0,0.0,0.0,0.0,0.0,0.0,0.0,0.0,0.0,0.0,0.0,0.0,0.0,0.0,0.0,0.0,0.0,0.0,0.0,0.0,0.0,0.0,0.0,0.0,0.0,0.0,0.0,0.0,0.0,0.0,0.0,0.0,0.0,0.0,0.0,0.0,0.0,0.0,0.0,0.0,0.0,0.0,0.0,0.0,0.0,0.0,0.0,0.0,0.0,0.0,0.0,0.0,0.0,0.0,0.0,0.0,0.0,0.0,0.0,0.0,0.0,0.0,0.0,0.0,0.0,0.0,0.0,0.0,0.0,0.0,0.0,0.0,0.0,0.0,0.0,0.0,0.0,1.4794,1.4794,1.4804,1.4859,1.4886,1.4904,0.0,0.0,0.0,0.0,0.0,0.0,0.0,0.0,0.0,0.0,0.0,0.0,0.0,0.0,0.0,0.0,0.0,0.0,0.0,0.0,0.0,0.0,0.0,0.0,0.0,0.0,0.0,0.0,0.0,0.0,0.0,0.0,0.0,0.0,0.0,0.0,0.0,0.0,0.0,0.0,0.0,0.0,0.0,0.0,0.0,0.0,0.0,0.0,0.0,0.0,0.0,0.0,0.0,0.0,0.0,0.0,0.0,0.0,0.0,0.0,0.0,0.0,0.0,0.0,0.0,0.0,0.0,0.0,0.0,0.0,0.0,0.0,0.0,0.0,0.0,0.0,0.0,0.0,0.0,0.0,0.0,0.0,0.0,0.0,0.0,0.0,0.0,0.0,0.0,0.0,0.0,0.0,0.0,0.0,0.0,0.0,0.0,0.0,0.0,0.0,0.0,0.0,0.0,0.0,0.0,0.0,0.0,0.0,1.4793,1.4803,1.4803,1.4794,1.4868,1.4904,0.0,0.0,0.0,0.0,0.0,0.0,0.0,0.0,0.0,0.0,0.0,0.0,0.0,0.0,0.0,0.0,0.0,0.0,0.0,0.0,0.0,0.0,0.0,0.0,0.0,0.0,0.0,0.0,0.0,0.0,0.0,0.0,0.0,0.0,0.0,0.0,0.0,0.0,0.0,0.0,0.0,0.0,0.0,0.0,0.0,0.0,0.0,0.0,0.0,0.0,0.0,0.0,0.0,0.0,0.0,0.0,0.0,0.0,0.0,0.0,0.0,0.0,0.0,0.0,0.0,0.0,0.0,0.0,0.0,0.0,0.0,0.0,0.0,0.0,0.0,0.0,0.0,0.0,0.0,0.0,0.0,0.0,0.0,0.0,0.0,0.0,0.0,0.0,0.0,0.0,0.0,0.0,0.0,0.0,0.0,0.0,0.0,0.0,0.0,0.0,0.0,0.0,0.0,0.0,0.0,0.0,0.0,0.0,0.0,1.4743,1.4774,1.4813,1.4794,1.485,1.4904,0.0,0.0,0.0,0.0,0.0,0.0,0.0,0.0,0.0,0.0,0.0,0.0,0.0,0.0,0.0,0.0,0.0,0.0,0.0,0.0,0.0,0.0,0.0,0.0,0.0,0.0,0.0,0.0,0.0,0.0,0.0,0.0,0.0,0.0,0.0,0.0,0.0,0.0,0.0,0.0,0.0,0.0,0.0,0.0,0.0,0.0,0.0,0.0,0.0,0.0,0.0,0.0,0.0,0.0,0.0,0.0,0.0,0.0,0.0,0.0,0.0,0.0,0.0,0.0,0.0,0.0,0.0,0.0,0.0,0.0,0.0,0.0,0.0,0.0,0.0,0.0,0.0,0.0,0.0,0.0,0.0,0.0,0.0,0.0,0.0,0.0,0.0,0.0,0.0,0.0,0.0,0.0,0.0,0.0,0.0,0.0,0.0,0.0,0.0,0.0,0.0,0.0,0.0,0.0,0.0,0.0,0.0,0.0,0.0,1.4732,0.0,1.4804,1.4841,1.4886,1.4904,0.0,0.0,0.0,0.0,0.0,0.0,0.0,0.0,0.0,0.0,0.0,0.0,0.0,0.0,0.0,0.0,0.0,0.0,0.0,0.0,0.0,0.0,0.0,0.0,0.0,0.0,0.0,0.0,0.0,0.0,0.0,0.0,0.0,0.0,0.0,0.0,0.0,0.0,0.0,0.0,0.0,0.0,0.0,0.0,0.0,0.0,0.0,0.0,0.0,0.0,0.0,0.0,0.0,0.0,0.0,0.0,0.0,0.0,0.0,0.0,0.0,0.0,0.0,0.0,0.0,0.0,0.0,0.0,0.0,0.0,0.0,0.0,0.0,0.0,0.0,0.0,0.0,0.0,0.0,0.0,0.0,0.0,0.0,0.0,0.0,0.0,0.0,0.0,0.0,0.0,0.0,0.0,0.0,0.0,0.0,0.0,0.0,0.0,0.0,0.0,0.0,0.0,0.0,0.0,0.0,0.0,0.0,0.0,1.4709,1.4793,1.4803,1.4832,1.4896,1.4895,1.4894,0.0,0.0,0.0,0.0,0.0,0.0,0.0,0.0,0.0,0.0,0.0,0.0,0.0,0.0,0.0,0.0,0.0,0.0,0.0,0.0,0.0,0.0,0.0,0.0,0.0,0.0,0.0,0.0,0.0,0.0,0.0,0.0,0.0,0.0,0.0,0.0,0.0,0.0,0.0,0.0,0.0,0.0,0.0,0.0,0.0,0.0,0.0,0.0,0.0,0.0,0.0,0.0,0.0,0.0,0.0,0.0,0.0,0.0,0.0,0.0,0.0,0.0,0.0,0.0,0.0,0.0,0.0,0.0,0.0,0.0,0.0,0.0,0.0,0.0,0.0,0.0,0.0,0.0,0.0,0.0,0.0,0.0,0.0,0.0,0.0,0.0,0.0,0.0,0.0,0.0,0.0,0.0,0.0,0.0,0.0,0.0,0.0,0.0,0.0,0.0,0.0,0.0,0.0,0.0,0.0,0.0,0.0,0.0,0.0,1.4754,1.4774,1.4823,1.4896,1.4895,1.4894,0.0,0.0,0.0,0.0,0.0,0.0,0.0,0.0,0.0,0.0,0.0,0.0,0.0,0.0,0.0,0.0,0.0,0.0,0.0,0.0,0.0,0.0,0.0,0.0,0.0,0.0,0.0,0.0,0.0,0.0,0.0,0.0,0.0,0.0,0.0,0.0,0.0,0.0,0.0,0.0,0.0,0.0,0.0,0.0,0.0,0.0,0.0,0.0,0.0,0.0,0.0,0.0,0.0,0.0,0.0,0.0,0.0,0.0,0.0,0.0,0.0,0.0,0.0,0.0,0.0,0.0,0.0,0.0,0.0,0.0,0.0,0.0,0.0,0.0,0.0,0.0,0.0,0.0,0.0,0.0,0.0,0.0,0.0,0.0,0.0,0.0,0.0,0.0,0.0,0.0,0.0,0.0,0.0,0.0,0.0,0.0,0.0,0.0,0.0,0.0,0.0,0.0,0.0,0.0,0.0,0.0,0.0,0.0,0.0,1.5644,1.565,1.5731,1.5819,1.5838,1.5705,1.5402,0.0,0.0,0.0,0.0,0.0,0.0,0.0,0.0,0.0,0.0,0.0,0.0,0.0,0.0,0.0,0.0,0.0,0.0,0.0,0.0,0.0,0.0,0.0,0.0,0.0,0.0,0.0,0.0,0.0,0.0,0.0,0.0,0.0,0.0,0.0,0.0,0.0,0.0,0.0,0.0,0.0,0.0,0.0,0.0,0.0,0.0,0.0,0.0,0.0,0.0,0.0,0.0,0.0,0.0,0.0,0.0,0.0,0.0,0.0,0.0,0.0,0.0,0.0,0.0,0.0,0.0,0.0,0.0,0.0,0.0,0.0,0.0,0.0,0.0,0.0,0.0,0.0,0.0,0.0,0.0,0.0,0.0,0.0,0.0,0.0,0.0,0.0,0.0,0.0,0.0,0.0,0.0,0.0,0.0,0.0,0.0,0.0,0.0,0.0,0.0,0.0,0.0,0.0,0.0,0.0,0.0,0.0,0.0,1.7226,1.7305,1.7341,1.7365,1.7365,1.7036,0.0,0.0,0.0,0.0,0.0,0.0,0.0,0.0,0.0,0.0,0.0,0.0,0.0,0.0,0.0,0.0,0.0,0.0,0.0,0.0,0.0,0.0,0.0,0.0,0.0,0.0,0.0,0.0,0.0,0.0,0.0,0.0,0.0,0.0,0.0,0.0,0.0,0.0,0.0,0.0,0.0,0.0,0.0,0.0,0.0,0.0,0.0,0.0,0.0,0.0,0.0,0.0,0.0,0.0,0.0,0.0,0.0,0.0,0.0,0.0,0.0,0.0,0.0,0.0,0.0,0.0,0.0,0.0,0.0,0.0,0.0,0.0,0.0,0.0,0.0,0.0,0.0,0.0,0.0,0.0,0.0,0.0,0.0,0.0,0.0,0.0,0.0,0.0,0.0,0.0,0.0,0.0,0.0,0.0,0.0,0.0,0.0,0.0,0.0,0.0,0.0,0.0,0.0,0.0,0.0,0.0,0.0,0.0,0.0,1.8933,1.9013,1.8502,1.739,1.7344,1.7261,0.0,0.0,0.0,0.0,0.0,0.0,0.0,0.0,0.0,0.0,0.0,0.0,0.0,0.0,0.0,0.0,0.0,0.0,0.0,0.0,0.0,0.0,0.0,0.0,0.0,0.0,0.0,0.0,0.0,0.0,0.0,0.0,0.0,0.0,0.0,0.0,0.0,0.0,0.0,0.0,0.0,0.0,0.0,0.0,0.0,0.0,0.0,0.0,0.0,0.0,0.0,0.0,0.0,0.0,0.0,0.0,0.0,0.0,0.0,0.0,0.0,0.0,0.0,0.0,0.0,0.0,0.0,0.0,0.0,0.0,0.0,0.0,0.0,0.0,0.0,0.0,0.0,0.0,0.0,0.0,0.0,0.0,0.0,0.0,0.0,0.0,0.0,0.0,0.0,0.0,0.0,0.0,0.0,0.0,0.0,0.0,0.0,0.0,0.0,0.0,0.0,0.0,0.0,0.0,0.0,0.0,0.0,0.0,1.9497,1.955,1.9665,1.9257,1.8343,1.8339,1.8211,0.0,0.0,0.0,0.0,0.0,0.0,0.0,0.0,0.0,0.0,0.0,0.0,0.0,0.0,0.0,0.0,0.0,0.0,0.0,0.0,0.0,0.0,0.0,0.0,0.0,0.0,0.0,0.0,0.0,0.0,0.0,0.0,0.0,0.0,0.0,0.0,0.0,0.0,0.0,0.0,0.0,0.0,0.0,0.0,0.0,0.0,0.0,0.0,0.0,0.0,0.0,0.0,0.0,0.0,0.0,0.0,0.0,0.0,0.0,0.0,0.0,0.0,0.0,0.0,0.0,0.0,0.0,0.0,0.0,0.0,0.0,0.0,0.0,0.0,0.0,0.0,0.0,0.0,0.0,0.0,0.0,0.0,0.0,0.0,0.0,0.0,0.0,0.0,0.0,0.0,0.0,0.0,0.0,0.0,0.0,0.0,0.0,0.0,0.0,0.0,0.0,0.0,0.0,0.0,0.0,0.0,0.0,0.0,1.9416,1.9485,1.9633,1.9681,1.9682,1.9763,1.9461,0.0,0.0,0.0,0.0,0.0,0.0,0.0,0.0,0.0,0.0,0.0,0.0,0.0,0.0,0.0,0.0,0.0,0.0,0.0,0.0,0.0,0.0,0.0,0.0,0.0,0.0,0.0,0.0,0.0,0.0,0.0,0.0,0.0,0.0,0.0,0.0,0.0,0.0,0.0,0.0,0.0,0.0,0.0,0.0,0.0,0.0,0.0,0.0,0.0,0.0,0.0,0.0,0.0,0.0,0.0,0.0,0.0,0.0,0.0,0.0,0.0,0.0,0.0,0.0,0.0,0.0,0.0,0.0,0.0,0.0,0.0,0.0,0.0,0.0,0.0,0.0,0.0,0.0,0.0,0.0,0.0,0.0,0.0,0.0,0.0,0.0,0.0,0.0,0.0,0.0,0.0,0.0,0.0,0.0,0.0,0.0,0.0,0.0,0.0,0.0,0.0,0.0,0.0,0.0,0.0,0.0,0.0,0.0,1.9335,1.9423,1.9532,1.9652,1.9699,1.9782,1.9713,0.0,0.0,0.0,0.0,0.0,0.0,0.0,0.0,0.0,0.0,0.0,0.0,0.0,0.0,0.0,0.0,0.0,0.0,0.0,0.0,0.0,0.0,0.0,0.0,0.0,0.0,0.0,0.0,0.0,0.0,0.0,0.0,0.0,0.0,0.0,0.0,0.0,0.0,0.0,0.0,0.0,0.0,0.0,0.0,0.0,0.0,0.0,0.0,1.2226,0.0,0.0,0.0,0.0,0.0,0.0,0.0,0.0,0.0,0.0,0.0,0.0,0.0,0.0,0.0,0.0,0.0,0.0,0.0,0.0,0.0,0.0,0.0,0.0,0.0,0.0,0.0,0.0,0.0,0.0,0.0,0.0,0.0,0.0,0.0,0.0,0.0,0.0,0.0,0.0,0.0,0.0,0.0,0.0,0.0,0.0,0.0,0.0,0.0,0.0,0.0,0.0,0.0,0.0,0.0,0.0,0.0,0.0,0.0,1.9259,1.935,1.9442,1.955,1.9652,1.9692,1.9699,0.0,0.0,0.0,0.0,0.0,0.0,0.0,0.0,0.0,0.0,0.0,0.0,0.0,0.0,0.0,0.0,0.0,0.0,0.0,0.0,0.0,0.0,0.0,0.0,0.0,0.0,0.0,0.0,0.0,0.0,0.0,0.0,0.0,0.0,0.0,0.0,0.0,0.0,0.0,0.0,0.0,0.0,0.0,0.0,0.0,0.0,0.0,0.0,0.0,0.0,0.0,0.0,0.0,0.0,0.0,0.0,0.0,0.0,0.0,0.0,0.0,0.0,0.0,0.0,0.0,0.0,0.0,0.0,0.0,0.0,0.0,0.0,0.0,0.0,0.0,0.0,0.0,0.0,0.0,0.0,0.0,0.0,0.0,0.0,0.0,0.0,0.0,0.0,0.0,0.0,0.0,0.0,0.0,0.0,0.0,0.0,0.0,0.0,0.0,0.0,0.0,0.0,0.0,0.0,0.0,0.0,0.0,1.9034,1.9148,1.9274,1.935,1.9427,1.9587,1.9569,1.9611,1.9679,0.0,0.0,0.0,0.0,0.0,0.0,0.0,0.0,0.0,0.0,0.0,0.0,0.0,0.0,0.0,0.0,0.0,0.0,0.0,0.0,0.0,0.0,0.0,0.0,0.0,0.0,0.0,0.0,0.0,0.0,0.0,0.0,0.0,0.0,0.0,0.0,0.0,0.0,1.2569,1.2352,0.0,0.0,0.0,0.0,0.0,0.0,0.0,0.0,1.1848,0.0,0.0,0.0,0.0,0.0,0.0,0.0,0.0,0.0,0.0,0.0,0.0,0.0,0.0,0.0,0.0,0.0,0.0,0.0,0.0,0.0,0.0,0.0,0.0,0.0,0.0,0.0,0.0,0.0,0.0,0.0,0.0,0.0,0.0,0.0,0.0,0.0,0.0,0.0,0.0,0.0,0.0,0.0,0.0,0.0,0.0,0.0,0.0,0.0,0.0,0.0,0.0,0.0,0.0,0.0,0.0,1.8824,1.8949,1.9069,1.9132,1.9259,1.9353,1.942,1.9483,1.9512,1.9526,0.0,0.0,0.0,0.0,0.0,0.0,0.0,0.0,0.0,0.0,0.0,0.0,0.0,0.0,0.0,0.0,0.0,0.0,0.0,0.0,0.0,0.0,0.0,0.0,0.0,0.0,0.0,0.0,0.0,0.0,0.0,0.0,0.0,0.0,0.0,0.0,0.0,0.0,0.0,1.2096,1.1976,0.0,0.0,0.0,0.0,0.0,0.0,0.0,0.0,1.1645,0.0,0.0,0.0,0.0,0.0,0.0,0.0,0.0,0.0,0.0,0.0,0.0,0.0,0.0,0.0,0.0,0.0,0.0,0.0,0.0,0.0,0.0,0.0,0.0,0.0,0.0,0.0,0.0,0.0,0.0,0.0,0.0,0.0,0.0,0.0,0.0,0.0,0.0,0.0,0.0,0.0,0.0,0.0,0.0,0.0,0.0,0.0,0.0,0.0,0.0,0.0,0.0,0.0,0.0,0.0,1.8694,1.8842,1.9165,1.9648,1.977,1.9872,1.9971,2.0003,1.9816,0.0,0.0,0.0,0.0,0.0,0.0,0.0,0.0,0.0,0.0,0.0,0.0,0.0,0.0,0.0,0.0,0.0,0.0,0.0,0.0,0.0,0.0,0.0,0.0,0.0,0.0,0.0,0.0,0.0,0.0,0.0,0.0,0.0,0.0,0.0,0.0,0.0,0.0,0.0,0.0,1.1912,1.1805,1.1805,0.0,0.0,0.0,0.0,0.0,0.0,1.1511,1.1444,0.0,0.0,0.0,0.0,0.0,0.0,0.0,0.0,0.0,0.0,0.0,0.0,0.0,0.0,0.0,0.0,0.0,0.0,0.0,0.0,0.0,0.0,0.0,0.0,0.0,0.0,0.0,0.0,0.0,0.0,0.0,0.0,0.0,0.0,0.0,0.0,0.0,0.0,0.0,0.0,0.0,0.0,0.0,0.0,0.0,0.0,0.0,0.0,0.0,0.0,0.0,0.0,0.0,0.0,0.0,1.8579,1.8853,1.936,2.0119,2.0391,2.0572,2.0695,2.0693,2.0362,0.0,0.0,0.0,0.0,0.0,0.0,0.0,0.0,0.0,0.0,0.0,0.0,0.0,0.0,0.0,0.0,0.0,0.0,0.0,0.0,0.0,0.0,0.0,0.0,0.0,0.0,0.0,0.0,0.0,0.0,0.0,0.0,0.0,0.0,0.0,0.0,0.0,0.0,0.0,0.0,0.0,1.1991,1.1907,1.1806,0.0,0.0,0.0,0.0,1.1578,1.1494,0.0,0.0,0.0,0.0,0.0,0.0,0.0,0.0,0.0,0.0,0.0,0.0,0.0,0.0,0.0,0.0,0.0,0.0,0.0,0.0,0.0,0.0,0.0,0.0,0.0,0.0,0.0,0.0,0.0,0.0,0.0,0.0,0.0,0.0,0.0,0.0,0.0,0.0,0.0,0.0,0.0,0.0,0.0,0.0,0.0,0.0,0.0,0.0,0.0,0.0,0.0,0.0,0.0,0.0,0.0,0.0,1.854,1.9233,1.9739,2.0039,2.0783,2.1221,2.1296,2.1407,2.1097,0.0,0.0,0.0,0.0,0.0,0.0,0.0,0.0,0.0,0.0,0.0,0.0,0.0,0.0,0.0,0.0,0.0,0.0,0.0,0.0,0.0,0.0,0.0,0.0,0.0,0.0,0.0,0.0,0.0,0.0,0.0,0.0,0.0,0.0,0.0,0.0,0.0,0.0,0.0,0.0,0.0,1.3058,1.2953,1.2927,1.2848,0.0,0.0,1.2518,1.201,1.1875,0.0,0.0,0.0,0.0,0.0,0.0,0.0,0.0,0.0,0.0,0.0,0.0,0.0,0.0,0.0,0.0,0.0,0.0,0.0,0.0,0.0,0.0,0.0,0.0,0.0,0.0,0.0,0.0,0.0,0.0,0.0,0.0,0.0,0.0,0.0,0.0,0.0,0.0,0.0,0.0,0.0,0.0,0.0,0.0,0.0,0.0,0.0,0.0,0.0,0.0,0.0,0.0,0.0,0.0,0.0,1.8443,1.8965,1.9426,2.017,2.1164,2.1628,2.1931,2.201,2.2072,2.1767,0.0,0.0,0.0,0.0,0.0,0.0,0.0,0.0,0.0,0.0,0.0,0.0,0.0,0.0,0.0,0.0,0.0,0.0,0.0,0.0,0.0,0.0,0.0,0.0,0.0,0.0,0.0,0.0,0.0,0.0,0.0,0.0,0.0,0.0,0.0,0.0,0.0,0.0,0.0,0.0,0.0,0.0,1.294,1.2899,0.0,0.0,0.0,1.2609,1.2279,0.0,0.0,0.0,0.0,0.0,0.0,0.0,0.0,0.0,0.0,0.0,0.0,0.0,0.0,0.0,0.0,0.0,0.0,0.0,0.0,0.0,0.0,0.0,0.0,0.0,0.0,0.0,0.0,0.0,0.0,0.0,0.0,0.0,0.0,0.0,0.0,0.0,0.0,0.0,0.0,0.0,0.0,0.0,0.0,0.0,0.0,0.0,0.0,0.0,0.0,0.0,0.0,0.0,0.0,0.0,0.0,0.0,1.9568,1.9943,2.0767,2.2028,2.2411,2.2629,2.2733,2.28,0.0,0.0,0.0,0.0,0.0,0.0,0.0,0.0,0.0,0.0,0.0,0.0,0.0,0.0,0.0,0.0,0.0,0.0,0.0,0.0,0.0,0.0,0.0,0.0,0.0,0.0,0.0,1.3956,0.0,0.0,0.0,0.0,0.0,0.0,0.0,0.0,0.0,0.0,0.0,0.0,0.0,0.0,1.3318,1.316,1.3116,1.3074,0.0,0.0,1.2874,1.2611,1.2539,1.2499,0.0,0.0,0.0,0.0,0.0,0.0,0.0,0.0,0.0,0.0,0.0,0.0,0.0,0.0,0.0,0.0,0.0,0.0,0.0,0.0,0.0,0.0,0.0,0.0,0.0,0.0,0.0,0.0,0.0,0.0,0.0,0.0,0.0,0.0,0.0,0.0,0.0,0.0,0.0,0.0,0.0,0.0,0.0,0.0,0.0,0.0,0.0,0.0,0.0,0.0,0.0,0.0,0.0,0.0,1.9435,2.0308,2.1194,2.1738,2.2019,2.287,2.3359,2.3427,2.3562,2.3207,0.0,0.0,0.0,0.0,0.0,0.0,0.0,0.0,0.0,0.0,0.0,0.0,0.0,0.0,0.0,0.0,0.0,0.0,0.0,0.0,0.0,0.0,0.0,0.0,0.0,0.0,0.0,0.0,0.0,0.0,0.0,0.0,0.0,0.0,0.0,0.0,0.0,0.0,0.0,0.0,0.0,1.4328,1.4146,1.4146,1.4119,0.0,1.3912,1.3725,1.316,1.2953,1.2677,1.2216,0.0,0.0,0.0,0.0,0.0,0.0,0.0,0.0,0.0,0.0,0.0,0.0,0.0,0.0,0.0,0.0,0.0,0.0,0.0,0.0,0.0,0.0,0.0,0.0,0.0,0.0,0.0,0.0,0.0,0.0,0.0,0.0,0.0,0.0,0.0,0.0,0.0,0.0,0.0,0.0,0.0,0.0,0.0,0.0,0.0,0.0,0.0,0.0,0.0,0.0,0.0,0.0,0.0,2.0084,2.1001,2.1436,2.1965,2.259,2.3028,2.3283,2.3378,2.3412,2.3287,0.0,0.0,0.0,0.0,0.0,0.0,0.0,0.0,0.0,0.0,0.0,0.0,0.0,0.0,0.0,0.0,0.0,0.0,0.0,0.0,0.0,0.0,0.0,0.0,0.0,0.0,0.0,0.0,1.4853,1.4741,1.4804,0.0,0.0,0.0,0.0,0.0,0.0,0.0,0.0,0.0,0.0,1.413,1.404,1.4007,0.0,0.0,1.3769,1.367,1.3383,1.3271,1.3128,1.2942,1.282,0.0,0.0,0.0,0.0,0.0,0.0,0.0,0.0,0.0,0.0,0.0,0.0,0.0,0.0,0.0,0.0,0.0,0.0,0.0,0.0,0.0,0.0,0.0,0.0,0.0,0.0,0.0,0.0,0.0,0.0,0.0,0.0,0.0,0.0,0.0,0.0,0.0,0.0,0.0,0.0,0.0,0.0,0.0,0.0,0.0,0.0,0.0,0.0,0.0,0.0,0.0,0.0,2.0806,2.1659,2.1816,2.2254,2.2902,2.302,2.3119,2.3217,2.3241,2.3199,0.0,0.0,0.0,0.0,0.0,0.0,0.0,0.0,0.0,0.0,0.0,0.0,0.0,0.0,0.0,0.0,0.0,0.0,0.0,0.0,0.0,0.0,0.0,0.0,0.0,0.0,0.0,0.0,1.5097,1.4919,1.4992,0.0,0.0,0.0,0.0,0.0,0.0,0.0,0.0,0.0,0.0,1.3815,1.3708,1.3654,1.3573,1.3493,1.3459,1.3446,1.3425,1.3288,1.322,1.3242,0.0,0.0,0.0,0.0,0.0,0.0,0.0,0.0,0.0,0.0,0.0,0.0,0.0,0.0,0.0,0.0,0.0,0.0,0.0,0.0,0.0,0.0,0.0,0.0,0.0,0.0,0.0,1.7491,0.0,0.0,1.7436,0.0,0.0,0.0,0.0,0.0,0.0,0.0,0.0,0.0,0.0,0.0,0.0,0.0,0.0,0.0,0.0,0.0,0.0,0.0,0.0,0.0,0.0,2.1532,2.226,2.25,2.2694,2.2712,2.2893,2.3003,2.3003,2.307,2.307,2.3003,0.0,0.0,0.0,0.0,0.0,0.0,0.0,0.0,0.0,0.0,0.0,0.0,0.0,0.0,0.0,0.0,0.0,0.0,0.0,0.0,0.0,0.0,0.0,0.0,0.0,0.0,1.6316,1.605,1.5724,0.0,0.0,0.0,0.0,0.0,0.0,0.0,0.0,0.0,1.3581,1.3514,1.3446,1.3232,1.3198,1.3198,1.3198,1.3163,1.3141,1.3198,1.2978,1.2838,0.0,0.0,0.0,0.0,0.0,0.0,0.0,0.0,0.0,0.0,0.0,0.0,0.0,0.0,0.0,0.0,0.0,0.0,0.0,0.0,0.0,0.0,0.0,0.0,0.0,0.0,0.0,1.8925,1.8812,0.0,0.0,0.0,0.0,0.0,0.0,0.0,0.0,0.0,0.0,0.0,1.9739,2.0236,0.0,0.0,0.0,0.0,0.0,0.0,0.0,0.0,0.0,0.0,0.0,0.0,2.1843,2.2265,2.2394,2.2515,2.2649,2.2738,2.2799,2.285,2.2893,2.2825,2.2721,0.0,0.0,0.0,0.0,0.0,0.0,0.0,0.0,0.0,0.0,0.0,0.0,0.0,0.0,0.0,0.0,0.0,0.0,0.0,0.0,0.0,0.0,0.0,0.0,0.0,1.6285,0.0,0.0,0.0,0.0,0.0,0.0,0.0,0.0,0.0,0.0,1.3635,1.3433,1.3331,1.3138,1.3012,1.2943,1.2885,1.2885,0.0,0.0,0.0,0.0,0.0,0.0,0.0,0.0,0.0,0.0,0.0,0.0,0.0,0.0,1.1018,1.0833,1.063,1.0306,0.9463,0.0,0.0,0.0,0.0,0.0,0.0,0.0,0.0,0.0,0.0,0.0,0.0,0.0,0.0,1.9601,1.9509,1.9482,0.0,0.0,0.0,0.0,0.0,0.0,0.0,0.0,1.9956,2.021,2.0289,2.0767,2.1038,2.107,2.107,2.0958,0.0,0.0,0.0,0.0,0.0,0.0,0.0,0.0,2.1915,2.2123,2.2254,2.2349,2.247,2.2596,2.2659,2.2685,2.2685,2.2632,2.2515,2.246,2.2405,0.0,0.0,0.0,0.0,0.0,0.0,0.0,0.0,0.0,0.0,0.0,0.0,0.0,0.0,0.0,0.0,0.0,0.0,0.0,0.0,0.0,0.0,0.0,1.5868,0.0,0.0,0.0,0.0,0.0,0.0,0.0,0.0,0.0,1.3966,1.3772,1.3616,1.3471,1.3301,1.3166,1.3178,0.0,0.0,0.0,0.0,0.0,0.0,0.0,1.2623,1.2438,1.2267,1.205,1.1686,1.1431,1.1169,1.1019,0.0,0.0,1.0677,1.048,1.0132,0.9319,0.8657,0.8087,0.7653,0.7005,0.6318,0.0,0.0,0.0,0.0,2.0034,0.0,0.0,0.0,1.971,1.9662,0.0,1.9525,0.0,0.0,0.0,0.0,1.9783,2.043,0.0,0.0,2.0527,2.0626,2.0826,2.0873,2.0955,2.115,2.1166,2.1166,2.115,2.1247,0.0,0.0,0.0,0.0,0.0,0.0,2.1781,2.1827,2.2157,2.2333,2.2333,2.249,2.2556,2.2573,2.2538,2.2466,2.2344,2.2299,2.2192,2.201,2.201,0.0,0.0,0.0,0.0,0.0,0.0,0.0,0.0,0.0,0.0,0.0,0.0,0.0,0.0,0.0,0.0,0.0,0.0,0.0,0.0,1.5786,0.0,0.0,0.0,0.0,0.0,0.0,0.0,0.0,0.0,1.4396,1.4551,1.4502,1.4356,1.4014,0.0,0.0,0.0,0.0,1.3511,1.3639,1.3552,1.347,1.347,1.3294,1.3003,1.2575,0.0,0.0,1.1314,1.0926,1.0601,1.0418,1.0235,1.0147,1.0457,1.0234,0.9894,0.9473,0.8682,0.7975,0.7499,0.6698,0.5881,2.3485,0.0,0.0,0.0,0.0,2.1368,2.1294,2.1283,2.1156,2.1085,2.0996,2.0831,0.0,0.0,0.0,0.0,0.0,0.0,2.0561,2.0525,2.1023,2.1292,2.1377,2.1878,2.2097,2.2185,2.2224,2.2228,2.2228,2.242,2.2047,2.1247,0.0,0.0,0.0,0.0,2.1601,2.1831,2.2418,2.2775,2.2878,2.3472,2.3772,2.3772,2.3279,2.295,2.2878,2.2358,2.2056,2.1998,2.194,0.0,0.0,0.0,0.0,0.0,0.0,0.0,0.0,0.0,0.0,0.0,0.0,0.0,0.0,0.0,0.0,0.0,0.0,0.0,1.6986,1.6713,1.6465,0.0,0.0,0.0,0.0,0.0,0.0,0.0,0.0,0.0,1.4766,1.4227,1.3755,0.0,0.0,1.3275,1.3223,1.314,1.3098,1.3129,1.3098,0.0,1.3068,1.2837,1.2657,1.2528,1.1932,1.1388,1.1186,1.0636,1.0118,0.9804,0.9567,0.9408,0.9159,0.9231,0.9133,0.8723,0.8132,0.7524,0.7024,0.6429,0.575,2.463,2.416,2.3405,2.3013,2.2953,2.2812,2.2734,2.2626,2.2549,2.2471,2.2361,2.22,2.2069,2.1985,2.1718,0.0,0.0,0.0,2.1233,2.1228,2.1667,2.1885,2.1937,2.2325,2.2543,2.2596,2.2639,2.266,2.266,2.2828,2.256,2.1883,0.0,2.202,2.2167,2.2167,2.2312,2.2519,2.3043,2.3385,2.3448,2.3991,2.4257,2.424,2.3835,2.3586,2.3477,2.2762,2.2332,2.2302,2.193,2.1661,0.0,0.0,0.0,0.0,0.0,0.0,0.0,0.0,0.0,0.0,0.0,1.8254,1.8207,0.0,0.0,0.0,1.7682,1.7504,1.72,1.6976,0.0,0.0,0.0,0.0,0.0,0.0,0.0,1.5393,1.5073,1.4796,1.4675,1.4183,1.3728,1.3586,1.3521,1.3423,1.3357,0.0,1.3192,1.3236,1.3203,1.3192,1.3192,1.296,1.2665,1.2368,1.1618,1.1045,1.0951,1.0405,0.987,0.9471,0.9139,0.8774,0.8258,0.8177,0.8129,0.7964,0.7558,0.7021,0.6471,0.5953,0.5386,2.563,2.5529,2.4824,2.4376,2.4114,2.4065,2.3951,2.3819,2.377,2.3702,2.3583,2.3462,2.3307,2.3131,2.2828,0.0,2.2406,2.2406,2.2368,2.2301,2.2347,2.2401,2.2483,2.2508,2.263,2.2767,2.2752,2.2752,2.2767,2.2833,2.2928,2.3049,2.3163,2.3279,2.3291,2.3361,2.3446,2.3583,2.3885,2.41,2.4133,2.428,2.4345,2.4362,2.4278,2.4229,2.4148,2.3403,2.2927,2.2847,2.2018,2.1501,2.1374,0.0,0.0,0.0,0.0,0.0,0.0,0.0,0.0,0.0,0.0,0.0,0.0,0.0,0.0,0.0,1.7476,0.0,1.7139,1.6817,0.0,0.0,0.0,1.6282,1.5866,1.5996,1.5969,1.5513,0.0,0.0,1.4419,1.415,1.401,1.4082,1.401,1.3962,1.3931,1.3663,1.3573,1.3663,1.361,1.3505,1.3433,1.3253,1.2837,1.2175,1.137,1.0867,1.0669,1.0247,0.9743,0.924,0.879,0.8304,0.7801,0.7291,0.694,0.7208,0.6914,0.6428,0.583,0.527,0.4748,2.6651,2.6098,2.5931,2.5163,2.4081,2.3918,2.3852,2.3786,2.3669,2.3583,2.3446,2.3323,2.3096,2.2812,2.2555,2.2443,2.2406,2.2346,2.2308,2.2317,2.2825,2.3095,2.311,2.3603,2.3866,2.3921,2.4017,2.4073,2.4058,2.4122,2.4241,2.4335,2.4359,2.4014,2.3323,2.3307,2.3412,2.3583,2.4207,2.4832,2.5428,2.548,2.5499,2.5499,2.4956,2.4641,2.4625,2.3917,2.3457,2.334,2.3059,2.2618,2.1953,2.1754,0.0,0.0,0.0,0.0,0.0,0.0,0.0,0.0,0.0,1.9034,1.9049,0.0,1.8833,0.0,1.8458,1.8257,1.7988,1.7758,0.0,0.0,1.6883,1.6616,1.6253,1.5903,1.5591,1.5244,1.488,1.4523,1.4161,1.3868,1.3621,1.3457,1.3515,1.3467,1.3286,1.319,1.3152,1.3113,1.3113,1.3065,1.3075,1.2822,1.2521,1.2143,1.1408,1.0819,1.0613,0.9955,0.9328,0.8921,0.8538,0.8133,0.7689,0.7063,0.6568,0.6371,0.6057,0.5658,0.5145,0.4583,0.3965,2.7698,2.7278,2.7258,2.674,2.5889,2.5122,2.4757,2.4738,2.4599,2.4457,2.4293,2.409,2.385,2.3552,2.3398,2.3297,2.3257,2.3218,2.3194,2.3209,2.3579,2.3917,2.421,2.4579,2.4933,2.5226,2.5268,2.5311,2.5327,2.5129,2.5072,2.5113,2.4898,2.4547,2.4106,2.4147,2.4241,2.4401,2.4899,2.5399,2.5864,2.5934,2.5934,2.5881,2.5504,2.5275,2.5275,2.4484,2.4005,2.3918,2.3449,2.2936,2.2499,2.2205,2.1766,0.0,0.0,0.0,0.0,0.0,0.0,0.0,0.0,0.0,0.0,0.0,1.8988,1.8879,1.8634,1.8386,1.8187,1.7962,1.7639,1.7267,1.6973,1.6663,1.6194,1.58,1.5412,1.5051,1.4651,1.4291,1.3962,1.3621,1.3324,1.3094,1.3094,1.3055,1.2968,1.292,1.2871,1.2822,1.2783,1.2686,1.2578,1.2323,1.2036,1.1651,1.1105,1.0557,1.0302,0.9707,0.9099,0.8608,0.8193,0.7753,0.7302,0.67,0.6128,0.582,0.5346,0.4915,0.4468,0.3921,0.3347,2.8572,2.8489,2.8412,2.8295,2.8079,2.6796,2.6147,2.5991,2.5749,2.5551,2.5339,2.5068,2.4854,2.4729,2.4663,2.4585,2.4579,2.4579,2.4579,2.4579,2.4579,2.4887,2.5441,2.5441,2.578,2.638,2.6349,2.6349,2.6364,2.5867,2.5601,2.5613,2.5238,2.5114,2.5234,2.5433,2.5509,2.5378,2.5605,2.5754,2.586,2.5844,2.5844,2.586,2.5844,2.5844,2.5844,2.5041,2.4592,2.4539,2.3681,2.3112,2.2959,2.2614,2.2317,0.0,2.1218,0.0,0.0,0.0,0.0,0.0,0.0,0.0,0.0,1.8851,1.8721,1.862,1.8347,1.8109,1.7948,1.7639,1.7323,1.7002,1.6774,1.6448,1.5988,1.5635,1.5277,1.4869,1.4455,1.4035,1.3763,1.3372,1.3084,1.292,1.2783,1.2725,1.2774,1.2725,1.2627,1.2627,1.2471,1.2274,1.2076,1.1828,1.1477,1.1074,1.0584,1.0198,0.9925,0.9451,0.8899,0.8349,0.7835,0.7312,0.6739,0.6258,0.5736,0.5489,0.4847,0.4245,0.3916,0.3404,0.2765,2.8926,2.8428,2.8295,2.8217,2.8145,2.7725,2.7222,2.6564,2.5788,2.5339,2.513,2.4831,2.4942,2.5446,2.5219,2.5441,2.598,2.5964,2.5964,2.5995,2.5995,2.6057,2.618,2.6195,2.6257,2.638,2.638,2.638,2.638,2.6301,2.6269,2.6298,2.6333,2.6401,2.6545,0.0,0.0,0.0,2.5562,2.5637,2.5637,2.5637,2.5637,2.5637,2.5546,0.0,2.5492,2.5281,2.507,2.4916,2.4728,0.0,0.0,0.0,0.0,0.0,0.0,0.0,0.0,0.0,0.0,0.0,1.9908,1.9502,1.8811,1.8528,1.8358,1.8321,1.8083,1.7882,1.7598,1.7393,1.7128,1.6803,1.6491,1.6144,1.5792,1.5322,1.4869,1.4558,1.414,1.3763,1.3515,1.32,1.292,1.2871,1.2588,1.2372,1.2372,1.2382,1.2283,1.2085,1.1977,1.1819,1.1619,1.1377,1.1023,1.06,1.0087,0.9666,0.9368,0.8903,0.8468,0.7998,0.7541,0.6999,0.6569,0.5968,0.5439,0.5075,0.4375,0.3778,0.3681,0.3106,0.246,2.9683,2.9369,2.9247,2.9149,0.0,2.8625,2.82,2.7753,2.6824,2.6262,2.6018,2.577,2.5819,2.6075,2.5944,2.6041,2.638,2.6364,2.6364,2.638,2.6364,2.6549,2.6872,2.6888,2.7057,2.738,2.738,2.738,2.7365,2.7042,2.6918,2.6948,2.6698,2.6539,2.6427,2.7094,2.7093,2.6415,2.6455,2.6494,2.651,2.6494,2.651,2.651,2.6415,0.0,0.0,0.0,0.0,0.0,0.0,0.0,0.0,2.3575,2.3175,2.2569,2.1966,2.1538,2.1226,2.0656,2.0272,2.0128,1.9998,1.9706,1.9253,1.9073,1.8905,1.8793,1.8353,1.7969,1.78,1.734,1.6918,1.6565,1.6262,1.5969,1.5614,1.5187,1.4823,1.4512,1.4093,1.3668,1.3362,1.3045,1.2774,1.2529,1.2323,1.2126,1.2026,1.2076,1.2026,1.1728,1.1578,1.1427,1.1226,1.0871,1.0506,1.0087,0.9607,0.9183,0.8837,0.8421,0.7943,0.7557,0.702,0.6534,0.6154,0.564,0.5099,0.4709,0.4121,0.3547,0.3268,0.2647,0.2125,3.0375,3.0375,3.0231,3.0103,2.9968,2.9388,2.9043,2.8876,2.7911,0.0,0.0,2.6776,2.6678,2.6653,2.6594,2.6641,2.6749,2.6749,2.6734,2.6734,2.6703,2.7011,2.7565,2.758,2.7873,2.8396,2.8411,2.8411,2.8381,2.7842,2.758,2.7519,2.7072,2.6745,2.6497,2.7431,2.7849,2.7689,2.7492,2.7406,2.7406,2.7406,2.7406,2.7406,2.7364,2.7322,2.7306,2.654,2.6115,2.6042,2.5133,2.4568,2.4376,2.4006,2.3642,2.3392,2.2615,2.1974,2.165,2.0962,2.0448,2.024,2.0106,1.9952,1.9762,1.9659,1.9512,1.9333,1.8715,1.8262,1.82,1.7552,1.6941,1.6566,1.6357,1.6068,1.5762,1.536,1.5045,1.473,1.4212,1.3686,1.331,1.2959,1.2627,1.2234,1.2026,1.1877,1.1678,1.1669,1.1669,1.1477,1.1267,1.1074,1.0812,1.0454,0.9984,0.9569,0.9176,0.8751,0.8355,0.7943,0.7461,0.7133,0.6539,0.6046,0.5664,0.5167,0.468,0.4349,0.3878,0.3316,0.2775,0.2241,0.1797,3.0248,3.0248,3.006,3.0017,3.0017,2.9848,2.9625,2.9307,2.7966,2.7238,2.6895,2.6748,2.6927,2.7365,2.7288,2.758,2.8104,2.8119,2.8119,2.8119,2.8119,2.8165,2.8258,2.8258,2.8319,2.8396,2.8411,2.8411,2.8396,2.8319,2.8258,2.8242,2.8293,2.8326,2.8528,2.8775,2.8914,2.8851,2.7869,2.7406,2.7406,2.7406,2.7406,2.7364,2.7211,2.7036,2.7036,2.6757,2.6492,2.6269,2.6087,2.5558,2.4627,2.4477,2.3985,2.3082,2.2757,2.2443,2.2104,2.1788,2.145,2.1069,2.1035,2.0617,1.971,1.9512,1.9346,1.9165,1.8917,1.8669,1.8439,1.8092,1.7678,1.7326,1.7123,1.6857,1.6457,1.6052,1.5631,1.5279,1.4428,1.3801,1.348,1.2776,1.2299,1.2104,1.1894,1.1571,1.1345,1.1326,1.1326,1.1175,1.0922,1.0667,1.0352,1.0028,0.9666,0.9159,0.8771,0.8396,0.7996,0.7568,0.7085,0.6815,0.6268,0.5719,0.5171,0.4629,0.4187,0.3744,0.3272,0.2821,0.2268,0.1917,0.1539,3.0691,3.0598,3.0152,2.9946,2.9946,2.9814,2.9697,2.9425,2.8653,2.8189,2.795,2.7889,2.7922,2.7966,2.795,2.8104,2.8411,2.8411,2.8411,2.8411,2.8411,2.8596,2.8935,2.8965,2.915,2.9489,2.9504,2.9304,2.8981,2.895,2.8765,2.8427,2.8446,2.8622,2.8842,2.8936,2.9013,2.9059,2.8595,2.8323,2.8307,2.8262,2.8202,2.8202,2.8054,2.7964,2.7964,2.7409,2.7025,2.6903,2.6321,2.5758,2.5181,2.4934,2.4405,2.3484,2.3102,2.2649,2.2152,2.1712,2.1375,2.1215,2.0983,2.066,2.0178,2.0078,1.9996,1.9865,1.9413,1.898,1.8776,1.8163,1.7654,1.7375,1.7081,1.6734,1.6434,1.6131,1.5712,1.5289,1.4645,1.4108,1.3743,1.3214,1.2736,1.2518,1.214,1.1769,1.144,1.1231,1.1042,1.081,1.0557,1.03,0.9932,0.9569,0.9204,0.8745,0.8368,0.799,0.7574,0.7149,0.6825,0.6381,0.5887,0.5391,0.4846,0.4353,0.3855,0.3355,0.291,0.2519,0.2009,0.1376,0.0752,3.1261,3.1242,3.0616,3.036,3.0315,3.0164,3.0028,2.989,2.9658,2.9422,2.9216,2.8935,2.8636,2.8411,2.855,2.8642,2.8642,2.8796,2.8873,2.8858,2.8858,2.915,2.9597,2.9643,2.992,3.033,3.0376,3.0151,2.9689,2.9643,2.9381,2.8904,2.8879,2.8947,2.8981,2.9077,2.9093,2.906,2.9029,2.9075,2.9029,2.8967,2.892,2.8889,2.8811,2.8747,2.8668,2.7983,2.7564,2.7454,2.6682,2.6051,2.5759,2.5394,2.4825,2.41,2.3567,2.2944,2.2131,2.1662,2.1314,2.1082,2.0772,2.0573,2.051,2.0459,2.0409,2.0308,1.9723,1.9246,1.9008,1.835,1.7723,1.7435,1.712,1.6871,1.6517,1.6205,1.5838,1.5393,1.4831,1.4395,1.4061,1.3614,1.3141,1.2677,1.2389,1.2008,1.1704,1.1273,1.0949,1.0606,1.0314,0.994,0.9569,0.9211,0.8798,0.8374,0.8002,0.7676,0.7252,0.6944,0.6564,0.6055,0.5614,0.512,0.4632,0.4135,0.3577,0.3132,0.2687,0.224,0.174,0.0896,0.0055,3.182,3.1915,3.1785,3.1754,3.1565,3.1406,3.1278,3.1149,3.0919,3.072,3.0432,2.9213,2.8572,2.8488,2.9058,2.9319,2.9366,2.995,3.0197,3.0181,3.0243,3.0274,3.0335,3.0283,3.0366,3.0474,3.0452,3.0422,3.0283,3.0253,3.0222,3.0243,3.033,3.0061,2.963,2.9748,2.9563,2.8857,2.8889,2.8904,2.8904,2.8904,2.8889,2.8794,2.8684,2.8589,2.8444,2.8238,2.7997,2.775,2.756,2.7011,2.6258,2.5856,2.5315,2.449,2.4069,2.3437,2.2406,2.2136,2.1629,2.0788,2.061,2.0472,2.0271,2.0016,1.9914,1.9965,1.9863,1.9531,1.927,1.8923,1.8524,1.797,1.7898,1.7784,1.7181,1.6914,1.6511,1.6038,1.5147,1.4559,1.4316,1.358,1.2846,1.2509,1.231,1.2028,1.1687,1.1429,1.1133,1.0725,1.0201,0.9649,0.9313,0.9022,0.8652,0.8098,0.7747,0.7424,0.7052,0.6603,0.6173,0.5837,0.5454,0.4963,0.4415,0.386,0.3413,0.2912,0.2408,0.1905,0.1402,0.0617,-0.0167,3.2336,3.2337,3.1935,3.1726,3.1662,3.1566,3.1437,3.1355,3.1008,3.0857,3.0744,2.9964,2.9647,2.9627,2.9889,3.0012,3.0027,3.0289,3.0376,3.0376,3.0376,3.0612,3.0966,3.0997,3.1182,3.1567,3.1582,3.1328,3.0876,3.0492,3.0308,3.0376,3.0464,3.0377,3.02,3.0301,3.0211,3.0011,2.9996,2.9964,2.9806,2.9121,2.8668,2.8556,2.8429,2.8284,2.8168,2.8054,2.789,2.769,2.7539,2.7217,2.6608,2.6358,2.581,2.485,2.4044,2.3379,2.2758,2.2163,2.1652,2.1159,2.0565,2.0182,2.008,1.9811,1.9656,1.95,1.9408,1.9239,1.9093,1.8827,1.8518,1.8139,1.792,1.7534,1.7043,1.6772,1.6363,1.5748,1.5273,1.4821,1.458,1.3987,1.3357,1.294,1.2697,1.2445,1.2055,1.1729,1.1363,1.0996,1.0357,0.9896,0.9625,0.9305,0.8781,0.8165,0.7799,0.75,0.6807,0.6445,0.6064,0.5622,0.5234,0.4798,0.4304,0.3805,0.3302,0.2745,0.2074,0.1514,0.0841,0.0336,-0.0336,3.2825,3.2812,3.2332,3.2157,3.2107,3.2042,3.1926,3.1826,3.1538,3.1368,3.1249,3.1019,3.086,3.0883,3.0729,3.0584,3.06,3.0731,3.0823,3.0823,3.0823,3.1121,3.1535,3.1566,3.1827,3.2226,3.2272,3.1986,3.1402,3.0999,3.0792,3.0913,3.0913,3.0911,3.0861,3.083,3.0804,3.0685,3.0736,3.067,3.0361,2.9543,2.8984,2.8901,2.8752,2.8652,2.8516,2.8303,2.8081,2.7859,2.7484,2.7137,2.6832,2.6592,2.6058,2.5222,2.435,2.3648,2.3232,2.2538,2.1943,2.1602,2.0744,2.0231,2.0089,1.9768,1.946,1.9186,1.8975,1.8881,1.8786,1.853,1.8259,1.803,1.7645,1.7256,1.6807,1.6477,1.6009,1.5478,1.5167,1.4911,1.4538,1.4145,1.3768,1.3287,1.307,1.2797,1.2343,1.1958,1.1631,1.1194,1.0692,1.0258,0.9836,0.944,0.8901,0.8368,0.7886,0.7488,0.6682,0.643,0.5985,0.5522,0.5064,0.4629,0.4132,0.3635,0.3079,0.2521,0.1906,0.1234,0.0561,0.0168,-0.0393,3.3403,3.363,3.3598,3.3431,3.3391,3.3344,3.3219,3.2876,3.2779,3.2648,3.2392,3.2189,3.2084,3.1977,3.1396,3.1097,3.1095,3.1597,3.1855,3.184,3.1886,3.1946,3.1936,3.1936,3.1951,3.2038,3.2053,3.2007,3.1946,3.2028,3.2114,3.2053,3.2143,3.1936,3.1482,3.1473,3.1164,3.068,3.067,3.0526,3.0302,3.0225,3.0112,3.0112,2.9924,2.9758,2.9629,2.9319,2.886,2.839,2.7539,2.6968,2.6823,2.6461,2.6056,2.5453,2.5092,2.4527,2.3737,2.326,2.2734,2.1966,2.1224,2.0747,2.0432,1.9858,1.9377,1.904,1.8774,1.856,1.8464,1.8247,1.7975,1.7767,1.749,1.7088,1.6637,1.6171,1.5816,1.541,1.501,1.4597,1.413,1.401,1.3649,1.3224,1.2989,1.2797,1.2243,1.2089,1.1811,1.137,1.1064,1.0691,0.9715,0.9453,0.9054,0.8493,0.8016,0.7634,0.7042,0.6506,0.5951,0.5396,0.496,0.4452,0.3919,0.3352,0.2687,0.2186,0.1794,0.1178,0.0561,0.0056,-0.0561,3.324,3.345,3.345,3.3361,3.3256,3.3256,3.3165,3.2951,3.2757,3.2664,3.2578,3.2302,3.2135,3.2023,3.1738,3.1591,3.1663,3.189,3.2012,3.2012,3.2027,3.2027,3.1996,3.1894,3.1894,3.1996,3.2012,3.2012,3.1996,3.1996,3.2038,3.2206,3.2247,3.2149,3.2059,3.2083,3.1921,3.1612,3.1581,3.1527,3.1332,3.1283,3.1157,3.0955,3.0132,2.9604,2.9471,2.9258,2.8975,2.8733,2.789,2.7378,2.7075,2.6297,2.5647,2.5355,2.5018,2.4627,2.4116,2.3406,2.2863,2.2362,2.1673,2.1041,2.0565,2.0155,1.9641,1.9042,1.8637,1.8356,1.8127,1.8018,1.7854,1.759,1.7312,1.6909,1.64,1.5941,1.5604,1.5205,1.4734,1.4318,1.4061,1.3821,1.3519,1.3111,1.2928,1.2683,1.2251,1.2065,1.1872,1.1373,1.1115,1.0801,0.9949,0.9754,0.9463,0.8821,0.8254,0.7673,0.7115,0.6524,0.5969,0.5466,0.4937,0.4378,0.3846,0.3095,0.2477,0.1962,0.1572,0.1178,0.0673,0.0056,-0.0505,3.3096,3.315,3.315,3.3096,3.3043,3.3058,3.2935,3.2788,3.2648,3.2578,3.2468,3.2247,3.2094,3.1996,3.1769,3.1769,3.1811,3.1811,3.1826,3.1826,3.1913,3.1898,3.1811,3.1766,3.1766,3.1811,3.1826,3.1826,3.1826,3.1784,3.1883,3.2038,3.2094,3.2191,3.2231,3.2302,3.2247,3.215,3.215,3.2079,3.1955,3.1769,3.164,3.1317,3.0443,2.99,2.9859,2.9788,2.9486,2.9126,2.8477,2.7821,2.7143,2.6022,2.53,2.5131,2.4892,2.4607,2.4208,2.3605,2.3122,2.2865,2.2198,2.1525,2.102,2.06,1.997,1.9202,1.8721,1.84,1.7998,1.7799,1.7678,1.7423,1.7078,1.6673,1.6171,1.5778,1.5323,1.4852,1.4506,1.4198,1.395,1.3692,1.3398,1.3042,1.2867,1.2621,1.2189,1.2065,1.1879,1.131,1.1122,1.087,1.0286,1.0058,0.9611,0.8988,0.8487,0.7876,0.7235,0.6616,0.6079,0.5567,0.5005,0.4417,0.3735,0.2969,0.2373,0.1856,0.1459,0.1122,0.0561,0.0056,-0.0505,3.2897,3.2912,3.2912,3.2897,3.2897,3.2897,3.2773,3.2594,3.2594,3.2523,3.2413,3.215,3.1996,3.194,3.1655,3.1524,3.1524,3.1524,3.1524,3.1524,3.1524,3.1524,3.1524,3.1524,3.1509,3.1524,3.1524,3.1524,3.1524,3.1655,3.1784,3.1841,3.194,3.1981,3.1996,3.2053,3.1996,3.1981,3.1996,3.194,3.1784,3.1567,3.1437,3.1278,3.0881,3.0778,3.097,3.0852,3.0353,2.9668,2.9189,2.8311,2.6905,2.584,2.5201,2.5018,2.4734,2.4434,2.4112,2.378,2.3467,2.3238,2.2682,2.211,2.1691,2.1186,2.0439,1.9601,1.9066,1.8668,1.8068,1.7767,1.7479,1.7278,1.692,1.6513,1.6056,1.5556,1.498,1.4506,1.4267,1.4148,1.389,1.358,1.3338,1.3042,1.2867,1.2613,1.2243,1.2127,1.1879,1.1435,1.1185,1.0933,1.0618,1.0231,0.9716,0.9122,0.8709,0.8196,0.7492,0.6917,0.635,0.5805,0.4951,0.4351,0.3528,0.2764,0.2269,0.1805,0.1463,0.1122,0.0617,0.0112,-0.0505,3.2773,3.2912,3.2912,3.2827,3.2718,3.2703,3.2578,3.2453,3.2468,3.2398,3.2231,3.2094,3.194,3.1841,3.1597,3.1467,3.1467,3.1467,3.1467,3.1467,3.1467,3.1467,3.1467,3.1467,3.1467,3.1467,3.1467,3.1467,3.1539,3.1554,3.167,3.1784,3.1856,3.1883,3.1996,3.1996,3.194,3.1898,3.1841,3.1727,3.1467,3.1394,3.1219,3.0999,3.0821,3.0821,3.0762,3.0732,3.0511,3.0069,2.9445,2.8351,2.683,2.607,2.5527,2.4902,2.4593,2.4261,2.4008,2.3641,2.339,2.3173,2.2902,2.2474,2.194,2.1508,2.0852,1.9982,1.9518,1.8975,1.8453,1.8045,1.7628,1.7121,1.6797,1.641,1.5961,1.5439,1.4862,1.4387,1.4198,1.401,1.383,1.3588,1.3294,1.305,1.2867,1.2683,1.2305,1.2182,1.1941,1.156,1.131,1.0996,1.0744,1.0301,0.9792,0.928,0.8894,0.8317,0.7697,0.7154,0.6582,0.5868,0.4998,0.4185,0.3359,0.2737,0.2239,0.1811,0.1464,0.1124,0.0786,0.0224,-0.0336,3.2578,3.2718,3.2718,3.2633,3.2523,3.2523,3.2468,3.2398,3.2398,3.2342,3.2191,3.2053,3.1883,3.1784,3.1597,3.1524,3.1467,3.1467,3.1467,3.1467,3.1467,3.1467,3.1467,3.1467,3.1467,3.1467,3.1467,3.1467,3.1467,3.1524,3.1554,3.167,3.167,3.1727,3.1826,3.1811,3.1769,3.167,3.1597,3.1482,3.1234,3.1176,3.0984,3.0821,3.0762,3.0628,3.0507,3.0507,3.0387,3.0104,2.9316,2.819,2.7037,2.6335,2.5652,2.5123,2.4495,2.4099,2.3819,2.3522,2.3343,2.3138,2.2969,2.2737,2.2247,2.1813,2.1211,2.0511,1.9918,1.9366,1.8832,1.8486,1.7962,1.7266,1.6779,1.6249,1.5672,1.5205,1.4803,1.4387,1.4139,1.3959,1.3778,1.3545,1.3241,1.305,1.2867,1.2674,1.2367,1.2182,1.1934,1.1685,1.131,1.1059,1.0807,1.0364,0.9926,0.9472,0.9022,0.8447,0.7782,0.7316,0.6763,0.5799,0.4942,0.4287,0.3456,0.2858,0.2329,0.1953,0.1589,0.118,0.0841,0.0393,-0.0168,3.2398,3.2398,3.2398,3.2398,3.2398,3.2398,3.2398,3.2398,3.2398,3.2302,3.2135,3.2053,3.1898,3.1727,3.1597,3.1467,3.1467,3.1467,3.1467,3.1467,3.1467,3.1467,3.1467,3.1467,3.1467,3.1467,3.1467,3.1467,3.1467,3.1467,3.1467,3.1539,3.1539,3.1482,3.1524,3.1482,3.1467,3.1351,3.1292,3.1249,3.1087,3.094,3.0821,3.0762,3.0642,3.0507,3.0387,3.0266,3.0205,2.9903,2.896,2.8181,2.768,2.6492,2.5746,2.5348,2.4531,2.3988,2.3641,2.3463,2.3271,2.3138,2.2969,2.286,2.2616,2.2115,2.1602,2.0981,2.0373,1.9739,1.9287,1.8923,1.8382,1.7562,1.6759,1.5992,1.5205,1.5029,1.4793,1.4446,1.4139,1.3941,1.383,1.3536,1.3294,1.305,1.292,1.2674,1.2428,1.2243,1.2058,1.1747,1.1435,1.1185,1.0996,1.0491,0.9983,0.9606,0.9151,0.8571,0.7857,0.733,0.6736,0.5771,0.4947,0.4285,0.369,0.307,0.2634,0.225,0.1804,0.1306,0.0901,0.0509,-0.0,3.2302,3.2382,3.2398,3.2398,3.2398,3.2398,3.2398,3.2398,3.2302,3.2191,3.2053,3.1898,3.1784,3.1597,3.1524,3.1467,3.1467,3.1467,3.1467,3.1467,3.1467,3.1467,3.1467,3.1467,3.1467,3.1467,3.1467,3.1467,3.1467,3.1467,3.1467,3.1467,3.1482,3.1467,3.1336,3.1336,3.1292,3.1176,3.1132,3.1073,3.0895,3.0821,3.0762,3.0642,3.0642,3.0507,3.0266,2.996,2.9789,2.9727,2.9101,2.8379,2.7865,2.6911,2.6029,2.5276,2.4478,2.3832,2.3522,2.3271,2.3138,2.309,2.2909,2.2739,2.269,2.2123,2.169,2.1362,2.0911,2.0243,1.9767,1.9273,1.8612,1.7727,1.6783,1.5906,1.54,1.5147,1.4852,1.4488,1.4318,1.4079,1.3899,1.3718,1.3536,1.3241,1.305,1.2858,1.2621,1.2367,1.2182,1.2003,1.1747,1.1435,1.1059,1.0555,1.011,0.9798,0.928,0.8694,0.7917,0.7199,0.6474,0.5668,0.5061,0.4409,0.389,0.3355,0.2925,0.2502,0.1965,0.1455,0.11,0.0752,0.017,3.2287,3.2398,3.2398,3.2398,3.2398,3.2398,3.2342,3.2287,3.2247,3.2094,3.194,3.1841,3.1655,3.1539,3.1467,3.1467,3.1467,3.1467,3.1467,3.1467,3.1467,3.1467,3.1467,3.1467,3.1467,3.1467,3.1467,3.1467,3.1467,3.1467,3.1467,3.1467,3.1482,3.1394,3.1278,3.1219,3.1132,3.1014,3.0955,3.0895,3.0702,3.0702,3.0702,3.0582,3.0507,3.0326,3.0021,2.9602,2.9415,2.9289,2.9022,2.8602,2.8044,2.7301,2.6414,2.5524,2.4658,2.3983,2.3501,2.3198,2.3138,2.3078,2.286,2.2739,2.2555,2.2135,2.171,2.1624,2.1053,2.0576,2.0214,1.955,1.8818,1.8187,1.7124,1.6277,1.5782,1.5425,1.5072,1.4731,1.4428,1.4207,1.389,1.383,1.3657,1.3363,1.318,1.2989,1.2805,1.256,1.2305,1.2058,1.1747,1.1373,1.0996,1.0491,0.9983,0.967,0.9081,0.8565,0.7917,0.7134,0.6474,0.5749,0.5153,0.4671,0.4145,0.3632,0.3187,0.2684,0.2132,0.1619,0.1251,0.0879,0.0286,3.2287,3.2398,3.2398,3.2398,3.2398,3.2398,3.2342,3.2191,3.2206,3.2053,3.1856,3.1784,3.1655,3.1467,3.1467,3.1467,3.1467,3.1467,3.1467,3.1467,3.1467,3.1467,3.1467,3.1467,3.1467,3.1467,3.1467,3.1467,3.1467,3.1467,3.1467,3.1467,3.1351,3.1278,3.1161,3.1117,3.0955,3.0836,3.0762,3.0762,3.0642,3.0568,3.0568,3.0507,3.0266,3.0021,2.9651,2.9289,2.9035,2.9035,2.883,2.8546,2.8231,2.7581,2.6821,2.5965,2.5094,2.4272,2.3631,2.3374,2.3201,2.3115,2.2848,2.2678,2.2555,2.2073,2.171,2.171,2.1117,2.0635,2.0311,1.9533,1.8998,1.8615,1.7818,1.7129,1.6432,1.5917,1.5482,1.4906,1.457,1.4321,1.4088,1.389,1.3718,1.3536,1.3294,1.305,1.2875,1.2691,1.2375,1.2058,1.1685,1.1303,1.087,1.0434,0.9926,0.9478,0.8823,0.8236,0.7657,0.7003,0.6408,0.5815,0.5355,0.4891,0.4411,0.3888,0.3378,0.2891,0.2332,0.1797,0.1281,0.0951,0.0464,3.2191,3.2398,3.2398,3.2398,3.2398,3.2398,3.2342,3.2191,3.2094,3.1955,3.1784,3.167,3.1539,3.1467,3.1467,3.1467,3.1467,3.1467,3.1467,3.1467,3.1467,3.1467,3.1482,3.1511,3.1482,3.1482,3.1467,3.1467,3.1482,3.1467,3.1409,3.1351,3.1292,3.1161,3.094,3.0895,3.0836,3.0702,3.0628,3.0642,3.0582,3.0447,3.0387,3.0326,2.996,2.9727,2.9477,2.9035,2.878,2.878,2.8573,2.8352,2.8128,2.7455,2.675,2.6232,2.5537,2.4746,2.4078,2.3791,2.3627,2.324,2.296,2.2678,2.269,2.2073,2.1773,2.1572,2.1129,2.054,1.9987,1.9651,1.9283,1.8958,1.8633,1.8147,1.7506,1.6768,1.6095,1.5576,1.5252,1.4906,1.433,1.4123,1.3934,1.3666,1.3415,1.3111,1.2875,1.2699,1.2382,1.1996,1.1685,1.1247,1.0744,1.0301,0.9728,0.9221,0.8565,0.7977,0.7461,0.6937,0.6412,0.5951,0.5557,0.5093,0.4628,0.4156,0.3638,0.3085,0.2543,0.2,0.1519,0.1101,0.0701,3.2079,3.2287,3.2398,3.2398,3.2398,3.2358,3.2262,3.2109,3.194,3.1841,3.1655,3.1539,3.1467,3.1467,3.1467,3.1467,3.1467,3.1467,3.1467,3.1467,3.1467,3.1467,3.1571,3.1735,3.1869,3.1556,3.1467,3.1467,3.1409,3.1424,3.1351,3.1176,3.1117,3.0999,3.0821,3.0762,3.0687,3.0568,3.0507,3.0447,3.0447,3.028,3.0097,2.9974,2.9727,2.9477,2.9099,2.878,2.8587,2.8457,2.8235,2.8105,2.8091,2.7564,2.6974,2.6323,2.5909,2.5179,2.4595,2.4368,2.4255,2.3854,2.3393,2.3145,2.2849,2.2241,2.1773,2.1572,2.1117,2.041,1.9681,1.9605,1.9407,1.9142,1.8942,1.8619,1.8177,1.7406,1.6728,1.6128,1.5807,1.5352,1.4894,1.4504,1.4065,1.3813,1.3449,1.3136,1.2867,1.2629,1.2251,1.1934,1.1622,1.1247,1.0681,1.011,0.9402,0.8894,0.8317,0.7792,0.7335,0.6876,0.6412,0.602,0.5624,0.5292,0.4824,0.4359,0.3828,0.3266,0.272,0.2196,0.177,0.1255,0.0953,3.2094,3.2191,3.2342,3.2382,3.2342,3.2247,3.2181,3.2042,3.1872,3.1712,3.1539,3.1467,3.1467,3.1467,3.1467,3.1467,3.1467,3.1467,3.1467,3.1467,3.1617,3.1662,3.1796,3.2169,3.2333,3.1766,3.1841,3.1752,3.1545,3.1382,3.1353,3.1117,3.0895,3.0762,3.0702,3.0642,3.0507,3.0462,3.0341,3.0266,3.0205,3.0097,2.9865,2.9602,2.9415,2.9162,2.878,2.8522,2.8341,2.8079,2.7855,2.7868,2.7881,2.7643,2.7167,2.6411,2.6174,2.5684,2.5124,2.4921,2.4883,2.4768,2.4099,2.3649,2.3386,2.2627,2.2009,2.1637,2.122,2.041,1.9681,1.9615,1.9407,1.9142,1.8942,1.8741,1.8412,1.7912,1.7285,1.6667,1.6287,1.5935,1.5368,1.4854,1.4418,1.397,1.3604,1.3169,1.2899,1.2506,1.2135,1.174,1.1428,1.0933,1.0364,0.9849,0.921,0.8694,0.8187,0.7731,0.7269,0.6872,0.6412,0.602,0.569,0.5289,0.4891,0.4425,0.3892,0.336,0.2887,0.2479,0.1971,0.1471,0.1214,3.2079,3.2191,3.2342,3.2342,3.2247,3.2191,3.2053,3.1856,3.1784,3.1655,3.1539,3.1467,3.1467,3.1467,3.1467,3.1467,3.1467,3.1526,3.1556,3.1603,3.1871,3.2094,3.2228,3.2702,3.2862,3.2847,3.2759,3.2537,3.2018,3.1854,3.1498,3.1042,3.082,3.07,3.0447,3.0372,3.0341,3.0219,3.0172,3.0111,3.0036,2.9803,2.954,2.9226,2.8972,2.878,2.8522,2.8183,2.8,2.8013,2.7736,2.7603,2.7603,2.7403,2.7136,2.6845,2.6566,2.611,2.564,2.5473,2.5222,2.4868,2.4422,2.4177,2.3912,2.3107,2.2409,2.1964,2.127,2.041,1.9681,1.9615,1.9417,1.9142,1.8942,1.8751,1.8462,1.815,1.7742,1.7127,1.6769,1.6468,1.5854,1.5231,1.4716,1.4208,1.3781,1.3276,1.2811,1.2383,1.1902,1.1505,1.1101,1.0611,0.9989,0.9466,0.8952,0.856,0.8047,0.7661,0.7204,0.6872,0.6478,0.6086,0.569,0.5355,0.4954,0.4489,0.4025,0.3496,0.3092,0.269,0.2245,0.1806,0.1467,3.2053,3.2109,3.2302,3.2342,3.2191,3.2094,3.1996,3.1784,3.167,3.1612,3.1539,3.1467,3.1467,3.1482,3.1409,3.1351,3.1367,3.1634,3.1723,3.1886,3.2315,3.2579,3.2667,3.3195,3.3368,3.3466,3.3627,3.3289,3.242,3.2284,3.1809,3.1235,3.0953,3.0672,3.0276,3.0219,3.0187,3.0064,2.9927,2.9865,2.9803,2.9491,2.9162,2.8908,2.8651,2.8457,2.8197,2.7987,2.7789,2.7736,2.759,2.7469,2.7403,2.7281,2.7066,2.6863,2.6645,2.6488,2.6168,2.6038,2.5925,2.5724,2.5103,2.473,2.445,2.3646,2.2624,2.1881,2.1297,2.0399,1.9671,1.9615,1.9407,1.9008,1.8875,1.8674,1.8482,1.8279,1.7861,1.7408,1.7187,1.6758,1.6138,1.5608,1.5072,1.4516,1.403,1.3388,1.2806,1.2436,1.2026,1.136,1.0961,1.0421,0.9862,0.9408,0.8888,0.8501,0.8047,0.7596,0.7204,0.6806,0.6416,0.6024,0.569,0.5422,0.5024,0.4558,0.4095,0.3696,0.3293,0.295,0.2593,0.2203,0.185,3.2118,3.2038,3.2262,3.2231,3.215,3.1996,3.1826,3.1655,3.1539,3.1482,3.1467,3.1482,3.1482,3.1453,3.1456,3.1412,3.1338,3.1942,3.2208,3.237,3.2823,3.3132,3.3309,3.3657,3.3908,3.3835,3.3978,3.3804,3.2954,3.2622,3.2133,3.1588,3.1225,3.0885,3.0529,3.0372,3.023,2.9944,2.9693,2.9477,2.9352,2.9162,2.8844,2.8522,2.8444,2.8249,2.7921,2.7776,2.7656,2.7603,2.7469,2.739,2.7268,2.7079,2.6875,2.6658,2.6521,2.6452,2.644,2.6358,2.6283,2.6264,2.5673,2.5376,2.4988,2.4082,2.2887,2.1766,2.1117,2.0599,1.994,1.9669,1.9351,1.8942,1.8741,1.8607,1.8337,1.8134,1.7862,1.759,1.752,1.7027,1.6391,1.5845,1.5316,1.4673,1.4172,1.3571,1.3006,1.2741,1.2253,1.1333,1.0762,1.0257,0.9792,0.9402,0.9022,0.8635,0.8117,0.7661,0.7204,0.6745,0.6416,0.6086,0.5752,0.5484,0.5024,0.4694,0.4295,0.3894,0.356,0.3218,0.2869,0.2623,0.2273,3.2397,3.1996,3.2053,3.2053,3.1996,3.1883,3.1655,3.1409,3.1351,3.1351,3.1292,3.1351,3.1366,3.1471,3.1781,3.1898,3.2058,3.25,3.2823,3.2941,3.3343,3.3586,3.3674,3.3912,3.4004,3.3965,3.3988,3.3686,3.3221,3.2944,3.2534,3.1997,3.1752,3.1574,3.103,3.0664,3.0303,2.9998,2.9453,2.9063,2.878,2.8716,2.8471,2.8197,2.8066,2.7921,2.7776,2.7643,2.7523,2.7536,2.7469,2.7335,2.7079,2.7024,2.6807,2.6602,2.6408,2.6339,2.6396,2.6327,2.6327,2.6327,2.5995,2.58,2.5314,2.4525,2.3317,2.2138,2.1587,2.0941,2.0285,1.9849,1.9358,1.8942,1.8684,1.8539,1.8269,1.794,1.7725,1.7451,1.7254,1.6968,1.6477,1.5992,1.5469,1.4877,1.4296,1.3763,1.3163,1.2855,1.238,1.1423,1.0735,1.0219,0.9792,0.9402,0.9022,0.877,0.8247,0.7727,0.7335,0.6876,0.6544,0.6214,0.5881,0.5488,0.5093,0.4761,0.4428,0.4095,0.3828,0.3493,0.3224,0.296,0.264,3.3261,3.2528,3.2148,3.2012,3.1996,3.1739,3.1524,3.1351,3.1234,3.1176,3.1176,3.119,3.1309,3.1677,3.2159,3.2328,3.2411,3.3015,3.3293,3.3425,3.3762,3.4016,3.3955,3.4037,3.4059,3.3937,3.3799,3.3673,3.3428,3.3314,3.3004,3.2425,3.2097,3.1752,3.1411,3.0954,3.0682,3.0342,2.9745,2.9056,2.8603,2.8341,2.821,2.7921,2.7855,2.7709,2.7643,2.759,2.7469,2.7469,2.7469,2.7281,2.7079,2.6875,2.6726,2.6521,2.6188,2.6131,2.6283,2.6213,2.6201,2.6119,2.598,2.5664,2.524,2.453,2.3665,2.2632,2.208,2.1393,2.0608,2.0137,1.9479,1.8998,1.858,1.8347,1.8134,1.7803,1.7529,1.7254,1.6968,1.676,1.6403,1.5886,1.5508,1.511,1.4525,1.3987,1.3317,1.2674,1.2083,1.139,1.0803,1.0263,0.9866,0.9466,0.9092,0.8776,0.8317,0.7857,0.7461,0.7068,0.6741,0.6346,0.602,0.5624,0.5229,0.496,0.4691,0.4428,0.4097,0.383,0.356,0.322,0.2819,3.4089,3.3364,3.2473,3.2034,3.1913,3.1717,3.1589,3.1501,3.1544,3.1514,3.1499,3.1558,3.1748,3.2079,3.2587,3.2873,3.2788,3.3412,3.3645,3.3891,3.4057,3.4192,3.4056,3.4059,3.3882,3.3813,3.3605,3.3493,3.3423,3.3367,3.3141,3.2774,3.2485,3.2055,3.1557,3.1226,3.0938,3.05,2.9903,2.9214,2.8572,2.8332,2.808,2.7842,2.7709,2.7643,2.7523,2.7469,2.7469,2.7403,2.7335,2.7214,2.6943,2.6794,2.6589,2.6383,2.605,2.5923,2.6062,2.6062,2.6062,2.591,2.5758,2.5548,2.4957,2.4378,2.3897,2.3116,2.2585,2.1743,2.093,2.0509,1.974,1.9094,1.8572,1.8319,1.8008,1.7735,1.747,1.7323,1.6978,1.6482,1.6132,1.57,1.5409,1.5125,1.472,1.4157,1.3416,1.2632,1.2157,1.1634,1.1015,1.0492,1.0093,0.9651,0.9238,0.8787,0.8322,0.7922,0.7596,0.7199,0.6802,0.6478,0.6152,0.5888,0.5557,0.5289,0.4957,0.4694,0.4364,0.4228,0.3961,0.356,0.306,3.4553,3.4435,3.3036,3.227,3.1905,3.208,3.2063,3.2016,3.2376,3.2489,3.243,3.2577,3.2562,3.2776,3.3179,3.3463,3.3441,3.4066,3.4196,3.4201,3.4182,3.4128,3.3991,3.3799,3.3675,3.3605,3.3466,3.3227,3.3072,3.3072,3.303,3.2918,3.2638,3.2494,3.2146,3.165,3.106,3.0483,2.9992,2.9478,2.8929,2.8649,2.8328,2.7747,2.7562,2.7536,2.7469,2.7469,2.7469,2.7335,2.7268,2.7134,2.6794,2.6726,2.6521,2.627,2.605,2.584,2.5828,2.591,2.5923,2.584,2.5688,2.5407,2.4849,2.479,2.4348,2.3582,2.3021,2.2347,2.1571,2.0854,2.0125,1.9318,1.8763,1.8388,1.8066,1.7735,1.747,1.7332,1.6978,1.6491,1.6061,1.563,1.5417,1.5125,1.4553,1.3988,1.3439,1.2778,1.2445,1.1977,1.1303,1.0834,1.0444,1.0,0.9371,0.8864,0.8419,0.8072,0.7731,0.733,0.6929,0.6675,0.6416,0.6148,0.5885,0.5554,0.5223,0.4894,0.4628,0.4495,0.4161,0.3696,0.3253,3.4925,3.449,3.398,3.3411,3.2826,3.2702,3.262,3.2478,3.2523,3.2562,3.2634,3.2969,3.3223,3.3333,3.3783,3.4051,3.408,3.4254,3.4317,3.4196,3.4128,3.4005,3.3799,3.366,3.3536,3.3466,3.3312,3.3227,3.3058,3.2846,3.2704,3.2632,3.2561,3.2475,3.228,3.1969,3.1276,3.0659,3.0233,2.9865,2.9359,2.9048,2.873,2.8111,2.8059,2.7837,2.7602,2.7469,2.7403,2.7307,2.7198,2.7007,2.6777,2.6709,2.649,2.6213,2.598,2.5758,2.5676,2.5758,2.5923,2.584,2.5548,2.5194,2.479,2.4574,2.42,2.3661,2.3205,2.2619,2.1771,2.1206,2.0625,1.9615,1.8904,1.8557,1.8135,1.7743,1.7392,1.7254,1.6839,1.6342,1.5991,1.563,1.5417,1.5125,1.4482,1.3825,1.3273,1.2868,1.2583,1.2186,1.1507,1.1102,1.0784,1.0129,0.9371,0.8964,0.8587,0.8213,0.7857,0.7451,0.7055,0.6802,0.6609,0.6346,0.6083,0.5818,0.5488,0.5156,0.4891,0.4758,0.4359,0.3897,0.346,3.522,3.4801,3.4786,3.4277,3.3436,3.3336,3.3157,3.2995,3.3021,3.3014,3.2992,3.3506,3.3746,3.3891,3.4153,3.4385,3.4356,3.4332,3.4264,3.4128,3.4005,3.3882,3.3675,3.3536,3.3466,3.3312,3.3241,3.3086,3.2917,3.2704,3.2561,3.2431,3.2273,3.2228,3.2268,3.1936,3.1443,3.099,3.0626,3.0303,2.9757,2.9581,2.9248,2.8752,2.8647,2.846,2.8213,2.8092,2.7915,2.7765,2.7518,2.7252,2.7,2.6747,2.6477,2.6181,2.591,2.5758,2.5606,2.5606,2.5758,2.5688,2.5407,2.5064,2.479,2.4418,2.4043,2.3666,2.3202,2.2711,2.1944,2.1554,2.0969,1.9991,1.9294,1.8815,1.8212,1.777,1.7389,1.7116,1.6691,1.6272,1.5991,1.563,1.5133,1.4848,1.4418,1.3768,1.3171,1.2844,1.2649,1.219,1.1735,1.1397,1.1058,1.0375,0.9662,0.9169,0.8788,0.8343,0.7917,0.7517,0.719,0.7003,0.6745,0.6478,0.628,0.6017,0.5686,0.5355,0.5153,0.4954,0.4561,0.4164,0.383,3.5474,3.5474,3.5459,3.4569,3.3476,3.376,3.3883,3.3667,3.3816,3.3926,3.3883,3.4027,3.4095,3.4245,3.4317,3.4399,3.4414,3.4414,3.4278,3.4059,3.402,3.3813,3.3605,3.3396,3.3312,3.3241,3.3157,3.2931,3.2704,3.2561,3.2359,3.2169,3.2036,3.199,3.2158,3.1649,3.136,3.1233,3.1044,3.0629,3.0255,3.0124,2.9797,2.9321,2.9248,2.9015,2.8653,2.8601,2.8447,2.8188,2.8142,2.7835,2.7318,2.7126,2.6689,2.6045,2.5844,2.5584,2.5382,2.5312,2.5453,2.5535,2.5265,2.4992,2.4718,2.4418,2.397,2.3593,2.315,2.2767,2.2275,2.1787,2.1112,2.047,1.9768,1.9073,1.8405,1.7922,1.7549,1.7005,1.6621,1.6202,1.5921,1.5568,1.4919,1.4489,1.4201,1.3695,1.3119,1.2813,1.2698,1.2298,1.1866,1.1563,1.1181,1.0563,0.9942,0.948,0.8981,0.8461,0.8072,0.7746,0.7414,0.7209,0.6942,0.6745,0.6478,0.628,0.5951,0.5686,0.5352,0.5087,0.4694,0.4431,0.4095,3.5489,3.5504,3.5359,3.4961,3.4381,3.4507,3.4413,3.4176,3.4095,3.4074,3.402,3.4074,3.4128,3.4196,3.4346,3.4414,3.4414,3.4428,3.4278,3.402,3.3965,3.3689,3.3466,3.3312,3.3227,3.3143,3.2988,3.2775,3.2489,3.2417,3.2214,3.2023,3.1757,3.1622,3.1548,3.1386,3.1299,3.1123,3.1035,3.0869,3.0712,3.0647,3.0338,2.9632,2.9606,2.9391,2.8903,2.8916,2.8771,2.8566,2.8505,2.8182,2.7738,2.7543,2.7065,2.6418,2.6116,2.5863,2.5515,2.5312,2.5312,2.5253,2.5123,2.4861,2.4574,2.4127,2.3751,2.3446,2.3001,2.2628,2.2317,2.1985,2.1411,2.072,2.0036,1.9275,1.8663,1.8209,1.7727,1.7027,1.6473,1.5982,1.563,1.5488,1.4919,1.4418,1.4201,1.3695,1.3119,1.29,1.2732,1.2358,1.1957,1.1784,1.1359,1.0742,1.0266,0.9885,0.9203,0.8564,0.8194,0.7871,0.7559,0.7279,0.7143,0.6942,0.6745,0.6482,0.628,0.6017,0.5683,0.5286,0.5024,0.4691,0.4359,3.5439,3.5374,3.5294,3.5082,3.4868,3.4817,3.4616,3.4278,3.4074,3.3951,3.3813,3.3868,3.4005,3.4059,3.4196,3.4278,3.4346,3.4346,3.4225,3.3965,3.3896,3.3675,3.3396,3.3241,3.3157,3.3058,3.2917,3.2704,3.2417,3.2359,3.2082,3.1803,3.1447,3.1224,3.1149,3.1149,3.1149,3.1061,3.0973,3.0973,3.0859,3.0758,3.0566,3.0206,2.9915,2.9738,2.9308,2.9094,2.8933,2.8798,2.8637,2.8487,2.8114,2.7816,2.7458,2.687,2.6226,2.5961,2.5637,2.5289,2.5206,2.4969,2.4849,2.4646,2.4418,2.3897,2.3677,2.3309,2.2788,2.2553,2.2327,2.2025,2.1521,2.0903,2.0426,1.9649,1.8985,1.8464,1.7853,1.706,1.6395,1.5885,1.5346,1.5204,1.4991,1.4561,1.4129,1.3622,1.3112,1.2973,1.2826,1.2452,1.2077,1.1755,1.1421,1.0849,1.051,1.0248,0.9552,0.8842,0.845,0.8127,0.7768,0.7419,0.7279,0.7077,0.6881,0.6683,0.6478,0.628,0.5951,0.562,0.5289,0.4957,0.4622,3.5359,3.5213,3.5162,3.5016,3.4765,3.4698,3.4361,3.3896,3.3896,3.3744,3.3605,3.3605,3.3744,3.3882,3.4005,3.4128,3.4128,3.4278,3.4157,3.3965,3.3827,3.3605,3.3396,3.3241,3.3072,3.2988,3.2775,3.2561,3.2345,3.2155,3.189,3.1596,3.1224,3.0999,3.0924,3.0836,3.0911,3.0911,3.0911,3.0836,3.0773,3.0685,3.0482,3.029,3.0113,3.0024,2.9783,2.9732,2.9541,2.9424,2.9294,2.8879,2.8516,2.8114,2.7557,2.6995,2.6268,2.5944,2.5694,2.5325,2.498,2.4729,2.4718,2.4502,2.42,2.3824,2.3593,2.3235,2.2788,2.2553,2.2327,2.1949,2.1558,2.1202,2.0803,2.0092,1.9297,1.8666,1.7934,1.7243,1.6608,1.605,1.5443,1.5125,1.5023,1.4561,1.4137,1.384,1.3404,1.2966,1.282,1.2532,1.2157,1.1781,1.1378,1.0971,1.0633,1.0375,0.9946,0.9291,0.8863,0.8461,0.8086,0.7797,0.7438,0.7209,0.7007,0.6876,0.6675,0.6478,0.6148,0.5818,0.5422,0.5153,0.4888,3.5148,3.5016,3.4883,3.4765,3.4683,3.4414,3.4142,3.3896,3.3896,3.3675,3.3396,3.3536,3.3619,3.3689,3.3882,3.3951,3.3951,3.3951,3.3882,3.3758,3.3758,3.355,3.3326,3.3157,3.3002,3.2775,3.2632,3.2431,3.2228,3.1963,3.1656,3.136,3.0986,3.0773,3.0685,3.0596,3.0685,3.0761,3.0773,3.0698,3.0622,3.0533,3.0381,3.0139,2.9998,2.9844,2.9677,2.9559,2.939,2.9209,2.9094,2.8856,2.8699,2.8403,2.7975,2.715,2.6476,2.6016,2.5675,2.5462,2.5081,2.456,2.4418,2.42,2.3982,2.3751,2.3446,2.315,2.2777,2.2478,2.2252,2.1873,2.1578,2.1247,2.0887,2.0311,1.9573,1.9071,1.8267,1.7423,1.6773,1.616,1.553,1.5279,1.5088,1.4601,1.4209,1.392,1.3557,1.3185,1.2893,1.2599,1.2231,1.1781,1.1484,1.1087,1.0771,1.0433,1.0068,0.968,0.9278,0.8808,0.8465,0.8091,0.7692,0.7428,0.7138,0.7003,0.6872,0.6609,0.6346,0.6017,0.562,0.5422,0.5223,3.4949,3.4817,3.4765,3.4631,3.4549,3.4264,3.4005,3.3882,3.3813,3.3605,3.3326,3.341,3.3466,3.3536,3.3675,3.3744,3.3813,3.3882,3.3813,3.3675,3.3605,3.3466,3.3312,3.3072,3.2917,3.2704,3.2489,3.2286,3.2023,3.1669,3.1373,3.1136,3.0761,3.0533,3.047,3.0381,3.0381,3.0457,3.0546,3.0457,3.0381,3.0228,2.9998,2.9754,2.9611,2.9443,2.9275,2.9246,2.9077,2.8973,2.8858,2.87,2.8554,2.8223,2.8051,2.7328,2.6827,2.6223,2.5803,2.5464,2.4966,2.4495,2.4127,2.397,2.3751,2.353,2.3298,2.3001,2.2628,2.2327,2.2101,2.1807,2.1502,2.1195,2.0827,2.0459,1.9957,1.944,1.8646,1.7632,1.6968,1.6331,1.5926,1.5566,1.5209,1.4761,1.4353,1.4057,1.3702,1.3266,1.2966,1.2746,1.2298,1.1774,1.1558,1.126,1.0944,1.0559,1.0248,0.9909,0.952,0.9195,0.8819,0.8361,0.7925,0.7673,0.7433,0.7143,0.7003,0.6806,0.6544,0.6284,0.5954,0.5756,0.5557,3.4817,3.4698,3.4698,3.4563,3.4414,3.4196,3.402,3.3896,3.3675,3.348,3.3326,3.3312,3.3312,3.3396,3.3536,3.3536,3.3605,3.3675,3.3675,3.3605,3.3536,3.3382,3.3227,3.3086,3.286,3.2632,3.2417,3.2069,3.1803,3.1508,3.1211,3.0986,3.0609,3.0305,3.0241,3.0088,3.0075,3.0062,3.0152,3.0139,2.9934,2.9779,2.9546,2.9209,2.9131,2.9052,2.9052,2.8973,2.8895,2.8736,2.8486,2.8327,2.8087,2.7846,2.7753,2.751,2.7034,2.6593,2.6005,2.5599,2.4918,2.434,2.3858,2.3689,2.3457,2.3372,2.3224,2.2927,2.2553,2.2327,2.2101,2.1731,2.1359,2.1128,2.0857,2.044,1.9965,1.9378,1.8674,1.7849,1.7266,1.6689,1.6186,1.5896,1.5478,1.5009,1.4505,1.4209,1.3855,1.3419,1.3119,1.2893,1.2372,1.1929,1.1632,1.1409,1.1111,1.0738,1.0443,1.0168,0.9865,0.9483,0.9103,0.8677,0.8193,0.7935,0.7668,0.7377,0.7152,0.7007,0.6811,0.6548,0.6284,0.6152,0.5892,3.4631,3.4481,3.4481,3.4414,3.4346,3.4088,3.3965,3.3882,3.3536,3.3396,3.3312,3.3312,3.3312,3.3312,3.3382,3.3396,3.3396,3.3466,3.341,3.3396,3.3396,3.3312,3.3072,3.2945,3.2731,3.2431,3.2141,3.1863,3.1495,3.1211,3.0986,3.0761,3.0381,3.0152,3.0088,2.9934,2.9767,2.9677,2.9586,2.9754,2.9702,2.939,2.9143,2.8973,2.8895,2.8669,2.859,2.8467,2.8295,2.8122,2.7903,2.781,2.7672,2.7522,2.7452,2.7348,2.7151,2.6771,2.6322,2.575,2.5116,2.4401,2.3958,2.3546,2.3298,2.3298,2.315,2.2777,2.2553,2.2327,2.2025,2.1578,2.1282,2.1128,2.0886,2.0411,1.9942,1.9303,1.865,1.8099,1.7605,1.7124,1.6606,1.6146,1.5774,1.5259,1.4672,1.4297,1.4015,1.3659,1.3273,1.2973,1.2526,1.215,1.1781,1.1558,1.126,1.0962,1.0663,1.0473,1.0198,0.9789,0.9376,0.8931,0.8564,0.829,0.7959,0.7536,0.7311,0.7283,0.7073,0.6876,0.6745,0.6613,0.6284,3.4481,3.4414,3.4414,3.4414,3.4346,3.402,3.3896,3.3813,3.3466,3.3312,3.3312,3.3312,3.3312,3.3312,3.3312,3.3312,3.3312,3.3312,3.3326,3.3326,3.3241,3.3157,3.3016,3.2789,3.2632,3.2345,3.195,3.1596,3.1211,3.0986,3.0773,3.047,3.0164,3.0011,2.9934,2.9779,2.9534,2.9431,2.9275,2.9209,2.9312,2.8986,2.8736,2.8657,2.8431,2.8271,2.8203,2.8078,2.7985,2.7881,2.7684,2.751,2.7452,2.7371,2.7301,2.7219,2.7151,2.692,2.6382,2.5904,2.5294,2.4534,2.4089,2.3685,2.3161,2.3075,2.2852,2.2553,2.2478,2.2327,2.1949,2.1502,2.1282,2.1128,2.0809,2.0411,1.9863,1.9246,1.8761,1.847,1.7996,1.7535,1.7123,1.6731,1.6261,1.5806,1.5176,1.4579,1.4256,1.3938,1.3536,1.3119,1.2673,1.2305,1.1929,1.1706,1.1484,1.1186,1.0962,1.0645,1.0375,0.9979,0.9641,0.928,0.8974,0.8574,0.8243,0.7855,0.7663,0.7681,0.747,0.7204,0.7138,0.7073,0.6745,3.4346,3.4346,3.4414,3.4414,3.4346,3.402,3.3896,3.3827,3.3466,3.3312,3.3312,3.3312,3.3312,3.3312,3.3312,3.3312,3.3312,3.3312,3.3312,3.3312,3.3312,3.3086,3.2903,3.2648,3.2461,3.2128,3.173,3.136,3.0986,3.0698,3.0394,3.0164,3.0011,2.9934,2.9767,2.9521,2.9341,2.9184,2.9028,2.8736,2.859,2.8431,2.8339,2.8191,2.7962,2.7881,2.7881,2.78,2.78,2.7708,2.7534,2.7383,2.7301,2.7219,2.7231,2.7149,2.7149,2.6827,2.6428,2.6052,2.5296,2.4581,2.4227,2.3721,2.3209,2.2885,2.266,2.2478,2.2402,2.2176,2.1797,2.1502,2.1282,2.1051,2.0731,2.0333,1.9794,1.917,1.8913,1.8665,1.8249,1.7888,1.7547,1.715,1.6752,1.6215,1.5751,1.5091,1.4597,1.42,1.3793,1.3404,1.2973,1.2526,1.215,1.1855,1.1632,1.1403,1.118,1.0887,1.0559,1.0216,0.9979,0.9834,0.9504,0.9001,0.8669,0.8321,0.8194,0.8038,0.7802,0.7531,0.7466,0.74,0.7138,3.4088,3.4196,3.4346,3.4346,3.4142,3.3965,3.3813,3.3605,3.3396,3.3312,3.3312,3.3312,3.3312,3.3312,3.3312,3.3312,3.3312,3.3312,3.3312,3.3312,3.3312,3.3086,3.2775,3.2519,3.2173,3.185,3.1447,3.1061,3.0761,3.0381,3.0228,3.0075,2.9856,2.9767,2.9509,2.9341,2.9263,2.9028,2.8803,2.8578,2.8339,2.8191,2.8111,2.795,2.7696,2.7603,2.7522,2.7383,2.7394,2.7313,2.7301,2.7219,2.7231,2.7231,2.7149,2.7149,2.7067,2.6823,2.6515,2.6046,2.5336,2.5057,2.4546,2.3908,2.3417,2.2961,2.2692,2.2413,2.2252,2.2101,2.1731,2.1425,2.1205,2.0886,2.0566,2.0108,1.9636,1.917,1.8772,1.8523,1.8247,1.8035,1.7848,1.7431,1.6984,1.6477,1.6033,1.5433,1.4826,1.444,1.4133,1.3623,1.3134,1.2746,1.2378,1.2077,1.1855,1.1626,1.1403,1.1111,1.0738,1.0357,1.0204,1.0125,0.9699,0.9216,0.8957,0.8695,0.84,0.8179,0.8022,0.7852,0.7792,0.7661,0.7466]},{"header":{"parameterUnit":"m.s-1","parameterCategory":1,"la1":31.0,"la2":29.5877,"lo1":-88.7671,"lo2":-86.6584,"dy":0.0162,"dx":0.0185,"nx":115,"ny":88,"refTime":"2023-08-25T18:00:00:Z","depth":0,"parameterNumber":3,"parameterNumberName":"V-component_of_WINDS"},"data":[0.0,0.0,0.0,0.0,0.0,0.0,0.0,0.0,0.0,0.0,0.0,0.0,0.0,0.0,0.0,0.0,0.0,0.0,0.0,0.0,0.0,0.0,0.0,0.0,0.0,0.0,0.0,0.0,0.0,0.0,0.0,0.0,0.0,0.0,0.0,0.0,0.0,0.0,0.0,0.0,0.0,0.0,0.0,0.0,0.0,0.0,0.0,0.0,0.0,0.0,0.0,0.0,0.0,0.0,0.0,0.0,0.0,0.0,0.0,0.0,0.0,0.0,0.0,0.0,0.0,0.0,0.0,0.0,0.0,0.0,0.0,0.0,0.0,0.0,0.0,0.0,0.0,0.0,0.0,0.0,0.0,0.0,0.0,0.0,0.0,0.0,0.0,0.0,0.0,0.0,0.0,0.0,0.0,0.0,0.0,0.0,0.0,0.0,0.0,0.0,0.0,0.0,0.0,0.0,0.0,0.0,0.0,0.0,0.0,0.0,0.0,0.0,0.0,0.0,0.0,0.0,0.0,0.0,0.0,0.0,0.0,0.0,0.0,0.0,0.0,0.0,0.0,0.0,0.0,0.0,0.0,0.0,0.0,0.0,0.0,0.0,0.0,0.0,0.0,0.0,0.0,0.0,0.0,0.0,0.0,0.0,0.0,0.0,0.0,0.0,0.0,0.0,0.0,0.0,0.0,0.0,0.0,0.0,0.0,0.0,0.0,0.0,0.0,0.0,0.0,0.0,0.0,0.0,0.0,0.0,0.0,0.0,0.0,0.0,0.0,0.0,0.0,0.0,0.0,0.0,0.0,0.0,0.0,0.0,0.0,0.0,0.0,0.0,0.0,0.0,0.0,0.0,0.0,0.0,0.0,0.0,0.0,0.0,0.0,0.0,0.0,0.0,0.0,0.0,0.0,0.0,0.0,0.0,0.0,0.0,0.0,0.0,0.0,0.0,0.0,0.0,0.0,0.0,0.0,0.0,0.0,0.0,0.0,0.0,0.0,0.0,0.0,0.0,0.0,0.0,0.0,0.0,0.0,0.0,0.0,0.0,0.0,0.0,0.0,0.0,0.0,0.0,0.0,0.0,0.0,0.0,0.0,0.0,0.0,0.0,0.0,0.0,0.0,0.0,0.0,0.0,0.0,0.0,0.0,0.0,0.0,0.0,0.0,0.0,0.0,0.0,0.0,0.0,0.0,0.0,0.0,0.0,0.0,0.0,0.0,0.0,0.0,0.0,0.0,0.0,0.0,0.0,0.0,0.0,0.0,0.0,0.0,0.0,0.0,0.0,0.0,0.0,0.0,0.0,0.0,0.0,0.0,0.0,0.0,0.0,0.0,0.0,0.0,0.0,0.0,0.0,0.0,0.0,0.0,0.0,0.0,0.0,0.0,0.0,0.0,0.0,0.0,0.0,0.0,0.0,0.0,0.0,0.0,0.0,0.0,0.0,0.0,0.0,0.0,0.0,0.0,0.0,0.0,0.0,0.0,0.0,0.0,0.0,0.0,0.0,0.0,0.0,0.0,0.0,0.0,0.0,0.0,0.0,0.0,0.0,0.0,0.0,0.0,0.0,0.0,0.0,0.0,0.0,0.0,0.0,0.0,0.0,0.0,0.0,0.0,0.0,0.0,0.0,0.0,0.0,0.0,0.0,0.0,0.0,0.0,0.0,0.0,0.0,0.0,0.0,0.0,0.0,0.0,0.0,0.0,0.0,0.0,0.0,0.0,0.0,0.0,0.0,0.0,0.0,0.0,0.0,0.0,0.0,0.0,0.0,0.0,0.0,0.0,0.0,0.0,0.0,0.0,0.0,0.0,0.0,0.0,0.0,0.0,0.0,0.0,0.0,0.0,0.0,0.0,0.0,0.0,0.0,0.0,0.0,0.0,0.0,0.0,0.0,0.0,0.0,0.0,0.0,0.0,0.0,0.0,0.0,0.0,0.0,0.0,0.0,0.0,0.0,0.0,0.0,0.0,0.0,0.0,0.0,0.0,0.0,0.0,0.0,0.0,0.0,0.0,0.0,0.0,0.0,0.0,0.0,0.0,0.0,0.0,0.0,0.0,0.0,0.0,0.0,0.0,0.0,0.0,0.0,0.0,0.0,0.0,0.0,0.0,0.0,0.0,0.0,0.0,0.0,0.0,0.0,0.0,0.0,0.0,0.0,0.0,0.0,0.0,0.0,0.0,0.0,0.0,0.0,0.0,0.0,0.0,0.0,0.0,0.0,0.0,0.0,0.0,0.0,0.0,0.0,0.0,0.0,0.0,0.0,0.0,0.0,0.0,0.0,0.0,0.0,0.0,0.0,0.0,0.0,0.0,0.0,0.0,0.0,0.0,0.0,0.0,0.0,0.0,0.0,0.0,0.0,0.0,0.0,0.0,0.0,0.0,0.0,0.0,0.0,0.0,0.0,0.0,0.0,0.0,0.0,0.0,0.0,0.0,0.0,0.0,0.0,0.0,0.0,0.0,0.0,0.0,0.0,0.0,0.0,0.0,0.0,0.0,0.0,0.0,0.0,0.0,0.0,0.0,0.0,0.0,0.0,0.0,0.0,0.0,0.0,0.0,0.0,0.0,0.0,0.0,0.0,0.0,0.0,0.0,0.0,0.0,0.0,0.0,0.0,0.0,0.0,0.0,0.0,0.0,0.0,0.0,0.0,0.0,0.0,0.0,0.0,0.0,0.0,0.0,0.0,0.0,0.0,0.0,0.0,0.0,0.0,0.0,0.0,0.0,0.0,0.0,0.0,0.0,0.0,0.0,0.0,0.0,0.0,0.0,0.0,0.0,0.0,0.0,0.0,0.0,0.0,0.0,0.0,0.0,0.0,0.0,0.0,0.0,0.0,0.0,0.0,0.0,0.0,0.0,0.0,0.0,0.0,0.0,0.0,0.0,0.0,0.0,0.0,0.0,0.0,0.0,0.0,0.0,0.0,0.0,0.0,0.0,0.0,0.0,0.0,0.0,0.0,0.0,0.0,0.0,0.0,0.0,0.0,0.0,0.0,0.0,0.0,0.0,0.0,0.0,0.0,0.0,0.0,0.0,0.0,0.0,0.0,0.0,0.0,0.0,0.0,0.0,0.0,0.0,0.0,0.0,0.0,0.0,0.0,0.0,0.0,0.0,0.0,0.0,0.0,0.0,0.0,0.0,0.0,0.0,0.0,0.0,0.0,0.0,0.0,0.0,0.0,0.0,0.0,0.0,0.0,0.0,0.0,0.0,0.0,0.0,0.0,0.0,0.0,0.0,0.0,0.0,0.0,0.0,0.0,0.0,0.0,0.0,0.0,0.0,0.0,0.0,0.0,0.0,0.0,0.0,0.0,0.0,0.0,0.0,0.0,0.0,0.0,0.0,0.0,0.0,0.0,0.0,0.0,0.0,0.0,0.0,0.0,0.0,0.0,0.0,0.0,0.0,0.0,0.0,0.0,0.0,0.0,0.0,0.0,0.0,0.0,0.0,0.0,0.0,0.0,0.0,0.0,0.0,0.0,0.0,0.0,0.0,0.0,0.0,0.0,0.0,0.0,0.0,0.0,0.0,0.0,0.0,0.0,0.0,0.0,0.0,0.0,0.0,0.0,0.0,0.0,0.0,0.0,0.0,0.0,0.0,0.0,0.0,0.0,0.0,0.0,0.0,0.0,0.0,0.0,0.0,0.0,0.0,0.0,0.0,0.0,0.0,0.0,0.0,0.0,0.0,0.0,0.0,0.0,0.0,0.0,0.0,0.0,0.0,0.0,0.0,0.0,0.0,0.0,0.0,0.0,0.0,0.0,0.0,0.0,0.0,0.0,0.0,0.0,0.0,0.0,0.0,0.0,0.0,0.0,0.0,0.0,0.0,0.0,0.0,0.0,0.0,0.0,0.0,0.0,0.0,0.0,0.0,0.0,0.0,0.0,0.0,0.0,0.0,0.0,0.0,0.0,0.0,0.0,0.0,0.0,0.0,0.0,0.0,0.0,0.0,0.0,0.0,0.0,0.0,0.0,0.0,0.0,0.0,0.0,0.0,0.0,0.0,0.0,0.0,0.0,0.0,0.0,0.0,0.0,0.0,0.0,0.0,0.0,0.0,0.0,0.0,0.0,0.0,0.0,0.0,0.0,0.0,0.0,0.0,0.0,0.0,0.0,0.0,0.0,0.0,0.0,0.0,0.0,0.0,0.0,0.0,0.0,0.0,0.0,0.0,0.0,0.0,0.0,0.0,0.0,0.0,0.0,0.0,0.0,0.0,0.0,0.0,0.0,0.0,0.0,0.0,0.0,0.0,0.0,0.0,0.0,-0.3281,0.0,0.0,0.0,0.0,0.0,0.0,0.0,0.0,0.0,0.0,0.0,0.0,0.0,0.0,0.0,0.0,0.0,0.0,0.0,0.0,0.0,0.0,0.0,0.0,0.0,0.0,0.0,0.0,0.0,0.0,0.0,0.0,0.0,0.0,0.0,0.0,0.0,0.0,0.0,0.0,0.0,0.0,0.0,0.0,0.0,0.0,0.0,0.0,0.0,0.0,0.0,0.0,0.0,0.0,0.0,0.0,0.0,0.0,0.0,0.0,0.0,0.0,0.0,0.0,0.0,0.0,0.0,0.0,0.0,0.0,0.0,0.0,0.0,0.0,0.0,0.0,0.0,0.0,0.0,0.0,0.0,0.0,0.0,0.0,0.0,0.0,0.0,0.0,0.0,0.0,0.0,0.0,0.0,0.0,0.0,0.0,0.0,0.0,0.0,0.0,0.0,0.0,0.0,0.0,0.0,0.0,0.0,0.0,0.0,0.0,-0.3903,-0.3898,-0.3644,-0.3525,-0.3555,0.0,0.0,0.0,0.0,0.0,0.0,0.0,0.0,0.0,0.0,0.0,0.0,0.0,0.0,0.0,0.0,0.0,0.0,0.0,0.0,0.0,0.0,0.0,0.0,0.0,0.0,0.0,0.0,0.0,0.0,0.0,0.0,0.0,0.0,0.0,0.0,0.0,0.0,0.0,0.0,0.0,0.0,0.0,0.0,0.0,0.0,0.0,0.0,0.0,0.0,0.0,0.0,0.0,0.0,0.0,0.0,0.0,0.0,0.0,0.0,0.0,0.0,0.0,0.0,0.0,0.0,0.0,0.0,0.0,0.0,0.0,0.0,0.0,0.0,0.0,0.0,0.0,0.0,0.0,0.0,0.0,0.0,0.0,0.0,0.0,0.0,0.0,0.0,0.0,0.0,0.0,0.0,0.0,0.0,0.0,0.0,0.0,0.0,0.0,0.0,0.0,0.0,0.0,0.0,0.0,0.0,0.0,0.0,0.0,0.0,0.0,0.0,-0.3806,-0.3732,-0.3822,0.0,0.0,0.0,0.0,0.0,0.0,0.0,0.0,0.0,0.0,0.0,0.0,0.0,0.0,0.0,0.0,0.0,0.0,0.0,0.0,0.0,0.0,0.0,0.0,0.0,0.0,0.0,0.0,0.0,0.0,0.0,0.0,0.0,0.0,0.0,0.0,0.0,0.0,0.0,0.0,0.0,0.0,0.0,0.0,0.0,0.0,0.0,0.0,0.0,0.0,0.0,0.0,0.0,0.0,0.0,0.0,0.0,0.0,0.0,0.0,0.0,0.0,0.0,0.0,0.0,0.0,0.0,0.0,0.0,0.0,0.0,0.0,0.0,0.0,0.0,0.0,0.0,0.0,0.0,0.0,0.0,0.0,0.0,0.0,0.0,0.0,0.0,0.0,0.0,0.0,0.0,0.0,0.0,0.0,0.0,0.0,0.0,0.0,0.0,0.0,0.0,0.0,0.0,0.0,0.0,0.0,0.0,0.0,0.0,0.0,-0.4317,-0.4247,-0.4258,0.0,-0.3995,0.0,0.0,0.0,0.0,0.0,0.0,0.0,0.0,0.0,0.0,0.0,0.0,0.0,0.0,0.0,0.0,0.0,0.0,0.0,0.0,0.0,0.0,0.0,0.0,0.0,0.0,0.0,0.0,0.0,0.0,0.0,0.0,0.0,0.0,0.0,0.0,0.0,0.0,0.0,0.0,0.0,0.0,0.0,0.0,0.0,0.0,0.0,0.0,0.0,0.0,0.0,0.0,0.0,0.0,0.0,0.0,0.0,0.0,0.0,0.0,0.0,0.0,0.0,0.0,0.0,0.0,0.0,0.0,0.0,0.0,0.0,0.0,0.0,0.0,0.0,0.0,0.0,0.0,0.0,0.0,0.0,0.0,0.0,0.0,0.0,0.0,0.0,0.0,0.0,0.0,0.0,0.0,0.0,0.0,0.0,0.0,0.0,0.0,0.0,0.0,0.0,0.0,0.0,0.0,0.0,0.0,0.0,0.0,0.0,0.0,-0.435,-0.4312,-0.4221,-0.4123,0.0,0.0,0.0,0.0,0.0,0.0,0.0,0.0,0.0,0.0,0.0,0.0,0.0,0.0,0.0,0.0,0.0,0.0,0.0,0.0,0.0,0.0,0.0,0.0,0.0,0.0,0.0,0.0,0.0,0.0,0.0,0.0,0.0,0.0,0.0,0.0,0.0,0.0,0.0,0.0,0.0,0.0,0.0,0.0,0.0,0.0,0.0,0.0,0.0,0.0,0.0,0.0,0.0,0.0,0.0,0.0,0.0,0.0,0.0,0.0,0.0,0.0,0.0,0.0,0.0,0.0,0.0,0.0,0.0,0.0,0.0,0.0,0.0,0.0,0.0,0.0,0.0,0.0,0.0,0.0,0.0,0.0,0.0,0.0,0.0,0.0,0.0,0.0,0.0,0.0,0.0,0.0,0.0,0.0,0.0,0.0,0.0,0.0,0.0,0.0,0.0,0.0,0.0,0.0,0.0,0.0,0.0,0.0,0.0,0.0,-0.4452,-0.4382,-0.428,-0.4156,-0.4058,-0.3993,0.0,0.0,0.0,0.0,0.0,0.0,0.0,0.0,0.0,0.0,0.0,0.0,0.0,0.0,0.0,0.0,0.0,0.0,0.0,0.0,0.0,0.0,0.0,0.0,0.0,0.0,0.0,0.0,0.0,0.0,0.0,0.0,0.0,0.0,0.0,0.0,0.0,0.0,0.0,0.0,0.0,0.0,0.0,0.0,0.0,0.0,0.0,0.0,0.0,0.0,0.0,0.0,0.0,0.0,0.0,0.0,0.0,0.0,0.0,0.0,0.0,0.0,0.0,0.0,0.0,0.0,0.0,0.0,0.0,0.0,0.0,0.0,0.0,0.0,0.0,0.0,0.0,0.0,0.0,0.0,0.0,0.0,0.0,0.0,0.0,0.0,0.0,0.0,0.0,0.0,0.0,0.0,0.0,0.0,0.0,0.0,0.0,0.0,0.0,0.0,0.0,0.0,0.0,0.0,0.0,0.0,0.0,0.0,-0.4523,-0.449,-0.442,-0.4312,-0.4123,-0.3993,0.0,0.0,0.0,0.0,0.0,0.0,0.0,0.0,0.0,0.0,0.0,0.0,0.0,0.0,0.0,0.0,0.0,0.0,0.0,0.0,0.0,0.0,0.0,0.0,0.0,0.0,0.0,0.0,0.0,0.0,0.0,0.0,0.0,0.0,0.0,0.0,0.0,0.0,0.0,0.0,0.0,0.0,0.0,0.0,0.0,0.0,0.0,0.0,0.0,0.0,0.0,0.0,0.0,0.0,0.0,0.0,0.0,0.0,0.0,0.0,0.0,0.0,0.0,0.0,0.0,0.0,0.0,0.0,0.0,0.0,0.0,0.0,0.0,0.0,0.0,0.0,0.0,0.0,0.0,0.0,0.0,0.0,0.0,0.0,0.0,0.0,0.0,0.0,0.0,0.0,0.0,0.0,0.0,0.0,0.0,0.0,0.0,0.0,0.0,0.0,0.0,0.0,0.0,0.0,0.0,0.0,0.0,0.0,0.0,-0.4684,-0.4517,-0.4388,-0.4312,-0.4118,-0.3993,0.0,0.0,0.0,0.0,0.0,0.0,0.0,0.0,0.0,0.0,0.0,0.0,0.0,0.0,0.0,0.0,0.0,0.0,0.0,0.0,0.0,0.0,0.0,0.0,0.0,0.0,0.0,0.0,0.0,0.0,0.0,0.0,0.0,0.0,0.0,0.0,0.0,0.0,0.0,0.0,0.0,0.0,0.0,0.0,0.0,0.0,0.0,0.0,0.0,0.0,0.0,0.0,0.0,0.0,0.0,0.0,0.0,0.0,0.0,0.0,0.0,0.0,0.0,0.0,0.0,0.0,0.0,0.0,0.0,0.0,0.0,0.0,0.0,0.0,0.0,0.0,0.0,0.0,0.0,0.0,0.0,0.0,0.0,0.0,0.0,0.0,0.0,0.0,0.0,0.0,0.0,0.0,0.0,0.0,0.0,0.0,0.0,0.0,0.0,0.0,0.0,0.0,0.0,0.0,0.0,0.0,0.0,0.0,0.0,-0.4716,0.0,-0.435,-0.4221,-0.4058,-0.3993,0.0,0.0,0.0,0.0,0.0,0.0,0.0,0.0,0.0,0.0,0.0,0.0,0.0,0.0,0.0,0.0,0.0,0.0,0.0,0.0,0.0,0.0,0.0,0.0,0.0,0.0,0.0,0.0,0.0,0.0,0.0,0.0,0.0,0.0,0.0,0.0,0.0,0.0,0.0,0.0,0.0,0.0,0.0,0.0,0.0,0.0,0.0,0.0,0.0,0.0,0.0,0.0,0.0,0.0,0.0,0.0,0.0,0.0,0.0,0.0,0.0,0.0,0.0,0.0,0.0,0.0,0.0,0.0,0.0,0.0,0.0,0.0,0.0,0.0,0.0,0.0,0.0,0.0,0.0,0.0,0.0,0.0,0.0,0.0,0.0,0.0,0.0,0.0,0.0,0.0,0.0,0.0,0.0,0.0,0.0,0.0,0.0,0.0,0.0,0.0,0.0,0.0,0.0,0.0,0.0,0.0,0.0,0.0,-0.485,-0.4523,-0.442,-0.4323,-0.4096,-0.4026,-0.3956,0.0,0.0,0.0,0.0,0.0,0.0,0.0,0.0,0.0,0.0,0.0,0.0,0.0,0.0,0.0,0.0,0.0,0.0,0.0,0.0,0.0,0.0,0.0,0.0,0.0,0.0,0.0,0.0,0.0,0.0,0.0,0.0,0.0,0.0,0.0,0.0,0.0,0.0,0.0,0.0,0.0,0.0,0.0,0.0,0.0,0.0,0.0,0.0,0.0,0.0,0.0,0.0,0.0,0.0,0.0,0.0,0.0,0.0,0.0,0.0,0.0,0.0,0.0,0.0,0.0,0.0,0.0,0.0,0.0,0.0,0.0,0.0,0.0,0.0,0.0,0.0,0.0,0.0,0.0,0.0,0.0,0.0,0.0,0.0,0.0,0.0,0.0,0.0,0.0,0.0,0.0,0.0,0.0,0.0,0.0,0.0,0.0,0.0,0.0,0.0,0.0,0.0,0.0,0.0,0.0,0.0,0.0,0.0,0.0,-0.4581,-0.4517,-0.4355,-0.4096,-0.4026,-0.3956,0.0,0.0,0.0,0.0,0.0,0.0,0.0,0.0,0.0,0.0,0.0,0.0,0.0,0.0,0.0,0.0,0.0,0.0,0.0,0.0,0.0,0.0,0.0,0.0,0.0,0.0,0.0,0.0,0.0,0.0,0.0,0.0,0.0,0.0,0.0,0.0,0.0,0.0,0.0,0.0,0.0,0.0,0.0,0.0,0.0,0.0,0.0,0.0,0.0,0.0,0.0,0.0,0.0,0.0,0.0,0.0,0.0,0.0,0.0,0.0,0.0,0.0,0.0,0.0,0.0,0.0,0.0,0.0,0.0,0.0,0.0,0.0,0.0,0.0,0.0,0.0,0.0,0.0,0.0,0.0,0.0,0.0,0.0,0.0,0.0,0.0,0.0,0.0,0.0,0.0,0.0,0.0,0.0,0.0,0.0,0.0,0.0,0.0,0.0,0.0,0.0,0.0,0.0,0.0,0.0,0.0,0.0,0.0,0.0,-0.5008,-0.4859,-0.466,-0.435,-0.4281,-0.4172,-0.4019,0.0,0.0,0.0,0.0,0.0,0.0,0.0,0.0,0.0,0.0,0.0,0.0,0.0,0.0,0.0,0.0,0.0,0.0,0.0,0.0,0.0,0.0,0.0,0.0,0.0,0.0,0.0,0.0,0.0,0.0,0.0,0.0,0.0,0.0,0.0,0.0,0.0,0.0,0.0,0.0,0.0,0.0,0.0,0.0,0.0,0.0,0.0,0.0,0.0,0.0,0.0,0.0,0.0,0.0,0.0,0.0,0.0,0.0,0.0,0.0,0.0,0.0,0.0,0.0,0.0,0.0,0.0,0.0,0.0,0.0,0.0,0.0,0.0,0.0,0.0,0.0,0.0,0.0,0.0,0.0,0.0,0.0,0.0,0.0,0.0,0.0,0.0,0.0,0.0,0.0,0.0,0.0,0.0,0.0,0.0,0.0,0.0,0.0,0.0,0.0,0.0,0.0,0.0,0.0,0.0,0.0,0.0,0.0,-0.5639,-0.5456,-0.5137,-0.4694,-0.4694,-0.4565,0.0,0.0,0.0,0.0,0.0,0.0,0.0,0.0,0.0,0.0,0.0,0.0,0.0,0.0,0.0,0.0,0.0,0.0,0.0,0.0,0.0,0.0,0.0,0.0,0.0,0.0,0.0,0.0,0.0,0.0,0.0,0.0,0.0,0.0,0.0,0.0,0.0,0.0,0.0,0.0,0.0,0.0,0.0,0.0,0.0,0.0,0.0,0.0,0.0,0.0,0.0,0.0,0.0,0.0,0.0,0.0,0.0,0.0,0.0,0.0,0.0,0.0,0.0,0.0,0.0,0.0,0.0,0.0,0.0,0.0,0.0,0.0,0.0,0.0,0.0,0.0,0.0,0.0,0.0,0.0,0.0,0.0,0.0,0.0,0.0,0.0,0.0,0.0,0.0,0.0,0.0,0.0,0.0,0.0,0.0,0.0,0.0,0.0,0.0,0.0,0.0,0.0,0.0,0.0,0.0,0.0,0.0,0.0,0.0,-0.6198,-0.5949,-0.5481,-0.4823,-0.4769,-0.4706,0.0,0.0,0.0,0.0,0.0,0.0,0.0,0.0,0.0,0.0,0.0,0.0,0.0,0.0,0.0,0.0,0.0,0.0,0.0,0.0,0.0,0.0,0.0,0.0,0.0,0.0,0.0,0.0,0.0,0.0,0.0,0.0,0.0,0.0,0.0,0.0,0.0,0.0,0.0,0.0,0.0,0.0,0.0,0.0,0.0,0.0,0.0,0.0,0.0,0.0,0.0,0.0,0.0,0.0,0.0,0.0,0.0,0.0,0.0,0.0,0.0,0.0,0.0,0.0,0.0,0.0,0.0,0.0,0.0,0.0,0.0,0.0,0.0,0.0,0.0,0.0,0.0,0.0,0.0,0.0,0.0,0.0,0.0,0.0,0.0,0.0,0.0,0.0,0.0,0.0,0.0,0.0,0.0,0.0,0.0,0.0,0.0,0.0,0.0,0.0,0.0,0.0,0.0,0.0,0.0,0.0,0.0,0.0,-0.6666,-0.6447,-0.6153,-0.575,-0.526,-0.5129,-0.5008,0.0,0.0,0.0,0.0,0.0,0.0,0.0,0.0,0.0,0.0,0.0,0.0,0.0,0.0,0.0,0.0,0.0,0.0,0.0,0.0,0.0,0.0,0.0,0.0,0.0,0.0,0.0,0.0,0.0,0.0,0.0,0.0,0.0,0.0,0.0,0.0,0.0,0.0,0.0,0.0,0.0,0.0,0.0,0.0,0.0,0.0,0.0,0.0,0.0,0.0,0.0,0.0,0.0,0.0,0.0,0.0,0.0,0.0,0.0,0.0,0.0,0.0,0.0,0.0,0.0,0.0,0.0,0.0,0.0,0.0,0.0,0.0,0.0,0.0,0.0,0.0,0.0,0.0,0.0,0.0,0.0,0.0,0.0,0.0,0.0,0.0,0.0,0.0,0.0,0.0,0.0,0.0,0.0,0.0,0.0,0.0,0.0,0.0,0.0,0.0,0.0,0.0,0.0,0.0,0.0,0.0,0.0,0.0,-0.6781,-0.652,-0.619,-0.597,-0.583,-0.562,-0.5397,0.0,0.0,0.0,0.0,0.0,0.0,0.0,0.0,0.0,0.0,0.0,0.0,0.0,0.0,0.0,0.0,0.0,0.0,0.0,0.0,0.0,0.0,0.0,0.0,0.0,0.0,0.0,0.0,0.0,0.0,0.0,0.0,0.0,0.0,0.0,0.0,0.0,0.0,0.0,0.0,0.0,0.0,0.0,0.0,0.0,0.0,0.0,0.0,0.0,0.0,0.0,0.0,0.0,0.0,0.0,0.0,0.0,0.0,0.0,0.0,0.0,0.0,0.0,0.0,0.0,0.0,0.0,0.0,0.0,0.0,0.0,0.0,0.0,0.0,0.0,0.0,0.0,0.0,0.0,0.0,0.0,0.0,0.0,0.0,0.0,0.0,0.0,0.0,0.0,0.0,0.0,0.0,0.0,0.0,0.0,0.0,0.0,0.0,0.0,0.0,0.0,0.0,0.0,0.0,0.0,0.0,0.0,0.0,-0.6894,-0.6641,-0.6441,-0.6196,-0.5976,-0.5766,-0.5653,0.0,0.0,0.0,0.0,0.0,0.0,0.0,0.0,0.0,0.0,0.0,0.0,0.0,0.0,0.0,0.0,0.0,0.0,0.0,0.0,0.0,0.0,0.0,0.0,0.0,0.0,0.0,0.0,0.0,0.0,0.0,0.0,0.0,0.0,0.0,0.0,0.0,0.0,0.0,0.0,0.0,0.0,0.0,0.0,0.0,0.0,0.0,0.0,-0.9381,0.0,0.0,0.0,0.0,0.0,0.0,0.0,0.0,0.0,0.0,0.0,0.0,0.0,0.0,0.0,0.0,0.0,0.0,0.0,0.0,0.0,0.0,0.0,0.0,0.0,0.0,0.0,0.0,0.0,0.0,0.0,0.0,0.0,0.0,0.0,0.0,0.0,0.0,0.0,0.0,0.0,0.0,0.0,0.0,0.0,0.0,0.0,0.0,0.0,0.0,0.0,0.0,0.0,0.0,0.0,0.0,0.0,0.0,0.0,-0.7105,-0.6852,-0.6647,-0.6447,-0.6196,-0.6067,-0.5976,0.0,0.0,0.0,0.0,0.0,0.0,0.0,0.0,0.0,0.0,0.0,0.0,0.0,0.0,0.0,0.0,0.0,0.0,0.0,0.0,0.0,0.0,0.0,0.0,0.0,0.0,0.0,0.0,0.0,0.0,0.0,0.0,0.0,0.0,0.0,0.0,0.0,0.0,0.0,0.0,0.0,0.0,0.0,0.0,0.0,0.0,0.0,0.0,0.0,0.0,0.0,0.0,0.0,0.0,0.0,0.0,0.0,0.0,0.0,0.0,0.0,0.0,0.0,0.0,0.0,0.0,0.0,0.0,0.0,0.0,0.0,0.0,0.0,0.0,0.0,0.0,0.0,0.0,0.0,0.0,0.0,0.0,0.0,0.0,0.0,0.0,0.0,0.0,0.0,0.0,0.0,0.0,0.0,0.0,0.0,0.0,0.0,0.0,0.0,0.0,0.0,0.0,0.0,0.0,0.0,0.0,0.0,-0.7739,-0.7398,-0.7063,-0.6852,-0.6689,-0.6459,-0.6453,-0.6325,-0.611,0.0,0.0,0.0,0.0,0.0,0.0,0.0,0.0,0.0,0.0,0.0,0.0,0.0,0.0,0.0,0.0,0.0,0.0,0.0,0.0,0.0,0.0,0.0,0.0,0.0,0.0,0.0,0.0,0.0,0.0,0.0,0.0,0.0,0.0,0.0,0.0,0.0,0.0,-0.8883,-0.9182,0.0,0.0,0.0,0.0,0.0,0.0,0.0,0.0,-0.9854,0.0,0.0,0.0,0.0,0.0,0.0,0.0,0.0,0.0,0.0,0.0,0.0,0.0,0.0,0.0,0.0,0.0,0.0,0.0,0.0,0.0,0.0,0.0,0.0,0.0,0.0,0.0,0.0,0.0,0.0,0.0,0.0,0.0,0.0,0.0,0.0,0.0,0.0,0.0,0.0,0.0,0.0,0.0,0.0,0.0,0.0,0.0,0.0,0.0,0.0,0.0,0.0,0.0,0.0,0.0,0.0,-0.8332,-0.7995,-0.7704,-0.744,-0.7105,-0.6901,-0.6829,-0.6708,-0.6623,-0.6581,0.0,0.0,0.0,0.0,0.0,0.0,0.0,0.0,0.0,0.0,0.0,0.0,0.0,0.0,0.0,0.0,0.0,0.0,0.0,0.0,0.0,0.0,0.0,0.0,0.0,0.0,0.0,0.0,0.0,0.0,0.0,0.0,0.0,0.0,0.0,0.0,0.0,0.0,0.0,-0.9579,-0.9698,0.0,0.0,0.0,0.0,0.0,0.0,0.0,0.0,-1.0123,0.0,0.0,0.0,0.0,0.0,0.0,0.0,0.0,0.0,0.0,0.0,0.0,0.0,0.0,0.0,0.0,0.0,0.0,0.0,0.0,0.0,0.0,0.0,0.0,0.0,0.0,0.0,0.0,0.0,0.0,0.0,0.0,0.0,0.0,0.0,0.0,0.0,0.0,0.0,0.0,0.0,0.0,0.0,0.0,0.0,0.0,0.0,0.0,0.0,0.0,0.0,0.0,0.0,0.0,0.0,-0.8667,-0.834,-0.8086,-0.7938,-0.7738,-0.7529,-0.7318,-0.7231,-0.7115,0.0,0.0,0.0,0.0,0.0,0.0,0.0,0.0,0.0,0.0,0.0,0.0,0.0,0.0,0.0,0.0,0.0,0.0,0.0,0.0,0.0,0.0,0.0,0.0,0.0,0.0,0.0,0.0,0.0,0.0,0.0,0.0,0.0,0.0,0.0,0.0,0.0,0.0,0.0,0.0,-0.9776,-0.9905,-0.9905,0.0,0.0,0.0,0.0,0.0,0.0,-1.0274,-1.0349,0.0,0.0,0.0,0.0,0.0,0.0,0.0,0.0,0.0,0.0,0.0,0.0,0.0,0.0,0.0,0.0,0.0,0.0,0.0,0.0,0.0,0.0,0.0,0.0,0.0,0.0,0.0,0.0,0.0,0.0,0.0,0.0,0.0,0.0,0.0,0.0,0.0,0.0,0.0,0.0,0.0,0.0,0.0,0.0,0.0,0.0,0.0,0.0,0.0,0.0,0.0,0.0,0.0,0.0,0.0,-0.8911,-0.8741,-0.8569,-0.8488,-0.8394,-0.8207,-0.7892,-0.784,-0.7613,0.0,0.0,0.0,0.0,0.0,0.0,0.0,0.0,0.0,0.0,0.0,0.0,0.0,0.0,0.0,0.0,0.0,0.0,0.0,0.0,0.0,0.0,0.0,0.0,0.0,0.0,0.0,0.0,0.0,0.0,0.0,0.0,0.0,0.0,0.0,0.0,0.0,0.0,0.0,0.0,0.0,-1.0469,-1.0535,-1.0677,0.0,0.0,0.0,0.0,-1.0609,-1.0671,0.0,0.0,0.0,0.0,0.0,0.0,0.0,0.0,0.0,0.0,0.0,0.0,0.0,0.0,0.0,0.0,0.0,0.0,0.0,0.0,0.0,0.0,0.0,0.0,0.0,0.0,0.0,0.0,0.0,0.0,0.0,0.0,0.0,0.0,0.0,0.0,0.0,0.0,0.0,0.0,0.0,0.0,0.0,0.0,0.0,0.0,0.0,0.0,0.0,0.0,0.0,0.0,0.0,0.0,0.0,0.0,-0.8992,-0.9174,-0.9152,-0.887,-0.8822,-0.8736,-0.8604,-0.8379,-0.8098,0.0,0.0,0.0,0.0,0.0,0.0,0.0,0.0,0.0,0.0,0.0,0.0,0.0,0.0,0.0,0.0,0.0,0.0,0.0,0.0,0.0,0.0,0.0,0.0,0.0,0.0,0.0,0.0,0.0,0.0,0.0,0.0,0.0,0.0,0.0,0.0,0.0,0.0,0.0,0.0,0.0,-1.1913,-1.2027,-1.2055,-1.2139,0.0,0.0,-1.2089,-1.1547,-1.1518,0.0,0.0,0.0,0.0,0.0,0.0,0.0,0.0,0.0,0.0,0.0,0.0,0.0,0.0,0.0,0.0,0.0,0.0,0.0,0.0,0.0,0.0,0.0,0.0,0.0,0.0,0.0,0.0,0.0,0.0,0.0,0.0,0.0,0.0,0.0,0.0,0.0,0.0,0.0,0.0,0.0,0.0,0.0,0.0,0.0,0.0,0.0,0.0,0.0,0.0,0.0,0.0,0.0,0.0,0.0,-0.9703,-0.9715,-0.958,-0.9567,-0.9701,-0.9573,-0.9366,-0.923,-0.903,-0.8794,0.0,0.0,0.0,0.0,0.0,0.0,0.0,0.0,0.0,0.0,0.0,0.0,0.0,0.0,0.0,0.0,0.0,0.0,0.0,0.0,0.0,0.0,0.0,0.0,0.0,0.0,0.0,0.0,0.0,0.0,0.0,0.0,0.0,0.0,0.0,0.0,0.0,0.0,0.0,0.0,0.0,0.0,-1.2496,-1.2566,0.0,0.0,0.0,-1.2664,-1.2441,0.0,0.0,0.0,0.0,0.0,0.0,0.0,0.0,0.0,0.0,0.0,0.0,0.0,0.0,0.0,0.0,0.0,0.0,0.0,0.0,0.0,0.0,0.0,0.0,0.0,0.0,0.0,0.0,0.0,0.0,0.0,0.0,0.0,0.0,0.0,0.0,0.0,0.0,0.0,0.0,0.0,0.0,0.0,0.0,0.0,0.0,0.0,0.0,0.0,0.0,0.0,0.0,0.0,0.0,0.0,0.0,0.0,-1.0459,-1.0162,-1.0129,-1.0389,-1.0213,-1.0016,-0.9826,-0.9619,0.0,0.0,0.0,0.0,0.0,0.0,0.0,0.0,0.0,0.0,0.0,0.0,0.0,0.0,0.0,0.0,0.0,0.0,0.0,0.0,0.0,0.0,0.0,0.0,0.0,0.0,0.0,-0.7896,0.0,0.0,0.0,0.0,0.0,0.0,0.0,0.0,0.0,0.0,0.0,0.0,0.0,0.0,-1.3031,-1.3218,-1.3289,-1.3304,0.0,0.0,-1.3389,-1.3289,-1.333,-1.3287,0.0,0.0,0.0,0.0,0.0,0.0,0.0,0.0,0.0,0.0,0.0,0.0,0.0,0.0,0.0,0.0,0.0,0.0,0.0,0.0,0.0,0.0,0.0,0.0,0.0,0.0,0.0,0.0,0.0,0.0,0.0,0.0,0.0,0.0,0.0,0.0,0.0,0.0,0.0,0.0,0.0,0.0,0.0,0.0,0.0,0.0,0.0,0.0,0.0,0.0,0.0,0.0,0.0,0.0,-1.0663,-1.0855,-1.0974,-1.0897,-1.068,-1.0664,-1.0584,-1.0431,-1.0123,-0.991,0.0,0.0,0.0,0.0,0.0,0.0,0.0,0.0,0.0,0.0,0.0,0.0,0.0,0.0,0.0,0.0,0.0,0.0,0.0,0.0,0.0,0.0,0.0,0.0,0.0,0.0,0.0,0.0,0.0,0.0,0.0,0.0,0.0,0.0,0.0,0.0,0.0,0.0,0.0,0.0,0.0,-1.4453,-1.4713,-1.4713,-1.4685,0.0,-1.4854,-1.4654,-1.4113,-1.4198,-1.4079,-1.339,0.0,0.0,0.0,0.0,0.0,0.0,0.0,0.0,0.0,0.0,0.0,0.0,0.0,0.0,0.0,0.0,0.0,0.0,0.0,0.0,0.0,0.0,0.0,0.0,0.0,0.0,0.0,0.0,0.0,0.0,0.0,0.0,0.0,0.0,0.0,0.0,0.0,0.0,0.0,0.0,0.0,0.0,0.0,0.0,0.0,0.0,0.0,0.0,0.0,0.0,0.0,0.0,0.0,-1.1305,-1.1462,-1.1397,-1.1313,-1.1202,-1.1107,-1.0981,-1.0777,-1.0608,-1.0551,0.0,0.0,0.0,0.0,0.0,0.0,0.0,0.0,0.0,0.0,0.0,0.0,0.0,0.0,0.0,0.0,0.0,0.0,0.0,0.0,0.0,0.0,0.0,0.0,0.0,0.0,0.0,0.0,-1.0113,-1.0612,-1.1411,0.0,0.0,0.0,0.0,0.0,0.0,0.0,0.0,0.0,0.0,-1.489,-1.5056,-1.5086,0.0,0.0,-1.5225,-1.5182,-1.4994,-1.5067,-1.5036,-1.4758,-1.4813,0.0,0.0,0.0,0.0,0.0,0.0,0.0,0.0,0.0,0.0,0.0,0.0,0.0,0.0,0.0,0.0,0.0,0.0,0.0,0.0,0.0,0.0,0.0,0.0,0.0,0.0,0.0,0.0,0.0,0.0,0.0,0.0,0.0,0.0,0.0,0.0,0.0,0.0,0.0,0.0,0.0,0.0,0.0,0.0,0.0,0.0,0.0,0.0,0.0,0.0,0.0,0.0,-1.1892,-1.213,-1.1845,-1.1646,-1.1669,-1.1477,-1.1276,-1.1074,-1.1023,-1.1065,0.0,0.0,0.0,0.0,0.0,0.0,0.0,0.0,0.0,0.0,0.0,0.0,0.0,0.0,0.0,0.0,0.0,0.0,0.0,0.0,0.0,0.0,0.0,0.0,0.0,0.0,0.0,0.0,-1.112,-1.1708,-1.258,0.0,0.0,0.0,0.0,0.0,0.0,0.0,0.0,0.0,0.0,-1.5209,-1.5358,-1.5433,-1.5477,-1.5522,-1.5551,-1.5536,-1.558,-1.5697,-1.5755,-1.5711,0.0,0.0,0.0,0.0,0.0,0.0,0.0,0.0,0.0,0.0,0.0,0.0,0.0,0.0,0.0,0.0,0.0,0.0,0.0,0.0,0.0,0.0,0.0,0.0,0.0,0.0,0.0,-1.093,0.0,0.0,-1.1162,0.0,0.0,0.0,0.0,0.0,0.0,0.0,0.0,0.0,0.0,0.0,0.0,0.0,0.0,0.0,0.0,0.0,0.0,0.0,0.0,0.0,0.0,-1.2432,-1.2852,-1.2344,-1.2067,-1.2076,-1.1728,-1.1469,-1.1469,-1.1377,-1.1377,-1.1469,0.0,0.0,0.0,0.0,0.0,0.0,0.0,0.0,0.0,0.0,0.0,0.0,0.0,0.0,0.0,0.0,0.0,0.0,0.0,0.0,0.0,0.0,0.0,0.0,0.0,0.0,-1.2295,-1.2766,-1.3135,0.0,0.0,0.0,0.0,0.0,0.0,0.0,0.0,0.0,-1.5418,-1.5477,-1.5536,-1.577,-1.5799,-1.5799,-1.5799,-1.5827,-1.5871,-1.5799,-1.5955,-1.6067,0.0,0.0,0.0,0.0,0.0,0.0,0.0,0.0,0.0,0.0,0.0,0.0,0.0,0.0,0.0,0.0,0.0,0.0,0.0,0.0,0.0,0.0,0.0,0.0,0.0,0.0,0.0,-1.1768,-1.1984,0.0,0.0,0.0,0.0,0.0,0.0,0.0,0.0,0.0,0.0,0.0,-1.3693,-1.4038,0.0,0.0,0.0,0.0,0.0,0.0,0.0,0.0,0.0,0.0,0.0,0.0,-1.306,-1.292,-1.2735,-1.248,-1.2234,-1.2026,-1.1868,-1.1769,-1.1728,-1.1819,-1.2017,0.0,0.0,0.0,0.0,0.0,0.0,0.0,0.0,0.0,0.0,0.0,0.0,0.0,0.0,0.0,0.0,0.0,0.0,0.0,0.0,0.0,0.0,0.0,0.0,0.0,-1.2496,0.0,0.0,0.0,0.0,0.0,0.0,0.0,0.0,0.0,0.0,-1.5344,-1.5521,-1.5609,-1.5797,-1.5926,-1.5983,-1.6055,-1.6055,0.0,0.0,0.0,0.0,0.0,0.0,0.0,0.0,0.0,0.0,0.0,0.0,0.0,0.0,-1.6032,-1.5543,-1.554,-1.557,-1.5367,0.0,0.0,0.0,0.0,0.0,0.0,0.0,0.0,0.0,0.0,0.0,0.0,0.0,0.0,-1.2307,-1.2489,-1.2531,0.0,0.0,0.0,0.0,0.0,0.0,0.0,0.0,-1.4367,-1.4482,-1.4405,-1.4744,-1.4868,-1.4822,-1.4822,-1.4471,0.0,0.0,0.0,0.0,0.0,0.0,0.0,0.0,-1.343,-1.3162,-1.2978,-1.2774,-1.252,-1.2332,-1.2175,-1.2126,-1.2126,-1.2224,-1.248,-1.2578,-1.2676,0.0,0.0,0.0,0.0,0.0,0.0,0.0,0.0,0.0,0.0,0.0,0.0,0.0,0.0,0.0,0.0,0.0,0.0,0.0,0.0,0.0,0.0,0.0,-1.3022,0.0,0.0,0.0,0.0,0.0,0.0,0.0,0.0,0.0,-1.6352,-1.6413,-1.6518,-1.6636,-1.6797,-1.6928,-1.6943,0.0,0.0,0.0,0.0,0.0,0.0,0.0,-1.7216,-1.6964,-1.704,-1.7051,-1.6924,-1.7027,-1.7199,-1.7296,0.0,0.0,-1.668,-1.669,-1.6697,-1.6472,-1.6455,-1.6221,-1.5433,-1.6015,-1.6675,0.0,0.0,0.0,0.0,-1.186,0.0,0.0,0.0,-1.2316,-1.2466,0.0,-1.268,0.0,0.0,0.0,0.0,-1.4439,-1.4911,0.0,0.0,-1.5468,-1.5402,-1.5131,-1.5165,-1.5085,-1.4878,-1.489,-1.489,-1.4878,-1.474,0.0,0.0,0.0,0.0,0.0,0.0,-1.361,-1.3573,-1.3182,-1.2959,-1.2959,-1.2724,-1.2567,-1.2577,-1.2558,-1.2646,-1.29,-1.2939,-1.3007,-1.316,-1.316,0.0,0.0,0.0,0.0,0.0,0.0,0.0,0.0,0.0,0.0,0.0,0.0,0.0,0.0,0.0,0.0,0.0,0.0,0.0,0.0,-1.3304,0.0,0.0,0.0,0.0,0.0,0.0,0.0,0.0,0.0,-1.8098,-1.8049,-1.7988,-1.8129,-1.8346,0.0,0.0,0.0,0.0,-1.8768,-1.8602,-1.8738,-1.8797,-1.8797,-1.8898,-1.8744,-1.8042,0.0,0.0,-1.7338,-1.7401,-1.7555,-1.7687,-1.7816,-1.7844,-1.7664,-1.7726,-1.7941,-1.8101,-1.78,-1.7807,-1.833,-1.768,-1.7577,-1.3423,0.0,0.0,0.0,0.0,-1.2902,-1.2985,-1.3042,-1.3284,-1.3432,-1.357,-1.3788,0.0,0.0,0.0,0.0,0.0,0.0,-1.5424,-1.5537,-1.5914,-1.6044,-1.5963,-1.6337,-1.6501,-1.6416,-1.6296,-1.6224,-1.6224,-1.5992,-1.5437,-1.4534,0.0,0.0,0.0,0.0,-1.3894,-1.3641,-1.3805,-1.382,-1.3611,-1.3757,-1.3864,-1.3864,-1.3508,-1.3451,-1.3611,-1.3302,-1.3122,-1.3218,-1.3314,0.0,0.0,0.0,0.0,0.0,0.0,0.0,0.0,0.0,0.0,0.0,0.0,0.0,0.0,0.0,0.0,0.0,0.0,0.0,-1.4636,-1.4917,-1.522,0.0,0.0,0.0,0.0,0.0,0.0,0.0,0.0,0.0,-1.9955,-1.9139,-1.8589,0.0,0.0,-1.8959,-1.8972,-1.9029,-1.9058,-1.9013,-1.9058,0.0,-1.9103,-1.9211,-1.9214,-1.9018,-1.8729,-1.8493,-1.8343,-1.8057,-1.7883,-1.8057,-1.8184,-1.8266,-1.8371,-1.8313,-1.8318,-1.8495,-1.8592,-1.8741,-1.9039,-1.8939,-1.8809,-1.4292,-1.409,-1.3718,-1.3691,-1.3791,-1.3911,-1.4,-1.4138,-1.4296,-1.4454,-1.466,-1.4903,-1.5097,-1.5252,-1.5563,0.0,0.0,0.0,-1.6219,-1.6289,-1.6551,-1.6717,-1.6681,-1.6977,-1.7142,-1.7105,-1.6982,-1.6921,-1.6921,-1.6662,-1.6166,-1.5466,0.0,-1.5134,-1.4882,-1.4882,-1.4698,-1.4416,-1.4539,-1.4471,-1.4369,-1.4415,-1.4503,-1.4493,-1.418,-1.4102,-1.4246,-1.388,-1.3685,-1.3734,-1.3703,-1.38,0.0,0.0,0.0,0.0,0.0,0.0,0.0,0.0,0.0,0.0,0.0,-1.4134,-1.4225,0.0,0.0,0.0,-1.4903,-1.5082,-1.5487,-1.5761,0.0,0.0,0.0,0.0,0.0,0.0,0.0,-1.9526,-1.9822,-2.0272,-2.0959,-2.035,-1.9881,-1.9954,-2.0046,-2.0088,-2.0085,0.0,-2.0217,-2.0188,-2.0234,-2.0217,-2.0217,-2.0343,-2.0368,-2.0184,-1.9723,-1.9423,-1.9454,-1.9264,-1.9061,-1.8892,-1.8946,-1.9032,-1.8878,-1.8807,-1.8807,-1.8877,-1.9064,-1.9289,-1.9481,-1.9625,-1.9585,-1.5097,-1.5038,-1.4695,-1.4646,-1.4777,-1.4819,-1.4966,-1.5174,-1.5216,-1.5392,-1.5609,-1.5826,-1.6019,-1.6272,-1.6662,0.0,-1.7193,-1.7193,-1.7242,-1.7424,-1.746,-1.7423,-1.7252,-1.7349,-1.7286,-1.7234,-1.7223,-1.7223,-1.7234,-1.705,-1.6888,-1.6823,-1.6598,-1.63,-1.6008,-1.5906,-1.5815,-1.5609,-1.529,-1.5133,-1.5153,-1.4879,-1.4773,-1.4783,-1.4732,-1.4775,-1.487,-1.4553,-1.4466,-1.4555,-1.4435,-1.4367,-1.4485,0.0,0.0,0.0,0.0,0.0,0.0,0.0,0.0,0.0,0.0,0.0,0.0,0.0,0.0,0.0,-1.5529,0.0,-1.5843,-1.624,0.0,0.0,0.0,-1.8323,-1.8659,-1.9491,-2.0166,-2.0494,0.0,0.0,-2.1277,-2.1481,-2.1573,-2.1479,-2.1573,-2.1603,-2.1554,-2.1655,-2.1827,-2.1655,-2.1781,-2.1823,-2.1707,-2.184,-2.1793,-2.1409,-2.0941,-2.0545,-2.0605,-2.0665,-2.0541,-2.0043,-2.0095,-2.0047,-1.943,-1.9502,-1.9464,-1.9408,-1.939,-1.9495,-1.9682,-1.9839,-1.9971,-1.6093,-1.5837,-1.5735,-1.5345,-1.4829,-1.5018,-1.5122,-1.5226,-1.5444,-1.5609,-1.5815,-1.603,-1.6322,-1.665,-1.6997,-1.7144,-1.7193,-1.7302,-1.7351,-1.7436,-1.7832,-1.7963,-1.7975,-1.8358,-1.8562,-1.8522,-1.8429,-1.8389,-1.8377,-1.826,-1.8102,-1.8007,-1.7943,-1.7288,-1.603,-1.6019,-1.5866,-1.5609,-1.587,-1.6126,-1.6356,-1.6311,-1.6245,-1.6245,-1.5899,-1.5774,-1.5763,-1.5384,-1.5233,-1.5375,-1.548,-1.54,-1.523,-1.5446,0.0,0.0,0.0,0.0,0.0,0.0,0.0,0.0,0.0,-1.6328,-1.6341,0.0,-1.6589,0.0,-1.7063,-1.725,-1.7446,-1.768,0.0,0.0,-1.8833,-1.9199,-1.9456,-1.9993,-2.041,-2.0695,-2.0958,-2.123,-2.1497,-2.1664,-2.1797,-2.1853,-2.184,-2.1869,-2.2003,-2.2061,-2.2106,-2.2152,-2.2152,-2.218,-2.2197,-2.2321,-2.2358,-2.2365,-2.1915,-2.1581,-2.1639,-2.1348,-2.1075,-2.1017,-2.1133,-2.1188,-2.1125,-2.0807,-2.0517,-2.0518,-2.0124,-1.9732,-1.9892,-2.0049,-2.0161,-1.689,-1.6716,-1.6786,-1.6547,-1.6177,-1.5928,-1.5848,-1.5912,-1.6127,-1.6342,-1.6618,-1.6946,-1.7249,-1.7587,-1.7792,-1.7957,-1.8008,-1.8058,-1.8121,-1.8133,-1.8422,-1.8686,-1.8915,-1.9203,-1.948,-1.9708,-1.9653,-1.9598,-1.961,-1.9195,-1.8979,-1.8924,-1.8592,-1.7917,-1.6957,-1.683,-1.666,-1.6459,-1.6559,-1.6652,-1.6797,-1.6761,-1.6761,-1.6807,-1.6563,-1.6414,-1.6414,-1.6053,-1.5964,-1.6057,-1.6192,-1.621,-1.6049,-1.6356,-1.6551,0.0,0.0,0.0,0.0,0.0,0.0,0.0,0.0,0.0,0.0,0.0,-1.7323,-1.7528,-1.776,-1.7989,-1.8108,-1.8358,-1.8669,-1.9093,-1.9354,-1.9596,-1.9909,-2.0224,-2.0545,-2.0811,-2.1119,-2.1388,-2.1603,-2.1797,-2.1957,-2.2118,-2.2118,-2.2163,-2.2237,-2.2265,-2.2293,-2.2321,-2.2366,-2.2422,-2.246,-2.2579,-2.2755,-2.2867,-2.2768,-2.264,-2.2736,-2.2593,-2.2381,-2.2135,-2.2209,-2.2201,-2.1983,-2.1745,-2.1548,-2.1532,-2.105,-2.0473,-2.0155,-2.0169,-2.0272,-1.7595,-1.7543,-1.7668,-1.7853,-1.7975,-1.7153,-1.6899,-1.696,-1.7043,-1.7234,-1.7579,-1.7963,-1.8391,-1.872,-1.8839,-1.9036,-1.9203,-1.9203,-1.9203,-1.9203,-1.9203,-1.9444,-1.9877,-1.9877,-2.0141,-2.061,-2.0586,-2.0586,-2.0598,-2.0029,-1.9734,-1.9654,-1.9018,-1.8499,-1.8334,-1.8057,-1.7779,-1.7523,-1.719,-1.6965,-1.6874,-1.6864,-1.6864,-1.6874,-1.6864,-1.6864,-1.6864,-1.6732,-1.6666,-1.6708,-1.6814,-1.6869,-1.6912,-1.7274,-1.7593,0.0,-1.7647,0.0,0.0,0.0,0.0,0.0,0.0,0.0,0.0,-1.7502,-1.7611,-1.7747,-1.8029,-1.8268,-1.8344,-1.8669,-1.8988,-1.9302,-1.9553,-1.9777,-2.01,-2.0376,-2.0646,-2.0942,-2.123,-2.1509,-2.1708,-2.1928,-2.2101,-2.2265,-2.2366,-2.2377,-2.2349,-2.2377,-2.2432,-2.2432,-2.2497,-2.2605,-2.2712,-2.2842,-2.302,-2.3217,-2.3359,-2.3594,-2.3667,-2.384,-2.3801,-2.3254,-2.3246,-2.3191,-2.257,-2.2566,-2.2584,-2.2645,-2.2092,-2.134,-2.0628,-2.0342,-2.032,-1.7987,-1.7678,-1.7853,-1.7976,-1.8017,-1.8091,-1.7932,-1.7582,-1.7476,-1.7579,-1.7843,-1.829,-1.8795,-1.9262,-1.9526,-1.9877,-2.0298,-2.0286,-2.0286,-2.031,-2.031,-2.0358,-2.0454,-2.0466,-2.0514,-2.061,-2.061,-2.061,-2.061,-2.0457,-2.0339,-2.027,-1.9934,-1.9714,-1.9553,0.0,0.0,0.0,-1.7323,-1.7211,-1.7211,-1.7211,-1.7211,-1.7211,-1.7312,0.0,-1.7357,-1.7457,-1.7555,-1.7773,-1.7801,0.0,0.0,0.0,0.0,0.0,0.0,0.0,0.0,0.0,0.0,0.0,-1.9394,-1.8998,-1.7773,-1.7814,-1.7962,-1.8083,-1.8321,-1.8517,-1.8707,-1.8898,-1.9191,-1.9501,-1.9741,-2.0025,-2.0304,-2.0613,-2.0942,-2.1183,-2.1464,-2.1708,-2.184,-2.2077,-2.2265,-2.2293,-2.2477,-2.2552,-2.2552,-2.2569,-2.2623,-2.2729,-2.2764,-2.2825,-2.2927,-2.307,-2.3241,-2.3394,-2.362,-2.3774,-2.3935,-2.4133,-2.4248,-2.4077,-2.4286,-2.4407,-2.4304,-2.3935,-2.356,-2.3621,-2.3045,-2.228,-2.1424,-2.0785,-2.0399,-1.8729,-1.8531,-1.8722,-1.8839,0.0,-1.8856,-1.8754,-1.8544,-1.835,-1.8474,-1.8817,-1.9156,-1.9545,-1.9918,-2.0088,-2.0346,-2.061,-2.0598,-2.0598,-2.061,-2.0598,-2.0742,-2.0995,-2.1007,-2.1139,-2.1392,-2.1392,-2.1392,-2.138,-2.1127,-2.0936,-2.0866,-2.0486,-2.018,-2.0005,-1.9595,-1.9059,-1.8324,-1.8267,-1.8209,-1.822,-1.8209,-1.822,-1.822,-1.8324,0.0,0.0,0.0,0.0,0.0,0.0,0.0,0.0,-1.8836,-1.9019,-1.9106,-1.9179,-1.9308,-1.9622,-1.9687,-1.9748,-1.9867,-1.9998,-1.9792,-1.9002,-1.9073,-1.9238,-1.9376,-1.9256,-1.9269,-1.9425,-1.9342,-1.9376,-1.9654,-1.9904,-2.0166,-2.0441,-2.0712,-2.0974,-2.1214,-2.1495,-2.1768,-2.1911,-2.2147,-2.2349,-2.2487,-2.2579,-2.2685,-2.2738,-2.2712,-2.2738,-2.2893,-2.297,-2.3045,-2.3144,-2.3313,-2.3458,-2.362,-2.3777,-2.3923,-2.4115,-2.4284,-2.4445,-2.4526,-2.4685,-2.4818,-2.4915,-2.4676,-2.4514,-2.4513,-2.3984,-2.3385,-2.2893,-2.195,-2.1104,-1.9351,-1.9351,-1.9539,-1.9736,-1.9835,-1.9544,-1.9497,-1.9569,-1.9183,0.0,0.0,-1.9995,-2.0287,-2.0544,-2.0684,-2.0815,-2.0899,-2.0899,-2.0887,-2.0887,-2.0863,-2.1103,-2.1536,-2.1548,-2.1777,-2.2185,-2.2197,-2.2197,-2.2173,-2.1753,-2.1548,-2.15,-2.0961,-2.0522,-2.0332,-1.993,-1.9682,-1.9569,-1.934,-1.919,-1.919,-1.919,-1.919,-1.919,-1.925,-1.931,-1.9298,-1.9194,-1.9148,-1.9182,-1.9285,-1.9281,-1.9303,-1.9701,-2.0015,-2.0067,-2.0008,-2.0136,-2.0456,-2.0243,-2.0182,-2.0418,-2.055,-2.0482,-2.0286,-2.0358,-2.0472,-2.0641,-2.0335,-2.0193,-2.0302,-2.0015,-1.9923,-2.0186,-2.0381,-2.0659,-2.0917,-2.1142,-2.1487,-2.1633,-2.1884,-2.201,-2.2262,-2.2333,-2.2432,-2.2649,-2.2738,-2.2816,-2.2919,-2.2902,-2.2902,-2.302,-2.3102,-2.3217,-2.3319,-2.3481,-2.3664,-2.3834,-2.3905,-2.4043,-2.4266,-2.4445,-2.4596,-2.4673,-2.4837,-2.4942,-2.5031,-2.5118,-2.5253,-2.5313,-2.4836,-2.4365,-2.4354,-2.3271,-2.2213,-1.955,-1.955,-1.9802,-1.9868,-1.9868,-1.9944,-2.0171,-2.0426,-1.9582,-1.9429,-1.9901,-2.0065,-2.0476,-2.1093,-2.1224,-2.1548,-2.1957,-2.1969,-2.1969,-2.1969,-2.1969,-2.2005,-2.2077,-2.2077,-2.2125,-2.2185,-2.2197,-2.2197,-2.2185,-2.2125,-2.2077,-2.2065,-2.1808,-2.154,-2.1206,-2.1003,-2.0911,-2.0865,-1.9787,-1.919,-1.919,-1.919,-1.919,-1.925,-1.9499,-1.9643,-1.9643,-1.989,-2.0145,-2.0339,-2.0382,-2.0421,-2.0482,-2.0539,-2.0576,-2.0511,-2.0581,-2.0837,-2.1253,-2.1411,-2.1638,-2.2009,-2.207,-2.1631,-2.0499,-2.0472,-2.0656,-2.0824,-2.0918,-2.1009,-2.1211,-2.1277,-2.1446,-2.1782,-2.2015,-2.2269,-2.2445,-2.2713,-2.2957,-2.3193,-2.3089,-2.2969,-2.3114,-2.2931,-2.277,-2.2763,-2.3094,-2.3082,-2.326,-2.3095,-2.3095,-2.3168,-2.3289,-2.3407,-2.3526,-2.3624,-2.3774,-2.4016,-2.4098,-2.4211,-2.4428,-2.4564,-2.4707,-2.4783,-2.4907,-2.5019,-2.5138,-2.5283,-2.536,-2.5429,-2.5277,-2.5253,-2.5289,-2.4358,-2.3485,-2.0122,-2.0157,-2.0052,-2.0009,-2.0009,-2.0205,-2.041,-2.07,-2.0438,-2.0481,-2.0871,-2.092,-2.1233,-2.1752,-2.1837,-2.1957,-2.2197,-2.2197,-2.2197,-2.2197,-2.2197,-2.2342,-2.2606,-2.263,-2.2775,-2.3039,-2.3051,-2.2895,-2.2642,-2.2618,-2.2474,-2.2209,-2.2025,-2.1765,-2.1537,-2.1411,-2.1273,-2.121,-2.0586,-2.0296,-2.0284,-2.0346,-2.0396,-2.0396,-2.0665,-2.0787,-2.0787,-2.0842,-2.0925,-2.1019,-2.1031,-2.1045,-2.1129,-2.139,-2.1403,-2.1146,-2.1449,-2.1587,-2.1485,-2.1902,-2.2231,-2.2356,-2.2601,-2.2448,-2.1829,-2.1815,-2.1917,-2.2062,-2.1942,-2.1931,-2.2081,-2.2033,-2.2095,-2.2339,-2.2565,-2.2823,-2.304,-2.3253,-2.3515,-2.3769,-2.3782,-2.3832,-2.4045,-2.3961,-2.3953,-2.4046,-2.4217,-2.44,-2.4534,-2.4222,-2.3815,-2.3448,-2.3435,-2.3549,-2.3685,-2.3834,-2.3978,-2.419,-2.4303,-2.4409,-2.4582,-2.4729,-2.4821,-2.4898,-2.5,-2.5091,-2.5222,-2.5332,-2.5412,-2.5483,-2.5538,-2.5579,-2.5526,-2.5197,-2.4617,-2.0888,-2.0777,-2.0553,-2.0478,-2.0544,-2.0731,-2.0928,-2.1124,-2.1449,-2.1771,-2.2016,-2.1804,-2.1874,-2.2197,-2.2306,-2.2378,-2.2378,-2.2498,-2.2558,-2.2546,-2.2546,-2.2775,-2.3123,-2.3159,-2.3376,-2.3803,-2.3839,-2.3556,-2.3195,-2.3159,-2.2955,-2.2582,-2.236,-2.2111,-2.1938,-2.1713,-2.1527,-2.1308,-2.1285,-2.1221,-2.1285,-2.1336,-2.14,-2.1474,-2.1612,-2.1761,-2.18,-2.1667,-2.1632,-2.174,-2.1703,-2.1763,-2.1807,-2.2172,-2.2255,-2.1891,-2.2266,-2.2351,-2.2035,-2.2334,-2.2559,-2.2509,-2.2768,-2.2949,-2.2979,-2.3024,-2.3068,-2.3157,-2.289,-2.2835,-2.2957,-2.2863,-2.2786,-2.3032,-2.3242,-2.3544,-2.3699,-2.3913,-2.4158,-2.4397,-2.4561,-2.4683,-2.4853,-2.4944,-2.4977,-2.515,-2.5401,-2.5605,-2.5681,-2.5319,-2.4736,-2.4247,-2.3862,-2.3703,-2.3834,-2.3996,-2.4171,-2.4321,-2.4446,-2.453,-2.4679,-2.4828,-2.4932,-2.498,-2.5063,-2.5168,-2.5302,-2.5388,-2.5453,-2.5511,-2.5562,-2.5605,-2.5683,-2.5648,-2.543,-2.1666,-2.1527,-2.1439,-2.152,-2.1694,-2.1889,-2.2003,-2.2219,-2.2671,-2.294,-2.2932,-2.2214,-2.2023,-2.2258,-2.2702,-2.2907,-2.2943,-2.34,-2.3592,-2.358,-2.3628,-2.3652,-2.3701,-2.3767,-2.3725,-2.3809,-2.3899,-2.3875,-2.3767,-2.3743,-2.3718,-2.3628,-2.3484,-2.3066,-2.2633,-2.2315,-2.1975,-2.1647,-2.1474,-2.1388,-2.1388,-2.1388,-2.1474,-2.1698,-2.1812,-2.1937,-2.2123,-2.2261,-2.247,-2.2774,-2.282,-2.2867,-2.2725,-2.2976,-2.2994,-2.2738,-2.3041,-2.3132,-2.3,-2.3124,-2.3093,-2.2886,-2.2889,-2.3038,-2.3216,-2.3436,-2.3523,-2.348,-2.3463,-2.3588,-2.3903,-2.4004,-2.4141,-2.4508,-2.4634,-2.4932,-2.5234,-2.5554,-2.5793,-2.6044,-2.5714,-2.5603,-2.5695,-2.554,-2.5349,-2.5647,-2.5808,-2.5941,-2.6096,-2.5975,-2.5913,-2.5577,-2.4779,-2.4034,-2.4103,-2.413,-2.4431,-2.4559,-2.4569,-2.4669,-2.4798,-2.4861,-2.4991,-2.5032,-2.5118,-2.5239,-2.5361,-2.5451,-2.5495,-2.5557,-2.559,-2.5632,-2.5684,-2.5696,-2.5566,-2.2432,-2.2329,-2.2051,-2.2009,-2.2067,-2.2205,-2.232,-2.2469,-2.2945,-2.3147,-2.3167,-2.3096,-2.3059,-2.3147,-2.3352,-2.3448,-2.346,-2.3664,-2.3839,-2.3839,-2.3839,-2.3917,-2.4194,-2.4218,-2.4362,-2.4662,-2.4675,-2.4587,-2.434,-2.4038,-2.3893,-2.3839,-2.3694,-2.352,-2.3173,-2.3041,-2.2869,-2.2615,-2.2603,-2.258,-2.2563,-2.2044,-2.18,-2.2011,-2.2111,-2.2297,-2.2506,-2.2616,-2.2787,-2.303,-2.321,-2.3348,-2.3541,-2.3733,-2.3755,-2.3581,-2.3628,-2.3687,-2.3773,-2.3664,-2.3525,-2.3499,-2.3347,-2.3319,-2.3407,-2.361,-2.3739,-2.3867,-2.3967,-2.4078,-2.4219,-2.4426,-2.4686,-2.4966,-2.5123,-2.5394,-2.5749,-2.595,-2.6187,-2.647,-2.6454,-2.6465,-2.6576,-2.6584,-2.6644,-2.6827,-2.6922,-2.6996,-2.7236,-2.6974,-2.677,-2.6712,-2.5959,-2.5448,-2.5406,-2.5566,-2.5503,-2.5317,-2.531,-2.5319,-2.4968,-2.4922,-2.5018,-2.5101,-2.5164,-2.5271,-2.538,-2.5459,-2.551,-2.5576,-2.5639,-2.5678,-2.5689,-2.5701,-2.5701,-2.3198,-2.3082,-2.2745,-2.2621,-2.2691,-2.275,-2.2878,-2.3017,-2.3443,-2.3638,-2.3762,-2.4126,-2.4328,-2.4237,-2.4116,-2.4111,-2.4123,-2.4335,-2.4408,-2.4408,-2.4408,-2.4534,-2.486,-2.4885,-2.509,-2.5405,-2.5441,-2.5329,-2.5091,-2.4657,-2.4384,-2.4261,-2.4261,-2.4042,-2.3788,-2.3764,-2.3637,-2.3439,-2.3372,-2.3427,-2.3508,-2.2874,-2.2543,-2.2681,-2.287,-2.2995,-2.3195,-2.3331,-2.3354,-2.3376,-2.3577,-2.3798,-2.4054,-2.4261,-2.4406,-2.4463,-2.4457,-2.4488,-2.4589,-2.4382,-2.4264,-2.4203,-2.3969,-2.3792,-2.3835,-2.3874,-2.3925,-2.412,-2.4287,-2.4385,-2.4482,-2.4701,-2.4902,-2.5045,-2.5317,-2.5584,-2.5881,-2.6115,-2.6382,-2.6674,-2.6808,-2.704,-2.7198,-2.7317,-2.7465,-2.7701,-2.7869,-2.8081,-2.8219,-2.7833,-2.7569,-2.7707,-2.7318,-2.6899,-2.6661,-2.6473,-2.6411,-2.6339,-2.6202,-2.6115,-2.5607,-2.5551,-2.5418,-2.5703,-2.5458,-2.5283,-2.5369,-2.5464,-2.5538,-2.5599,-2.5652,-2.5693,-2.5697,-2.5703,-2.57,-2.3936,-2.3548,-2.3526,-2.3627,-2.3818,-2.3784,-2.4024,-2.4327,-2.4589,-2.4826,-2.4968,-2.5262,-2.5521,-2.5436,-2.4973,-2.4847,-2.5068,-2.5473,-2.5681,-2.5669,-2.5706,-2.5755,-2.5861,-2.5861,-2.5873,-2.5828,-2.584,-2.5804,-2.5755,-2.5591,-2.5545,-2.5496,-2.5226,-2.4951,-2.4486,-2.4369,-2.413,-2.3862,-2.3747,-2.3742,-2.3996,-2.3935,-2.3952,-2.3952,-2.4124,-2.4205,-2.4424,-2.4493,-2.4432,-2.414,-2.4258,-2.4282,-2.4151,-2.4461,-2.4835,-2.5342,-2.5645,-2.5621,-2.5454,-2.5495,-2.5471,-2.5158,-2.4741,-2.4507,-2.4567,-2.4306,-2.4143,-2.4261,-2.4467,-2.463,-2.4726,-2.4886,-2.5084,-2.5256,-2.5448,-2.5696,-2.599,-2.626,-2.6453,-2.6691,-2.694,-2.7166,-2.7434,-2.7496,-2.7677,-2.7882,-2.8014,-2.8081,-2.8327,-2.8308,-2.834,-2.8499,-2.8452,-2.8218,-2.7059,-2.7069,-2.706,-2.6935,-2.706,-2.7069,-2.6987,-2.684,-2.6568,-2.6228,-2.5817,-2.5572,-2.5462,-2.5464,-2.5562,-2.563,-2.566,-2.5696,-2.5697,-2.5703,-2.5697,-2.4261,-2.397,-2.397,-2.4127,-2.4273,-2.4273,-2.4429,-2.4718,-2.4909,-2.5064,-2.5111,-2.5465,-2.5676,-2.5816,-2.5701,-2.5697,-2.564,-2.5824,-2.5923,-2.5923,-2.5935,-2.5935,-2.591,-2.5943,-2.5943,-2.591,-2.5923,-2.5923,-2.591,-2.591,-2.5828,-2.5618,-2.5535,-2.5344,-2.5047,-2.4953,-2.4939,-2.4921,-2.4897,-2.4966,-2.5147,-2.5333,-2.5456,-2.5518,-2.495,-2.473,-2.4949,-2.4988,-2.5077,-2.5088,-2.4892,-2.476,-2.4919,-2.5064,-2.5313,-2.5578,-2.5907,-2.6065,-2.6088,-2.5995,-2.5956,-2.5952,-2.5488,-2.5076,-2.4837,-2.4669,-2.4582,-2.4482,-2.462,-2.4806,-2.495,-2.5029,-2.5146,-2.5355,-2.5546,-2.5791,-2.6118,-2.64,-2.6623,-2.6876,-2.7137,-2.7359,-2.7448,-2.7569,-2.7719,-2.7957,-2.8042,-2.8154,-2.8345,-2.8424,-2.8484,-2.8687,-2.8767,-2.8699,-2.8489,-2.8329,-2.8283,-2.7978,-2.7866,-2.7667,-2.7513,-2.7438,-2.7204,-2.717,-2.6636,-2.616,-2.6125,-2.5673,-2.5721,-2.5648,-2.5694,-2.5696,-2.5694,-2.5703,-2.5698,-2.449,-2.4418,-2.4418,-2.449,-2.4562,-2.4574,-2.4706,-2.4933,-2.5052,-2.5111,-2.5253,-2.5535,-2.5758,-2.591,-2.6188,-2.6188,-2.6107,-2.6107,-2.6119,-2.6119,-2.6074,-2.6062,-2.6107,-2.607,-2.607,-2.6107,-2.6119,-2.6119,-2.6119,-2.6201,-2.605,-2.5828,-2.5758,-2.5606,-2.5523,-2.5465,-2.5535,-2.5688,-2.5688,-2.5746,-2.5992,-2.6188,-2.6314,-2.6395,-2.5886,-2.565,-2.5728,-2.578,-2.5859,-2.5882,-2.5641,-2.5493,-2.5534,-2.5572,-2.5633,-2.5798,-2.6002,-2.6272,-2.6534,-2.6447,-2.6482,-2.6653,-2.6221,-2.5766,-2.55,-2.5439,-2.5218,-2.5025,-2.507,-2.521,-2.5116,-2.5185,-2.5246,-2.547,-2.568,-2.5921,-2.626,-2.6521,-2.6809,-2.7072,-2.7282,-2.7421,-2.7526,-2.7612,-2.7777,-2.7968,-2.8071,-2.8182,-2.8371,-2.8424,-2.8502,-2.8712,-2.8785,-2.8881,-2.8846,-2.8802,-2.8934,-2.8724,-2.8652,-2.8401,-2.8228,-2.8099,-2.8,-2.7987,-2.7676,-2.7123,-2.6575,-2.6062,-2.5829,-2.5734,-2.5701,-2.5698,-2.5697,-2.5703,-2.5698,-2.479,-2.4801,-2.4801,-2.479,-2.479,-2.479,-2.4921,-2.5123,-2.5123,-2.5182,-2.5324,-2.5688,-2.591,-2.598,-2.6327,-2.6452,-2.6452,-2.6452,-2.6452,-2.6452,-2.6452,-2.6452,-2.6452,-2.6452,-2.644,-2.6452,-2.6452,-2.6452,-2.6452,-2.6327,-2.6201,-2.6131,-2.598,-2.5898,-2.591,-2.584,-2.591,-2.5898,-2.591,-2.598,-2.6201,-2.6371,-2.6496,-2.6714,-2.6963,-2.6992,-2.6921,-2.6938,-2.6854,-2.6713,-2.663,-2.6401,-2.5982,-2.584,-2.5757,-2.5907,-2.6179,-2.6433,-2.6779,-2.6997,-2.7115,-2.7208,-2.6912,-2.6702,-2.6667,-2.6397,-2.6043,-2.5777,-2.5884,-2.5812,-2.533,-2.5374,-2.5551,-2.5616,-2.5807,-2.6046,-2.633,-2.6674,-2.7024,-2.7282,-2.7407,-2.7469,-2.7557,-2.7689,-2.7806,-2.7968,-2.8071,-2.8164,-2.8327,-2.8398,-2.8502,-2.8662,-2.8761,-2.8858,-2.8975,-2.9093,-2.9249,-2.9378,-2.9401,-2.9305,-2.9231,-2.9091,-2.894,-2.8855,-2.8439,-2.7865,-2.68,-2.63,-2.5936,-2.5816,-2.5759,-2.5698,-2.5696,-2.5703,-2.5698,-2.4921,-2.4801,-2.4801,-2.4849,-2.4992,-2.4981,-2.5111,-2.5241,-2.5253,-2.5312,-2.5523,-2.5758,-2.598,-2.6131,-2.6396,-2.6521,-2.6521,-2.6521,-2.6521,-2.6521,-2.6521,-2.6521,-2.6521,-2.6521,-2.6521,-2.6521,-2.6521,-2.6521,-2.6465,-2.6477,-2.6339,-2.6201,-2.6144,-2.605,-2.591,-2.591,-2.598,-2.6062,-2.6131,-2.627,-2.6521,-2.6577,-2.6782,-2.7066,-2.7268,-2.7268,-2.7335,-2.731,-2.7352,-2.7433,-2.7218,-2.6787,-2.6366,-2.6299,-2.6204,-2.6127,-2.6258,-2.6592,-2.6899,-2.7196,-2.7386,-2.7494,-2.7415,-2.7263,-2.7094,-2.704,-2.681,-2.6517,-2.6619,-2.6602,-2.611,-2.6133,-2.6134,-2.5745,-2.5864,-2.6134,-2.6434,-2.6742,-2.7089,-2.7345,-2.7421,-2.7496,-2.7587,-2.7707,-2.7871,-2.7986,-2.8071,-2.8154,-2.83,-2.8353,-2.8476,-2.8612,-2.8712,-2.8834,-2.8929,-2.9089,-2.9265,-2.9431,-2.955,-2.9738,-2.9763,-2.9798,-2.9689,-2.95,-2.9085,-2.8424,-2.7353,-2.6598,-2.6252,-2.5894,-2.5779,-2.5737,-2.5711,-2.5702,-2.5701,-2.5111,-2.4992,-2.4992,-2.504,-2.5182,-2.5182,-2.5253,-2.5312,-2.5312,-2.5382,-2.5606,-2.584,-2.605,-2.6201,-2.6396,-2.6452,-2.6521,-2.6521,-2.6521,-2.6521,-2.6521,-2.6521,-2.6521,-2.6521,-2.6521,-2.6521,-2.6521,-2.6521,-2.6521,-2.6452,-2.6477,-2.6339,-2.6339,-2.627,-2.6119,-2.6107,-2.6188,-2.6339,-2.6396,-2.6533,-2.6794,-2.6863,-2.7053,-2.7268,-2.7335,-2.7456,-2.759,-2.759,-2.7723,-2.7828,-2.7699,-2.7462,-2.7156,-2.6916,-2.668,-2.659,-2.6615,-2.6765,-2.7041,-2.7299,-2.7452,-2.7575,-2.774,-2.7705,-2.7473,-2.767,-2.7643,-2.7219,-2.7415,-2.7402,-2.6894,-2.6897,-2.6756,-2.6211,-2.6085,-2.6258,-2.6606,-2.6876,-2.7122,-2.7345,-2.7452,-2.7544,-2.7635,-2.7771,-2.7917,-2.7986,-2.8071,-2.8136,-2.8273,-2.8353,-2.8458,-2.8562,-2.8712,-2.881,-2.8905,-2.9067,-2.924,-2.937,-2.9511,-2.9701,-2.9822,-2.9899,-2.9889,-2.9832,-2.9531,-2.912,-2.8148,-2.7194,-2.6617,-2.6275,-2.5987,-2.5735,-2.5689,-2.57,-2.5703,-2.5312,-2.5312,-2.5312,-2.5312,-2.5312,-2.5312,-2.5312,-2.5312,-2.5312,-2.5465,-2.5676,-2.584,-2.6062,-2.627,-2.6396,-2.6521,-2.6521,-2.6521,-2.6521,-2.6521,-2.6521,-2.6521,-2.6521,-2.6521,-2.6521,-2.6521,-2.6521,-2.6521,-2.6521,-2.6521,-2.6521,-2.6465,-2.6465,-2.6533,-2.6452,-2.6533,-2.6521,-2.6658,-2.6726,-2.6807,-2.7024,-2.7134,-2.7268,-2.7335,-2.7469,-2.759,-2.7723,-2.7855,-2.7921,-2.813,-2.8211,-2.8304,-2.8168,-2.7553,-2.7131,-2.7183,-2.7006,-2.6995,-2.7196,-2.735,-2.7488,-2.7575,-2.774,-2.7855,-2.7929,-2.8179,-2.8279,-2.7843,-2.817,-2.819,-2.7672,-2.7662,-2.751,-2.7044,-2.6561,-2.6484,-2.6876,-2.6975,-2.7105,-2.7313,-2.7452,-2.7509,-2.7587,-2.7754,-2.7871,-2.7986,-2.8025,-2.8136,-2.8246,-2.8327,-2.8406,-2.8536,-2.8662,-2.8761,-2.8834,-2.9021,-2.92,-2.9347,-2.9471,-2.9645,-2.9842,-2.9956,-3.0075,-3.0037,-2.9965,-2.9554,-2.9004,-2.8035,-2.7354,-2.7075,-2.6638,-2.6002,-2.5805,-2.5932,-2.5703,-2.5465,-2.53,-2.5312,-2.5312,-2.5312,-2.5312,-2.5312,-2.5312,-2.5465,-2.5606,-2.584,-2.6062,-2.6201,-2.6396,-2.6452,-2.6521,-2.6521,-2.6521,-2.6521,-2.6521,-2.6521,-2.6521,-2.6521,-2.6521,-2.6521,-2.6521,-2.6521,-2.6521,-2.6521,-2.6521,-2.6521,-2.6521,-2.6533,-2.6521,-2.6645,-2.6645,-2.6726,-2.6863,-2.6943,-2.7011,-2.7214,-2.7268,-2.7335,-2.7469,-2.7469,-2.759,-2.7855,-2.8183,-2.8392,-2.8457,-2.8848,-2.8878,-2.8479,-2.7989,-2.7669,-2.7463,-2.7186,-2.7055,-2.7299,-2.7488,-2.7575,-2.764,-2.779,-2.7955,-2.802,-2.8444,-2.8654,-2.8607,-2.8914,-2.891,-2.8361,-2.844,-2.8388,-2.796,-2.7122,-2.6604,-2.6809,-2.6909,-2.7072,-2.7247,-2.7359,-2.7483,-2.7574,-2.7665,-2.7754,-2.7917,-2.7986,-2.8053,-2.8182,-2.8273,-2.8353,-2.845,-2.8536,-2.8662,-2.881,-2.8998,-2.9156,-2.9283,-2.9431,-2.9589,-2.9806,-2.9988,-3.0133,-3.0215,-3.0243,-2.9951,-2.955,-2.8888,-2.8424,-2.7896,-2.7253,-2.6659,-2.652,-2.6513,-2.5937,-2.5453,-2.5312,-2.5312,-2.5312,-2.5312,-2.5312,-2.5382,-2.5453,-2.5535,-2.5758,-2.598,-2.6131,-2.6327,-2.6465,-2.6521,-2.6521,-2.6521,-2.6521,-2.6521,-2.6521,-2.6521,-2.6521,-2.6521,-2.6521,-2.6521,-2.6521,-2.6521,-2.6521,-2.6521,-2.6521,-2.6521,-2.6521,-2.6533,-2.6577,-2.6714,-2.6782,-2.6943,-2.7079,-2.7146,-2.7214,-2.7403,-2.7403,-2.7403,-2.7536,-2.759,-2.7789,-2.8118,-2.8587,-2.878,-2.8908,-2.9149,-2.9233,-2.904,-2.8644,-2.8326,-2.7977,-2.7627,-2.7468,-2.7395,-2.7524,-2.7575,-2.7625,-2.7855,-2.7955,-2.8103,-2.846,-2.881,-2.8826,-2.9245,-2.9249,-2.9002,-2.8984,-2.8977,-2.8685,-2.7944,-2.736,-2.7198,-2.7402,-2.7331,-2.7272,-2.7279,-2.7438,-2.7557,-2.7587,-2.7694,-2.7859,-2.7946,-2.8014,-2.8099,-2.8209,-2.83,-2.8406,-2.8536,-2.8687,-2.8834,-2.9021,-2.92,-2.9326,-2.9472,-2.9626,-2.9806,-3.0003,-3.0133,-3.0279,-3.0386,-3.0346,-2.9969,-2.9582,-2.9103,-2.8526,-2.7868,-2.7452,-2.7295,-2.6841,-2.6248,-2.5453,-2.5312,-2.5312,-2.5312,-2.5312,-2.5312,-2.5382,-2.5606,-2.5618,-2.584,-2.6144,-2.6201,-2.6327,-2.6521,-2.6521,-2.6521,-2.6521,-2.6521,-2.6521,-2.6521,-2.6521,-2.6521,-2.6521,-2.6521,-2.6521,-2.6521,-2.6521,-2.6521,-2.6521,-2.6521,-2.6521,-2.6521,-2.6658,-2.6714,-2.685,-2.693,-2.7146,-2.7281,-2.7335,-2.7335,-2.7469,-2.7523,-2.7523,-2.759,-2.7855,-2.8118,-2.8509,-2.8908,-2.9162,-2.9162,-2.9338,-2.956,-2.9619,-2.932,-2.9014,-2.8711,-2.8364,-2.8045,-2.7669,-2.7733,-2.7649,-2.767,-2.784,-2.8005,-2.8103,-2.8508,-2.881,-2.881,-2.9199,-2.947,-2.9553,-2.9371,-2.9395,-2.9362,-2.9076,-2.8649,-2.8176,-2.8134,-2.793,-2.731,-2.7402,-2.7511,-2.75,-2.7557,-2.7665,-2.7754,-2.7871,-2.7986,-2.8088,-2.8172,-2.8291,-2.8406,-2.8562,-2.8694,-2.8881,-2.9062,-2.924,-2.9388,-2.9551,-2.9699,-2.9874,-3.0034,-3.0147,-3.0267,-3.0371,-3.0449,-3.0424,-3.0042,-2.9652,-2.935,-2.8832,-2.8361,-2.7939,-2.7229,-2.6597,-2.5606,-2.5312,-2.5312,-2.5312,-2.5312,-2.5312,-2.5382,-2.5606,-2.5758,-2.5992,-2.6201,-2.6339,-2.6465,-2.6521,-2.6521,-2.6521,-2.6521,-2.6521,-2.6521,-2.6521,-2.6521,-2.6521,-2.6533,-2.6559,-2.6533,-2.6533,-2.6521,-2.6521,-2.6533,-2.6521,-2.6589,-2.6658,-2.6726,-2.685,-2.7134,-2.7214,-2.7281,-2.7403,-2.7456,-2.7469,-2.7536,-2.7656,-2.7723,-2.7789,-2.8183,-2.8457,-2.8716,-2.9162,-2.9415,-2.9415,-2.9588,-2.9747,-2.9771,-2.9571,-2.945,-2.9391,-2.9119,-2.8719,-2.8442,-2.8353,-2.8158,-2.782,-2.7976,-2.8005,-2.802,-2.8508,-2.8763,-2.8889,-2.9215,-2.9608,-2.9913,-2.9972,-2.9978,-3.0046,-3.0111,-2.9905,-2.9425,-2.9042,-2.8594,-2.8101,-2.7945,-2.7887,-2.7528,-2.757,-2.7644,-2.7712,-2.7813,-2.7957,-2.8088,-2.819,-2.8309,-2.8432,-2.8562,-2.8737,-2.8929,-2.9089,-2.9286,-2.947,-2.9626,-2.977,-2.9924,-3.0049,-3.0166,-3.026,-3.0355,-3.0436,-3.051,-3.0539,-3.0172,-2.9978,-2.9814,-2.9522,-2.8984,-2.8025,-2.6768,-2.5746,-2.5453,-2.5312,-2.5312,-2.5312,-2.5394,-2.5548,-2.577,-2.598,-2.6131,-2.6327,-2.6465,-2.6521,-2.6521,-2.6521,-2.6521,-2.6521,-2.6521,-2.6521,-2.6521,-2.6521,-2.6521,-2.6609,-2.6747,-2.6741,-2.6596,-2.6521,-2.6521,-2.6589,-2.6602,-2.6658,-2.6863,-2.693,-2.7066,-2.7268,-2.7335,-2.739,-2.7523,-2.759,-2.7656,-2.7656,-2.7868,-2.8066,-2.8197,-2.8457,-2.8716,-2.9099,-2.9415,-2.9602,-2.9727,-2.9884,-3.0007,-2.9993,-2.9949,-2.9958,-2.9884,-2.9805,-2.9481,-2.9182,-2.9041,-2.8906,-2.8554,-2.8505,-2.8455,-2.8469,-2.8724,-2.8763,-2.8889,-2.9199,-2.9697,-3.0162,-3.0189,-3.0316,-3.0485,-3.0609,-3.0533,-3.0252,-2.9846,-2.9268,-2.8799,-2.8665,-2.8423,-2.8159,-2.8011,-2.7753,-2.7857,-2.7883,-2.801,-2.8071,-2.82,-2.8345,-2.8458,-2.8587,-2.8737,-2.8952,-2.9156,-2.9372,-2.955,-2.9738,-2.9859,-2.9975,-3.0083,-3.0166,-3.0266,-3.0343,-3.0402,-3.046,-3.053,-3.0621,-3.0431,-3.0327,-3.0448,-3.0006,-2.8742,-2.7288,-2.5758,-2.5606,-2.5382,-2.53,-2.5382,-2.5535,-2.5712,-2.5947,-2.6156,-2.6258,-2.6465,-2.6521,-2.6521,-2.6521,-2.6521,-2.6521,-2.6521,-2.6521,-2.6521,-2.6521,-2.6766,-2.6804,-2.6918,-2.7233,-2.7372,-2.6892,-2.6955,-2.7,-2.6942,-2.6922,-2.7016,-2.705,-2.7214,-2.7335,-2.7403,-2.7469,-2.759,-2.7669,-2.7802,-2.7855,-2.7921,-2.8066,-2.8341,-2.8587,-2.878,-2.9035,-2.9415,-2.9665,-2.9865,-3.0111,-3.0266,-3.028,-3.0294,-3.0433,-3.0572,-3.0249,-3.0377,-3.0205,-2.9809,-2.9699,-2.9654,-2.9648,-2.9365,-2.9204,-2.9139,-2.9092,-2.9074,-2.9108,-2.9342,-2.9697,-3.0162,-3.0205,-3.0316,-3.0485,-3.0609,-3.0733,-3.0794,-3.0409,-2.9939,-2.9459,-2.9382,-2.9196,-2.8903,-2.8687,-2.8296,-2.8019,-2.8047,-2.8081,-2.8142,-2.8254,-2.8416,-2.8518,-2.8644,-2.8858,-2.9067,-2.9225,-2.9433,-2.9589,-2.9774,-2.9895,-2.9991,-3.0064,-3.0166,-3.0266,-3.033,-3.0383,-3.0449,-3.0521,-3.0593,-3.0676,-3.0685,-3.0642,-3.0072,-2.9299,-2.7805,-2.5746,-2.5606,-2.5382,-2.5382,-2.5535,-2.5606,-2.584,-2.6144,-2.6201,-2.6327,-2.6465,-2.6521,-2.6521,-2.6521,-2.6521,-2.6521,-2.6521,-2.6571,-2.6596,-2.6754,-2.7101,-2.7411,-2.7525,-2.8053,-2.8316,-2.8303,-2.8227,-2.8035,-2.771,-2.769,-2.7623,-2.7343,-2.7387,-2.7522,-2.7656,-2.7709,-2.7802,-2.7934,-2.8013,-2.8079,-2.8131,-2.8406,-2.8651,-2.8972,-2.9226,-2.9415,-2.9665,-2.996,-3.0158,-3.0172,-3.0401,-3.0522,-3.0522,-3.0702,-3.0807,-3.0881,-3.0967,-3.0842,-3.0421,-3.0357,-3.0058,-2.9768,-2.9758,-2.9856,-2.9794,-2.9709,-2.9604,-2.9547,-2.9546,-2.9697,-3.0162,-3.0205,-3.0333,-3.0485,-3.0609,-3.0749,-3.0878,-3.0813,-3.0577,-3.0119,-3.0097,-3.0018,-2.9661,-2.9415,-2.9196,-2.8969,-2.8893,-2.8634,-2.8439,-2.8479,-2.8557,-2.8656,-2.8731,-2.8957,-2.9218,-2.9351,-2.9512,-2.9608,-2.9771,-2.9893,-3.0007,-3.0064,-3.0152,-3.0253,-3.033,-3.0371,-3.0419,-3.0492,-3.0576,-3.068,-3.0704,-3.0742,-3.021,-2.9535,-2.7989,-2.584,-2.577,-2.5465,-2.5382,-2.5606,-2.5758,-2.591,-2.6201,-2.6339,-2.6408,-2.6465,-2.6521,-2.6521,-2.6533,-2.6589,-2.6658,-2.679,-2.7138,-2.7214,-2.7354,-2.7844,-2.8196,-2.8273,-2.8856,-2.9134,-2.9349,-2.949,-2.9194,-2.8557,-2.8562,-2.8391,-2.8124,-2.8116,-2.8106,-2.7987,-2.7934,-2.8027,-2.8158,-2.8276,-2.8341,-2.8406,-2.8729,-2.9035,-2.9289,-2.954,-2.9727,-2.9974,-3.0144,-3.0326,-3.0401,-3.0507,-3.0642,-3.0702,-3.0836,-3.0999,-3.1176,-3.1336,-3.1289,-3.1049,-3.1031,-3.0896,-3.0657,-3.0588,-3.0539,-3.0464,-3.0402,-3.0297,-3.0117,-2.972,-2.9681,-3.0146,-3.0205,-3.0316,-3.0568,-3.0651,-3.0773,-3.0912,-3.1032,-3.0937,-3.0768,-3.0848,-3.0705,-3.0351,-3.0144,-3.0066,-2.9927,-2.9748,-2.9378,-2.8933,-2.8945,-2.9034,-2.8839,-2.8931,-2.9026,-2.9262,-2.939,-2.9531,-2.9645,-2.9771,-2.991,-3.0007,-3.0079,-3.0185,-3.0286,-3.033,-3.0359,-3.0428,-3.0501,-3.0586,-3.0657,-3.0683,-3.0639,-3.0397,-2.9645,-2.8221,-2.6009,-2.5828,-2.5548,-2.5523,-2.5688,-2.591,-2.6119,-2.6327,-2.6465,-2.6533,-2.6521,-2.6533,-2.6533,-2.6627,-2.6866,-2.7067,-2.7242,-2.7767,-2.7998,-2.8139,-2.8659,-2.8929,-2.9083,-2.9516,-2.9999,-3.0199,-3.0594,-3.0438,-2.9542,-2.9502,-2.9315,-2.9072,-2.9118,-2.9053,-2.8719,-2.8572,-2.8438,-2.8541,-2.8549,-2.8716,-2.8844,-2.9035,-2.9352,-2.9665,-2.9713,-2.9898,-3.0205,-3.0312,-3.0447,-3.0522,-3.0642,-3.0687,-3.0821,-3.1014,-3.119,-3.1351,-3.1467,-3.1524,-3.1509,-3.1552,-3.1462,-3.13,-3.1283,-3.1197,-3.1134,-3.1102,-3.093,-3.0656,-3.0158,-2.9971,-3.0413,-3.0287,-3.0375,-3.0609,-3.0733,-3.0814,-3.0975,-3.1095,-3.1252,-3.1249,-3.1445,-3.1359,-3.0991,-3.1098,-3.1058,-3.0762,-3.0566,-3.0303,-2.9912,-2.9835,-2.9764,-2.9332,-2.9172,-2.9167,-2.9265,-2.9372,-2.9511,-2.9626,-2.9773,-2.9893,-3.0007,-3.0113,-3.0185,-3.0253,-3.0299,-3.0328,-3.0428,-3.05,-3.0559,-3.0613,-3.0653,-3.0613,-3.049,-2.9983,-2.8875,-2.647,-2.591,-2.584,-2.584,-2.591,-2.605,-2.6327,-2.6589,-2.6658,-2.6658,-2.6726,-2.6658,-2.6671,-2.6878,-2.7506,-2.7729,-2.7991,-2.8376,-2.8659,-2.8762,-2.937,-2.9714,-2.9792,-3.0668,-3.0887,-3.0987,-3.1281,-3.1003,-3.0441,-3.0453,-3.0206,-2.9837,-2.987,-2.9832,-2.9835,-2.9483,-2.952,-2.9608,-2.9325,-2.919,-2.9415,-2.9477,-2.9741,-2.9974,-3.0097,-3.0205,-3.0312,-3.0433,-3.0568,-3.0582,-3.0642,-3.0762,-3.1014,-3.1087,-3.1249,-3.1424,-3.1612,-3.167,-3.1597,-3.1655,-3.1655,-3.1655,-3.1675,-3.186,-3.1824,-3.1674,-3.151,-3.147,-3.083,-3.0612,-3.0794,-3.0566,-3.0533,-3.0609,-3.079,-3.0855,-3.1015,-3.123,-3.1329,-3.1483,-3.1614,-3.1746,-3.1652,-3.19,-3.207,-3.1724,-3.1369,-3.1094,-3.0823,-3.0656,-3.0261,-2.9758,-2.9494,-2.947,-2.9265,-2.9372,-2.9511,-2.9607,-2.9737,-2.9876,-2.9975,-3.0083,-3.0138,-3.0207,-3.0254,-3.0348,-3.0436,-3.049,-3.054,-3.0586,-3.0621,-3.0661,-3.0671,-3.005,-2.9433,-2.7418,-2.634,-2.6033,-2.5923,-2.591,-2.6164,-2.6452,-2.6658,-2.6794,-2.6863,-2.6863,-2.6875,-2.7097,-2.7536,-2.8202,-2.8601,-2.8802,-2.921,-2.9455,-2.9572,-3.0134,-3.0494,-3.0708,-3.1053,-3.1347,-3.1508,-3.1656,-3.1676,-3.1309,-3.1202,-3.1047,-3.0636,-3.0726,-3.0663,-3.0733,-3.0418,-3.0416,-3.0342,-3.0137,-2.9827,-2.9749,-2.9865,-2.9988,-3.0205,-3.0266,-3.0372,-3.0433,-3.0507,-3.0642,-3.0642,-3.0642,-3.0836,-3.1014,-3.119,-3.1292,-3.1467,-3.1769,-3.1841,-3.1742,-3.1799,-3.1784,-3.1826,-3.194,-3.212,-3.2305,-3.2113,-3.1981,-3.2173,-3.1534,-3.1273,-3.1283,-3.1008,-3.0872,-3.085,-3.0922,-3.0992,-3.1095,-3.1308,-3.1462,-3.1614,-3.1746,-3.1856,-3.202,-3.2214,-3.2332,-3.2219,-3.2058,-3.1977,-3.1564,-3.1174,-3.0675,-3.0063,-2.9885,-2.9806,-2.9487,-2.9351,-2.951,-2.9626,-2.9738,-2.9842,-2.9924,-3.0019,-3.0094,-3.018,-3.0266,-3.0343,-3.0433,-3.0458,-3.0481,-3.054,-3.0606,-3.064,-3.0653,-3.0632,-2.9965,-2.8226,-2.7138,-2.6532,-2.6173,-2.6074,-2.6496,-2.686,-2.7023,-2.7421,-2.7516,-2.7503,-2.7554,-2.7842,-2.8381,-2.8957,-2.934,-2.9523,-3.0085,-3.0294,-3.0516,-3.0799,-3.1057,-3.1206,-3.1347,-3.1596,-3.1669,-3.189,-3.1923,-3.1996,-3.1942,-3.1726,-3.1375,-3.1646,-3.1638,-3.142,-3.1226,-3.1209,-3.1037,-3.0965,-3.0651,-3.0372,-3.0383,-3.0377,-3.0384,-3.0372,-3.0433,-3.0568,-3.0642,-3.0642,-3.0702,-3.0762,-3.0895,-3.1132,-3.1234,-3.1409,-3.1582,-3.1883,-3.2012,-3.1898,-3.1898,-3.1898,-3.1996,-3.2094,-3.2262,-3.2672,-3.2351,-3.2296,-3.286,-3.2254,-3.1933,-3.1772,-3.1581,-3.1285,-3.1158,-3.1063,-3.1099,-3.119,-3.1346,-3.1517,-3.1576,-3.1763,-3.2001,-3.2179,-3.237,-3.2488,-3.2621,-3.2677,-3.2755,-3.239,-3.1865,-3.1464,-3.091,-3.068,-3.0471,-2.9946,-2.9702,-2.9751,-2.9663,-2.9757,-2.9825,-2.991,-2.9988,-3.006,-3.0152,-3.024,-3.0292,-3.0355,-3.0383,-3.0439,-3.05,-3.0569,-3.0568,-3.0604,-3.0653,-3.0393,-2.8737,-2.8512,-2.7598,-2.6839,-2.63,-2.7157,-2.7627,-2.7831,-2.8518,-2.8744,-2.8692,-2.8821,-2.8808,-2.9126,-2.9613,-2.9999,-3.0111,-3.0673,-3.079,-3.093,-3.1185,-3.1272,-3.1421,-3.1656,-3.1817,-3.189,-3.2036,-3.2228,-3.2359,-3.2359,-3.2318,-3.2349,-3.2354,-3.2636,-3.2569,-3.2208,-3.1884,-3.1843,-3.1744,-3.1611,-3.1295,-3.1128,-3.105,-3.0681,-3.0611,-3.0582,-3.0642,-3.0642,-3.0642,-3.0762,-3.0821,-3.094,-3.1234,-3.1292,-3.1467,-3.1727,-3.1883,-3.2053,-3.2038,-3.1996,-3.2012,-3.2053,-3.215,-3.2373,-3.2827,-3.2897,-3.3055,-3.3367,-3.2878,-3.2821,-3.259,-3.2266,-3.1896,-3.1524,-3.1381,-3.1217,-3.1292,-3.1346,-3.1517,-3.1593,-3.1763,-3.2018,-3.2214,-3.2404,-3.2506,-3.2621,-3.288,-3.2955,-3.3056,-3.2647,-3.242,-3.2033,-3.1697,-3.1241,-3.0549,-3.0327,-3.018,-2.9926,-2.9851,-2.9866,-2.9895,-2.9956,-3.0011,-3.0109,-3.0185,-3.0221,-3.0273,-3.0336,-3.0394,-3.0469,-3.051,-3.053,-3.0577,-3.0657,-3.0314,-2.9176,-2.8813,-2.8387,-2.7911,-2.7423,-2.8053,-2.8357,-2.8608,-2.9028,-2.919,-2.9256,-2.9555,-2.9652,-2.9881,-3.0285,-3.066,-3.0686,-3.0843,-3.1035,-3.1198,-3.1272,-3.1434,-3.1656,-3.1803,-3.1963,-3.2036,-3.2169,-3.2228,-3.2345,-3.2561,-3.2704,-3.2775,-3.2846,-3.2903,-3.2848,-3.2961,-3.2814,-3.2592,-3.2563,-3.245,-3.204,-3.198,-3.1768,-3.1221,-3.1163,-3.0916,-3.0655,-3.0642,-3.0702,-3.0865,-3.1013,-3.1205,-3.1352,-3.141,-3.1569,-3.1799,-3.194,-3.2094,-3.2135,-3.2094,-3.2012,-3.2053,-3.2262,-3.2539,-3.2897,-3.3058,-3.3309,-3.3479,-3.3607,-3.3534,-3.3206,-3.2968,-3.2689,-3.2167,-3.1774,-3.1503,-3.141,-3.1521,-3.1538,-3.1614,-3.1837,-3.2073,-3.2249,-3.2404,-3.2506,-3.2621,-3.2912,-3.3172,-3.327,-3.3304,-3.2995,-3.281,-3.2495,-3.2016,-3.132,-3.0943,-3.065,-3.0263,-2.9945,-2.9868,-2.9842,-2.9886,-2.9962,-3.006,-3.0123,-3.018,-3.0234,-3.0286,-3.0348,-3.0406,-3.0449,-3.0471,-3.053,-3.0632,-3.037,-2.9553,-2.9202,-2.9189,-2.8762,-2.8306,-2.8724,-2.9078,-2.932,-2.9732,-2.9856,-2.9968,-3.0302,-3.0385,-3.0516,-3.0751,-3.096,-3.0934,-3.1048,-3.1123,-3.1272,-3.1434,-3.1596,-3.1817,-3.1963,-3.2036,-3.2169,-3.2241,-3.2372,-3.2489,-3.2704,-3.2846,-3.3002,-3.3129,-3.3227,-3.3269,-3.3507,-3.3571,-3.3378,-3.3422,-3.3215,-3.276,-3.2709,-3.2483,-3.1932,-3.1816,-3.1747,-3.1471,-3.1474,-3.1553,-3.1659,-3.1796,-3.1768,-3.1752,-3.1735,-3.1835,-3.1902,-3.1996,-3.2094,-3.2191,-3.2191,-3.2094,-3.215,-3.2373,-3.2664,-3.2897,-3.315,-3.3398,-3.3642,-3.3917,-3.3989,-3.363,-3.351,-3.3396,-3.2944,-3.211,-3.1782,-3.1704,-3.173,-3.1696,-3.1688,-3.1893,-3.2108,-3.2249,-3.2404,-3.2639,-3.277,-3.2961,-3.3238,-3.3437,-3.3459,-3.3387,-3.3266,-3.314,-3.2637,-3.2114,-3.1931,-3.1603,-3.0466,-3.0151,-2.9832,-2.9806,-2.9869,-2.995,-3.0034,-3.0113,-3.0152,-3.0194,-3.0247,-3.0311,-3.0371,-3.0386,-3.0419,-3.052,-3.0597,-3.064,-2.9767,-2.9767,-2.9754,-2.9265,-2.8591,-2.9218,-2.9584,-2.9917,-3.0716,-3.1088,-3.1048,-3.118,-3.1106,-3.097,-3.1035,-3.0973,-3.0986,-3.0986,-3.1136,-3.1347,-3.1447,-3.1669,-3.189,-3.2109,-3.2169,-3.2241,-3.23,-3.2503,-3.2704,-3.2846,-3.3072,-3.3312,-3.3466,-3.3564,-3.3593,-3.3939,-3.4074,-3.4085,-3.4177,-3.3868,-3.3601,-3.3456,-3.3093,-3.2707,-3.2483,-3.2509,-3.2386,-3.2328,-3.2438,-3.2714,-3.2805,-3.2734,-3.2557,-3.2616,-3.2521,-3.2163,-3.2201,-3.2308,-3.2342,-3.2398,-3.2287,-3.2247,-3.2484,-3.2718,-3.2951,-3.315,-3.345,-3.3694,-3.4,-3.4234,-3.4137,-3.4034,-3.3951,-3.3567,-3.2737,-3.2219,-3.2201,-3.2003,-3.1987,-3.1815,-3.1929,-3.2144,-3.2284,-3.2456,-3.2737,-3.293,-3.3055,-3.3268,-3.352,-3.3597,-3.3515,-3.356,-3.3508,-3.3345,-3.2939,-3.2999,-3.2518,-3.125,-3.0319,-3.0001,-2.9866,-2.9952,-3.0016,-3.0026,-3.0068,-3.0113,-3.0152,-3.0194,-3.026,-3.0311,-3.0352,-3.0398,-3.05,-3.0559,-3.0586,-2.9779,-2.9792,-2.9934,-2.9859,-2.9755,-2.9997,-3.0312,-3.0637,-3.1106,-3.136,-3.1447,-3.136,-3.1272,-3.1198,-3.1061,-3.0986,-3.0986,-3.0999,-3.1136,-3.1447,-3.1535,-3.183,-3.2036,-3.2169,-3.2228,-3.2286,-3.2417,-3.2632,-3.2917,-3.2988,-3.3213,-3.3452,-3.3758,-3.3911,-3.398,-3.4103,-3.4157,-3.4264,-3.4317,-3.4283,-3.4109,-3.4037,-3.3842,-3.3346,-3.3317,-3.322,-3.3103,-3.3118,-3.3243,-3.3446,-3.3523,-3.3438,-3.3351,-3.3412,-3.3273,-3.2917,-3.2833,-3.266,-3.2511,-3.2398,-3.2398,-3.2468,-3.2594,-3.2843,-3.3058,-3.3361,-3.3607,-3.3797,-3.4101,-3.4349,-3.4366,-3.451,-3.4432,-3.4146,-3.351,-3.3052,-3.2819,-3.2514,-3.2312,-3.2024,-3.1984,-3.2232,-3.2404,-3.2472,-3.2737,-3.2961,-3.3055,-3.3268,-3.352,-3.3605,-3.3606,-3.3725,-3.3766,-3.3744,-3.3704,-3.3557,-3.3318,-3.2331,-3.1068,-3.0114,-3.0055,-3.0162,-3.004,-3.0029,-3.0041,-3.0068,-3.0113,-3.0171,-3.0194,-3.0247,-3.0292,-3.0364,-3.0428,-3.0481,-3.053,-2.9869,-2.9946,-3.0011,-3.0228,-3.0444,-3.0533,-3.0761,-3.1136,-3.136,-3.1522,-3.1669,-3.1582,-3.1434,-3.1347,-3.1198,-3.1136,-3.1061,-3.1061,-3.1224,-3.1535,-3.1609,-3.1817,-3.2109,-3.2241,-3.23,-3.2345,-3.2489,-3.2704,-3.2988,-3.3072,-3.3368,-3.366,-3.402,-3.4225,-3.4293,-3.4293,-3.4293,-3.4346,-3.4399,-3.4399,-3.4423,-3.4461,-3.4397,-3.4142,-3.4112,-3.4059,-3.3864,-3.3765,-3.3877,-3.4017,-3.4128,-3.41,-3.4257,-3.4197,-3.406,-3.378,-3.3418,-3.3229,-3.2962,-3.2514,-3.2554,-3.2687,-3.2827,-3.3005,-3.315,-3.3503,-3.3658,-3.3915,-3.4267,-3.4399,-3.4546,-3.4739,-3.4778,-3.4447,-3.4164,-3.3693,-3.3556,-3.3311,-3.2711,-3.2426,-3.2177,-3.2389,-3.2539,-3.2606,-3.2705,-3.2898,-3.3086,-3.3298,-3.3502,-3.3577,-3.3633,-3.3753,-3.3868,-3.3899,-3.3889,-3.3892,-3.3589,-3.3262,-3.2248,-3.1091,-3.0471,-3.0599,-3.0309,-3.0035,-3.0029,-3.0057,-3.0102,-3.0147,-3.0152,-3.0194,-3.026,-3.0323,-3.0383,-3.0439,-3.0472,-2.9934,-3.0075,-3.0164,-3.0305,-3.0622,-3.0698,-3.1075,-3.1609,-3.1609,-3.1743,-3.189,-3.189,-3.1743,-3.1596,-3.1434,-3.1272,-3.1272,-3.1136,-3.1299,-3.1535,-3.1683,-3.189,-3.2109,-3.2241,-3.2359,-3.2417,-3.2632,-3.2846,-3.3058,-3.3297,-3.3605,-3.3882,-3.4225,-3.4428,-3.4496,-3.4549,-3.4481,-3.4481,-3.4481,-3.4549,-3.4631,-3.4683,-3.4758,-3.4692,-3.4794,-3.4845,-3.4872,-3.4966,-3.5205,-3.5379,-3.5537,-3.5347,-3.5214,-3.5187,-3.4956,-3.4552,-3.4079,-3.381,-3.3485,-3.3005,-3.2851,-3.2966,-3.2951,-3.3112,-3.3309,-3.3555,-3.3694,-3.3965,-3.4267,-3.4399,-3.4546,-3.4787,-3.5008,-3.4768,-3.4621,-3.4452,-3.4457,-3.4024,-3.3377,-3.2948,-3.2595,-3.2547,-3.2558,-3.2621,-3.2776,-3.2898,-3.3104,-3.3208,-3.3386,-3.3559,-3.3615,-3.3744,-3.386,-3.3972,-3.4006,-3.4017,-3.3981,-3.3672,-3.3577,-3.2669,-3.1958,-3.1035,-3.0711,-3.0423,-3.0111,-3.0026,-3.0053,-3.0083,-3.0109,-3.0152,-3.0221,-3.0286,-3.0359,-3.0386,-3.043,-3.0152,-3.0305,-3.0457,-3.0622,-3.0685,-3.0986,-3.1286,-3.1609,-3.1609,-3.1817,-3.2109,-3.1963,-3.1904,-3.183,-3.1596,-3.1522,-3.1522,-3.1522,-3.1596,-3.1757,-3.1757,-3.1977,-3.2182,-3.23,-3.2431,-3.2632,-3.2775,-3.3002,-3.3227,-3.3536,-3.3799,-3.4074,-3.4414,-3.4631,-3.4683,-3.4735,-3.4683,-3.4616,-3.4631,-3.4698,-3.4765,-3.4817,-3.4949,-3.5133,-3.5279,-3.5409,-3.5524,-3.5699,-3.5812,-3.591,-3.5928,-3.5793,-3.5919,-3.6029,-3.5968,-3.5543,-3.4976,-3.4369,-3.3917,-3.3637,-3.3435,-3.319,-3.315,-3.3309,-3.3466,-3.3607,-3.3797,-3.4,-3.425,-3.4448,-3.4594,-3.4835,-3.5041,-3.5015,-3.4935,-3.5003,-3.4951,-3.4582,-3.3997,-3.3647,-3.3277,-3.295,-3.2928,-3.2765,-3.2918,-3.2987,-3.3073,-3.3196,-3.3345,-3.3473,-3.3587,-3.3698,-3.3834,-3.3972,-3.4074,-3.4123,-3.4162,-3.4124,-3.3989,-3.3757,-3.2896,-3.2034,-3.1318,-3.073,-3.0288,-3.0073,-3.0022,-3.0034,-3.0064,-3.0123,-3.018,-3.0247,-3.0323,-3.0359,-3.0394,-3.0381,-3.0533,-3.0622,-3.0773,-3.0836,-3.1123,-3.1434,-3.1596,-3.1669,-3.189,-3.2182,-3.2123,-3.2036,-3.1963,-3.1817,-3.1743,-3.1669,-3.1596,-3.1669,-3.1817,-3.189,-3.2036,-3.2169,-3.2359,-3.2489,-3.2704,-3.2917,-3.3143,-3.3452,-3.3813,-3.4088,-3.4278,-3.4616,-3.4817,-3.4898,-3.4949,-3.4949,-3.4883,-3.4831,-3.4883,-3.4949,-3.5082,-3.5279,-3.5459,-3.5604,-3.5718,-3.5831,-3.5955,-3.6067,-3.61,-3.6117,-3.6243,-3.6383,-3.6616,-3.6723,-3.6266,-3.5763,-3.5117,-3.4554,-3.41,-3.374,-3.3408,-3.3361,-3.345,-3.3607,-3.3761,-3.3899,-3.4101,-3.4349,-3.4546,-3.4691,-3.4899,-3.5088,-3.5274,-3.5357,-3.5436,-3.5273,-3.507,-3.4702,-3.4418,-3.4032,-3.367,-3.3389,-3.3191,-3.2991,-3.2959,-3.3011,-3.3117,-3.3286,-3.3462,-3.3559,-3.3643,-3.3788,-3.3954,-3.4049,-3.4148,-3.4189,-3.4269,-3.4323,-3.3995,-3.3477,-3.2879,-3.2071,-3.1204,-3.037,-3.0213,-3.0092,-3.0041,-3.0034,-3.0079,-3.0138,-3.0213,-3.0279,-3.0318,-3.0355,-3.0533,-3.0698,-3.0698,-3.0849,-3.0986,-3.1198,-3.1447,-3.1609,-3.1817,-3.205,-3.2182,-3.2169,-3.2169,-3.2109,-3.1963,-3.1963,-3.189,-3.1817,-3.1817,-3.189,-3.1963,-3.2096,-3.2228,-3.2372,-3.2574,-3.2775,-3.2988,-3.3353,-3.366,-3.3937,-3.421,-3.4414,-3.475,-3.5016,-3.5096,-3.5228,-3.5213,-3.5198,-3.5148,-3.5133,-3.5359,-3.5489,-3.5683,-3.591,-3.5973,-3.6037,-3.6037,-3.61,-3.6163,-3.6289,-3.6461,-3.6585,-3.6769,-3.6952,-3.6997,-3.7008,-3.6535,-3.5938,-3.5304,-3.4754,-3.4139,-3.381,-3.3603,-3.3674,-3.3813,-3.3848,-3.3949,-3.4151,-3.4399,-3.4546,-3.4691,-3.4947,-3.5198,-3.5337,-3.5407,-3.5582,-3.565,-3.5505,-3.5307,-3.5031,-3.4821,-3.4408,-3.3935,-3.3705,-3.3383,-3.3125,-3.2965,-3.3073,-3.3244,-3.3422,-3.352,-3.3587,-3.3762,-3.3921,-3.4023,-3.4099,-3.4197,-3.4316,-3.4427,-3.4326,-3.3845,-3.3346,-3.2824,-3.1827,-3.0844,-3.0407,-3.0194,-3.0146,-3.0079,-3.0053,-3.0098,-3.0157,-3.0213,-3.024,-3.0312,-3.0773,-3.0911,-3.0911,-3.0986,-3.1061,-3.1373,-3.1535,-3.1596,-3.1963,-3.2109,-3.2169,-3.2169,-3.2169,-3.2169,-3.2096,-3.2109,-3.2109,-3.2036,-3.2123,-3.2109,-3.2109,-3.2169,-3.2359,-3.2516,-3.2731,-3.3002,-3.3283,-3.3577,-3.3922,-3.421,-3.4414,-3.4616,-3.4949,-3.5148,-3.5228,-3.5359,-3.5474,-3.5524,-3.5574,-3.5459,-3.5554,-3.5812,-3.5988,-3.61,-3.6163,-3.6367,-3.6429,-3.66,-3.6708,-3.6816,-3.686,-3.6906,-3.7058,-3.7194,-3.727,-3.7298,-3.72,-3.6679,-3.6064,-3.5442,-3.4888,-3.4367,-3.4058,-3.3941,-3.3899,-3.3899,-3.4,-3.425,-3.4399,-3.4546,-3.4739,-3.5041,-3.5245,-3.5337,-3.5458,-3.5711,-3.5975,-3.5924,-3.5827,-3.5715,-3.5504,-3.5109,-3.4622,-3.4235,-3.3827,-3.3484,-3.3148,-3.3078,-3.3219,-3.3388,-3.3481,-3.3577,-3.3726,-3.3842,-3.3972,-3.4049,-3.4148,-3.4245,-3.434,-3.4255,-3.4154,-3.3583,-3.297,-3.2202,-3.1412,-3.094,-3.0502,-3.0227,-3.0162,-3.0048,-3.0038,-3.0083,-3.0113,-3.0142,-3.0213,-3.0911,-3.0986,-3.0986,-3.0986,-3.1061,-3.1447,-3.1609,-3.1669,-3.2036,-3.2169,-3.2169,-3.2169,-3.2169,-3.2169,-3.2169,-3.2169,-3.2169,-3.2169,-3.2182,-3.2182,-3.2241,-3.23,-3.2444,-3.2646,-3.2775,-3.3058,-3.3521,-3.3882,-3.421,-3.4414,-3.4631,-3.4898,-3.5162,-3.5294,-3.5359,-3.5489,-3.5668,-3.5703,-3.5831,-3.591,-3.5876,-3.6115,-3.6289,-3.6352,-3.6554,-3.6677,-3.6754,-3.6924,-3.6969,-3.6999,-3.7074,-3.7178,-3.727,-3.7329,-3.7405,-3.7464,-3.737,-3.7223,-3.6648,-3.6149,-3.5625,-3.5038,-3.4563,-3.4462,-3.4016,-3.405,-3.4201,-3.4399,-3.4448,-3.4546,-3.4787,-3.5088,-3.5245,-3.5337,-3.5503,-3.5711,-3.6019,-3.6197,-3.6232,-3.6249,-3.6094,-3.5952,-3.55,-3.5276,-3.4872,-3.4286,-3.3886,-3.353,-3.3584,-3.3442,-3.3502,-3.352,-3.3671,-3.3807,-3.3921,-3.3998,-3.4074,-3.4173,-3.4245,-3.4284,-3.4203,-3.369,-3.3077,-3.2632,-3.2089,-3.145,-3.1033,-3.065,-3.0175,-2.9969,-2.9962,-3.0007,-3.0022,-3.0038,-3.0113,-3.1061,-3.1061,-3.0986,-3.0986,-3.1061,-3.1447,-3.1609,-3.1683,-3.2036,-3.2169,-3.2169,-3.2169,-3.2169,-3.2169,-3.2169,-3.2169,-3.2169,-3.2169,-3.2169,-3.2169,-3.2169,-3.2372,-3.2475,-3.2648,-3.2889,-3.3269,-3.373,-3.4074,-3.4414,-3.4698,-3.4964,-3.5162,-3.5294,-3.5359,-3.5474,-3.5653,-3.5752,-3.5879,-3.6006,-3.6289,-3.6429,-3.6554,-3.66,-3.6739,-3.6938,-3.6999,-3.6999,-3.706,-3.706,-3.7105,-3.721,-3.7345,-3.7405,-3.7464,-3.748,-3.7539,-3.7539,-3.7266,-3.688,-3.6692,-3.6126,-3.5599,-3.5251,-3.4839,-3.4408,-3.4249,-3.4398,-3.4448,-3.4497,-3.4643,-3.4883,-3.5088,-3.5245,-3.5383,-3.5549,-3.5756,-3.6079,-3.6437,-3.6527,-3.6632,-3.6601,-3.6474,-3.638,-3.6158,-3.572,-3.5173,-3.4762,-3.45,-3.4181,-3.3862,-3.3713,-3.3597,-3.3577,-3.3726,-3.3842,-3.3947,-3.4023,-3.408,-3.4154,-3.4269,-3.4269,-3.3945,-3.369,-3.3468,-3.2872,-3.2183,-3.1525,-3.1053,-3.0581,-2.9996,-2.9897,-2.9926,-2.9943,-2.9959,-3.0022,-3.1373,-3.1198,-3.1061,-3.1061,-3.1286,-3.1535,-3.1669,-3.189,-3.2109,-3.2169,-3.2169,-3.2169,-3.2169,-3.2169,-3.2169,-3.2169,-3.2169,-3.2169,-3.2169,-3.2169,-3.2169,-3.2372,-3.2632,-3.2804,-3.3171,-3.3563,-3.402,-3.4346,-3.4616,-3.4949,-3.5082,-3.5213,-3.5424,-3.5474,-3.5638,-3.5752,-3.5816,-3.6006,-3.6211,-3.6414,-3.66,-3.6739,-3.68,-3.6923,-3.7089,-3.7134,-3.7194,-3.7345,-3.7361,-3.7421,-3.7405,-3.7464,-3.748,-3.748,-3.7539,-3.7539,-3.7599,-3.7605,-3.7345,-3.7198,-3.6692,-3.6458,-3.605,-3.5279,-3.488,-3.4527,-3.4611,-3.4513,-3.4594,-3.4691,-3.4947,-3.5135,-3.5291,-3.5458,-3.5622,-3.5905,-3.6165,-3.6437,-3.6643,-3.6748,-3.6799,-3.6773,-3.6798,-3.6544,-3.6215,-3.574,-3.5385,-3.5075,-3.4508,-3.4227,-3.3911,-3.3719,-3.3556,-3.3643,-3.378,-3.3868,-3.3947,-3.4005,-3.408,-3.4197,-3.4316,-3.4413,-3.4173,-3.3911,-3.3548,-3.2954,-3.2297,-3.1619,-3.0809,-3.0262,-2.994,-2.9823,-2.9859,-2.9893,-2.9943]}]]